<?xml version="1.0" encoding="UTF-8" standalone="no" ?>
<gpx xmlns="http://www.topografix.com/GPX/1/1" xmlns:xsi="http://www.w3.org/2001/XMLSchema-instance" xsi:schemaLocation="http://www.topografix.com/GPX/1/1 http://www.topografix.com/GPX/1/1/gpx.xsd" version="1.1" creator="VisuGPX - https://www.visugpx.com">
  <metadata>
    <name>La presqu'île de Laussac</name>
    <desc><![CDATA[Circuit au départ du centre de Thérendels, effectué dans le sens anti-horaire, vers la presqu'île de Laussac, où la baignade est possible.Retour en suivant le cours du Brezons.]]></desc>
  </metadata>
  <trk>
    <name><![CDATA[JUIL-08-19 15:32:11]]></name>
    <trkseg>
      <trkpt lat="44.89502" lon="2.75794">
        <ele>946.56</ele>
        <time>2019-07-08T07:01:02Z</time>
      </trkpt>
      <trkpt lat="44.89502" lon="2.75794">
        <ele>945.59</ele>
        <time>2019-07-08T07:01:20Z</time>
      </trkpt>
      <trkpt lat="44.89502" lon="2.75794">
        <ele>946.07</ele>
        <time>2019-07-08T07:01:33Z</time>
      </trkpt>
      <trkpt lat="44.89501" lon="2.75794">
        <ele>946.56</ele>
        <time>2019-07-08T07:02:29Z</time>
      </trkpt>
      <trkpt lat="44.89503" lon="2.75795">
        <ele>946.56</ele>
        <time>2019-07-08T07:02:47Z</time>
      </trkpt>
      <trkpt lat="44.89509" lon="2.75793">
        <ele>947.04</ele>
        <time>2019-07-08T07:02:58Z</time>
      </trkpt>
      <trkpt lat="44.89519" lon="2.75795">
        <ele>947.04</ele>
        <time>2019-07-08T07:03:07Z</time>
      </trkpt>
      <trkpt lat="44.89531" lon="2.75795">
        <ele>947.52</ele>
        <time>2019-07-08T07:03:21Z</time>
      </trkpt>
      <trkpt lat="44.89534" lon="2.75791">
        <ele>947.52</ele>
        <time>2019-07-08T07:03:25Z</time>
      </trkpt>
      <trkpt lat="44.89538" lon="2.75782">
        <ele>947.04</ele>
        <time>2019-07-08T07:03:33Z</time>
      </trkpt>
      <trkpt lat="44.89538" lon="2.75778">
        <ele>946.56</ele>
        <time>2019-07-08T07:03:37Z</time>
      </trkpt>
      <trkpt lat="44.89534" lon="2.75769">
        <ele>947.04</ele>
        <time>2019-07-08T07:03:52Z</time>
      </trkpt>
      <trkpt lat="44.89534" lon="2.75769">
        <ele>947.04</ele>
        <time>2019-07-08T07:04:26Z</time>
      </trkpt>
      <trkpt lat="44.89535" lon="2.75768">
        <ele>947.04</ele>
        <time>2019-07-08T07:04:38Z</time>
      </trkpt>
      <trkpt lat="44.89535" lon="2.75768">
        <ele>947.04</ele>
        <time>2019-07-08T07:05:04Z</time>
      </trkpt>
      <trkpt lat="44.89531" lon="2.7576">
        <ele>947.04</ele>
        <time>2019-07-08T07:05:22Z</time>
      </trkpt>
      <trkpt lat="44.89522" lon="2.75749">
        <ele>946.56</ele>
        <time>2019-07-08T07:05:34Z</time>
      </trkpt>
      <trkpt lat="44.89513" lon="2.75731">
        <ele>946.07</ele>
        <time>2019-07-08T07:05:48Z</time>
      </trkpt>
      <trkpt lat="44.89511" lon="2.75731">
        <ele>946.07</ele>
        <time>2019-07-08T07:06:03Z</time>
      </trkpt>
      <trkpt lat="44.89511" lon="2.7573">
        <ele>946.07</ele>
        <time>2019-07-08T07:06:23Z</time>
      </trkpt>
      <trkpt lat="44.89511" lon="2.7573">
        <ele>946.07</ele>
        <time>2019-07-08T07:06:40Z</time>
      </trkpt>
      <trkpt lat="44.89509" lon="2.75721">
        <ele>945.59</ele>
        <time>2019-07-08T07:07:03Z</time>
      </trkpt>
      <trkpt lat="44.895" lon="2.75709">
        <ele>945.59</ele>
        <time>2019-07-08T07:07:16Z</time>
      </trkpt>
      <trkpt lat="44.89494" lon="2.75697">
        <ele>944.63</ele>
        <time>2019-07-08T07:07:26Z</time>
      </trkpt>
      <trkpt lat="44.89493" lon="2.75693">
        <ele>945.59</ele>
        <time>2019-07-08T07:07:29Z</time>
      </trkpt>
      <trkpt lat="44.89484" lon="2.75678">
        <ele>945.11</ele>
        <time>2019-07-08T07:07:42Z</time>
      </trkpt>
      <trkpt lat="44.8948" lon="2.75672">
        <ele>944.63</ele>
        <time>2019-07-08T07:07:47Z</time>
      </trkpt>
      <trkpt lat="44.89468" lon="2.75657">
        <ele>944.63</ele>
        <time>2019-07-08T07:08:00Z</time>
      </trkpt>
      <trkpt lat="44.89466" lon="2.75654">
        <ele>944.63</ele>
        <time>2019-07-08T07:08:03Z</time>
      </trkpt>
      <trkpt lat="44.8946" lon="2.75641">
        <ele>944.15</ele>
        <time>2019-07-08T07:08:16Z</time>
      </trkpt>
      <trkpt lat="44.89449" lon="2.75624">
        <ele>944.15</ele>
        <time>2019-07-08T07:08:31Z</time>
      </trkpt>
      <trkpt lat="44.89444" lon="2.75615">
        <ele>943.67</ele>
        <time>2019-07-08T07:08:39Z</time>
      </trkpt>
      <trkpt lat="44.89441" lon="2.7561">
        <ele>944.15</ele>
        <time>2019-07-08T07:08:43Z</time>
      </trkpt>
      <trkpt lat="44.89435" lon="2.75596">
        <ele>942.23</ele>
        <time>2019-07-08T07:08:55Z</time>
      </trkpt>
      <trkpt lat="44.8943" lon="2.75587">
        <ele>943.19</ele>
        <time>2019-07-08T07:09:03Z</time>
      </trkpt>
      <trkpt lat="44.8942" lon="2.75569">
        <ele>942.71</ele>
        <time>2019-07-08T07:09:19Z</time>
      </trkpt>
      <trkpt lat="44.89418" lon="2.75563">
        <ele>943.67</ele>
        <time>2019-07-08T07:09:24Z</time>
      </trkpt>
      <trkpt lat="44.89407" lon="2.75546">
        <ele>943.67</ele>
        <time>2019-07-08T07:09:39Z</time>
      </trkpt>
      <trkpt lat="44.894" lon="2.75532">
        <ele>943.67</ele>
        <time>2019-07-08T07:09:52Z</time>
      </trkpt>
      <trkpt lat="44.89391" lon="2.75516">
        <ele>943.67</ele>
        <time>2019-07-08T07:10:05Z</time>
      </trkpt>
      <trkpt lat="44.89387" lon="2.75508">
        <ele>944.15</ele>
        <time>2019-07-08T07:10:11Z</time>
      </trkpt>
      <trkpt lat="44.89382" lon="2.75498">
        <ele>944.15</ele>
        <time>2019-07-08T07:10:21Z</time>
      </trkpt>
      <trkpt lat="44.89372" lon="2.75479">
        <ele>944.15</ele>
        <time>2019-07-08T07:10:37Z</time>
      </trkpt>
      <trkpt lat="44.89366" lon="2.75461">
        <ele>944.63</ele>
        <time>2019-07-08T07:10:50Z</time>
      </trkpt>
      <trkpt lat="44.89364" lon="2.75455">
        <ele>944.63</ele>
        <time>2019-07-08T07:10:56Z</time>
      </trkpt>
      <trkpt lat="44.89364" lon="2.75448">
        <ele>945.11</ele>
        <time>2019-07-08T07:11:01Z</time>
      </trkpt>
      <trkpt lat="44.8936" lon="2.7544">
        <ele>945.11</ele>
        <time>2019-07-08T07:11:07Z</time>
      </trkpt>
      <trkpt lat="44.8935" lon="2.75424">
        <ele>944.63</ele>
        <time>2019-07-08T07:11:22Z</time>
      </trkpt>
      <trkpt lat="44.89338" lon="2.7541">
        <ele>946.07</ele>
        <time>2019-07-08T07:11:36Z</time>
      </trkpt>
      <trkpt lat="44.89332" lon="2.75402">
        <ele>946.07</ele>
        <time>2019-07-08T07:11:43Z</time>
      </trkpt>
      <trkpt lat="44.8933" lon="2.754">
        <ele>945.59</ele>
        <time>2019-07-08T07:11:45Z</time>
      </trkpt>
      <trkpt lat="44.89322" lon="2.75389">
        <ele>946.56</ele>
        <time>2019-07-08T07:11:57Z</time>
      </trkpt>
      <trkpt lat="44.89319" lon="2.75387">
        <ele>946.07</ele>
        <time>2019-07-08T07:12:00Z</time>
      </trkpt>
      <trkpt lat="44.89307" lon="2.75371">
        <ele>946.07</ele>
        <time>2019-07-08T07:12:14Z</time>
      </trkpt>
      <trkpt lat="44.89296" lon="2.75356">
        <ele>946.56</ele>
        <time>2019-07-08T07:12:28Z</time>
      </trkpt>
      <trkpt lat="44.8929" lon="2.75351">
        <ele>946.56</ele>
        <time>2019-07-08T07:12:34Z</time>
      </trkpt>
      <trkpt lat="44.89282" lon="2.7534">
        <ele>947.52</ele>
        <time>2019-07-08T07:12:44Z</time>
      </trkpt>
      <trkpt lat="44.89277" lon="2.75334">
        <ele>947.04</ele>
        <time>2019-07-08T07:12:49Z</time>
      </trkpt>
      <trkpt lat="44.89271" lon="2.75326">
        <ele>947.04</ele>
        <time>2019-07-08T07:12:57Z</time>
      </trkpt>
      <trkpt lat="44.89269" lon="2.75324">
        <ele>947.04</ele>
        <time>2019-07-08T07:12:59Z</time>
      </trkpt>
      <trkpt lat="44.89264" lon="2.75318">
        <ele>946.56</ele>
        <time>2019-07-08T07:13:05Z</time>
      </trkpt>
      <trkpt lat="44.89261" lon="2.75313">
        <ele>947.52</ele>
        <time>2019-07-08T07:13:09Z</time>
      </trkpt>
      <trkpt lat="44.89261" lon="2.75307">
        <ele>946.56</ele>
        <time>2019-07-08T07:13:24Z</time>
      </trkpt>
      <trkpt lat="44.89261" lon="2.75308">
        <ele>946.56</ele>
        <time>2019-07-08T07:14:42Z</time>
      </trkpt>
      <trkpt lat="44.89257" lon="2.75308">
        <ele>946.07</ele>
        <time>2019-07-08T07:15:05Z</time>
      </trkpt>
      <trkpt lat="44.89243" lon="2.75293">
        <ele>947.04</ele>
        <time>2019-07-08T07:15:22Z</time>
      </trkpt>
      <trkpt lat="44.8923" lon="2.75281">
        <ele>945.11</ele>
        <time>2019-07-08T07:15:37Z</time>
      </trkpt>
      <trkpt lat="44.8923" lon="2.75281">
        <ele>945.59</ele>
        <time>2019-07-08T07:15:38Z</time>
      </trkpt>
      <trkpt lat="44.89218" lon="2.75277">
        <ele>945.11</ele>
        <time>2019-07-08T07:15:49Z</time>
      </trkpt>
      <trkpt lat="44.89209" lon="2.75277">
        <ele>946.07</ele>
        <time>2019-07-08T07:16:00Z</time>
      </trkpt>
      <trkpt lat="44.89206" lon="2.75279">
        <ele>945.11</ele>
        <time>2019-07-08T07:16:04Z</time>
      </trkpt>
      <trkpt lat="44.89194" lon="2.75277">
        <ele>946.07</ele>
        <time>2019-07-08T07:16:17Z</time>
      </trkpt>
      <trkpt lat="44.89187" lon="2.75277">
        <ele>946.07</ele>
        <time>2019-07-08T07:16:25Z</time>
      </trkpt>
      <trkpt lat="44.89181" lon="2.75276">
        <ele>945.59</ele>
        <time>2019-07-08T07:16:31Z</time>
      </trkpt>
      <trkpt lat="44.89168" lon="2.75276">
        <ele>945.59</ele>
        <time>2019-07-08T07:16:45Z</time>
      </trkpt>
      <trkpt lat="44.89154" lon="2.75275">
        <ele>945.11</ele>
        <time>2019-07-08T07:16:59Z</time>
      </trkpt>
      <trkpt lat="44.89152" lon="2.75275">
        <ele>944.63</ele>
        <time>2019-07-08T07:17:03Z</time>
      </trkpt>
      <trkpt lat="44.89138" lon="2.75274">
        <ele>944.63</ele>
        <time>2019-07-08T07:17:18Z</time>
      </trkpt>
      <trkpt lat="44.89124" lon="2.75275">
        <ele>944.15</ele>
        <time>2019-07-08T07:17:31Z</time>
      </trkpt>
      <trkpt lat="44.8911" lon="2.75276">
        <ele>943.67</ele>
        <time>2019-07-08T07:17:46Z</time>
      </trkpt>
      <trkpt lat="44.89096" lon="2.75277">
        <ele>943.19</ele>
        <time>2019-07-08T07:18:00Z</time>
      </trkpt>
      <trkpt lat="44.89094" lon="2.75278">
        <ele>943.19</ele>
        <time>2019-07-08T07:18:02Z</time>
      </trkpt>
      <trkpt lat="44.89083" lon="2.75283">
        <ele>942.71</ele>
        <time>2019-07-08T07:18:13Z</time>
      </trkpt>
      <trkpt lat="44.8908" lon="2.75284">
        <ele>943.67</ele>
        <time>2019-07-08T07:18:16Z</time>
      </trkpt>
      <trkpt lat="44.89067" lon="2.75292">
        <ele>941.27</ele>
        <time>2019-07-08T07:18:31Z</time>
      </trkpt>
      <trkpt lat="44.89058" lon="2.75302">
        <ele>942.71</ele>
        <time>2019-07-08T07:18:42Z</time>
      </trkpt>
      <trkpt lat="44.89053" lon="2.75306">
        <ele>942.23</ele>
        <time>2019-07-08T07:18:47Z</time>
      </trkpt>
      <trkpt lat="44.89042" lon="2.75318">
        <ele>942.23</ele>
        <time>2019-07-08T07:19:01Z</time>
      </trkpt>
      <trkpt lat="44.89039" lon="2.7532">
        <ele>942.23</ele>
        <time>2019-07-08T07:19:04Z</time>
      </trkpt>
      <trkpt lat="44.89028" lon="2.75332">
        <ele>942.71</ele>
        <time>2019-07-08T07:19:17Z</time>
      </trkpt>
      <trkpt lat="44.89017" lon="2.75338">
        <ele>942.23</ele>
        <time>2019-07-08T07:19:30Z</time>
      </trkpt>
      <trkpt lat="44.89016" lon="2.75339">
        <ele>942.23</ele>
        <time>2019-07-08T07:19:31Z</time>
      </trkpt>
      <trkpt lat="44.89006" lon="2.75343">
        <ele>942.71</ele>
        <time>2019-07-08T07:19:41Z</time>
      </trkpt>
      <trkpt lat="44.88992" lon="2.7535">
        <ele>941.75</ele>
        <time>2019-07-08T07:19:54Z</time>
      </trkpt>
      <trkpt lat="44.88991" lon="2.75352">
        <ele>941.75</ele>
        <time>2019-07-08T07:19:56Z</time>
      </trkpt>
      <trkpt lat="44.88979" lon="2.75356">
        <ele>941.75</ele>
        <time>2019-07-08T07:20:08Z</time>
      </trkpt>
      <trkpt lat="44.88965" lon="2.75359">
        <ele>942.23</ele>
        <time>2019-07-08T07:20:22Z</time>
      </trkpt>
      <trkpt lat="44.88954" lon="2.75363">
        <ele>941.75</ele>
        <time>2019-07-08T07:20:33Z</time>
      </trkpt>
      <trkpt lat="44.88943" lon="2.75366">
        <ele>941.27</ele>
        <time>2019-07-08T07:20:44Z</time>
      </trkpt>
      <trkpt lat="44.8893" lon="2.75369">
        <ele>941.27</ele>
        <time>2019-07-08T07:20:57Z</time>
      </trkpt>
      <trkpt lat="44.88925" lon="2.75371">
        <ele>941.27</ele>
        <time>2019-07-08T07:21:02Z</time>
      </trkpt>
      <trkpt lat="44.88916" lon="2.75376">
        <ele>941.27</ele>
        <time>2019-07-08T07:21:11Z</time>
      </trkpt>
      <trkpt lat="44.88908" lon="2.75378">
        <ele>940.79</ele>
        <time>2019-07-08T07:21:18Z</time>
      </trkpt>
      <trkpt lat="44.88893" lon="2.75378">
        <ele>940.79</ele>
        <time>2019-07-08T07:21:33Z</time>
      </trkpt>
      <trkpt lat="44.88891" lon="2.75378">
        <ele>940.79</ele>
        <time>2019-07-08T07:21:35Z</time>
      </trkpt>
      <trkpt lat="44.88887" lon="2.75377">
        <ele>940.79</ele>
        <time>2019-07-08T07:21:39Z</time>
      </trkpt>
      <trkpt lat="44.8887" lon="2.75381">
        <ele>940.31</ele>
        <time>2019-07-08T07:21:55Z</time>
      </trkpt>
      <trkpt lat="44.8886" lon="2.75386">
        <ele>940.31</ele>
        <time>2019-07-08T07:22:06Z</time>
      </trkpt>
      <trkpt lat="44.88851" lon="2.75389">
        <ele>939.83</ele>
        <time>2019-07-08T07:22:15Z</time>
      </trkpt>
      <trkpt lat="44.88843" lon="2.75392">
        <ele>939.83</ele>
        <time>2019-07-08T07:22:23Z</time>
      </trkpt>
      <trkpt lat="44.88838" lon="2.75394">
        <ele>939.83</ele>
        <time>2019-07-08T07:22:28Z</time>
      </trkpt>
      <trkpt lat="44.88835" lon="2.75394">
        <ele>940.31</ele>
        <time>2019-07-08T07:22:31Z</time>
      </trkpt>
      <trkpt lat="44.88832" lon="2.75395">
        <ele>939.83</ele>
        <time>2019-07-08T07:22:34Z</time>
      </trkpt>
      <trkpt lat="44.88827" lon="2.75395">
        <ele>939.83</ele>
        <time>2019-07-08T07:22:39Z</time>
      </trkpt>
      <trkpt lat="44.88814" lon="2.75397">
        <ele>939.83</ele>
        <time>2019-07-08T07:22:52Z</time>
      </trkpt>
      <trkpt lat="44.88803" lon="2.75404">
        <ele>939.83</ele>
        <time>2019-07-08T07:23:04Z</time>
      </trkpt>
      <trkpt lat="44.88802" lon="2.75405">
        <ele>939.35</ele>
        <time>2019-07-08T07:23:06Z</time>
      </trkpt>
      <trkpt lat="44.88793" lon="2.75411">
        <ele>939.35</ele>
        <time>2019-07-08T07:23:16Z</time>
      </trkpt>
      <trkpt lat="44.88782" lon="2.75414">
        <ele>939.83</ele>
        <time>2019-07-08T07:23:28Z</time>
      </trkpt>
      <trkpt lat="44.88776" lon="2.75415">
        <ele>939.83</ele>
        <time>2019-07-08T07:23:34Z</time>
      </trkpt>
      <trkpt lat="44.88764" lon="2.75414">
        <ele>940.31</ele>
        <time>2019-07-08T07:23:47Z</time>
      </trkpt>
      <trkpt lat="44.88757" lon="2.75414">
        <ele>939.83</ele>
        <time>2019-07-08T07:23:54Z</time>
      </trkpt>
      <trkpt lat="44.88749" lon="2.75418">
        <ele>940.31</ele>
        <time>2019-07-08T07:24:02Z</time>
      </trkpt>
      <trkpt lat="44.88746" lon="2.7542">
        <ele>940.79</ele>
        <time>2019-07-08T07:24:04Z</time>
      </trkpt>
      <trkpt lat="44.88728" lon="2.75432">
        <ele>940.79</ele>
        <time>2019-07-08T07:24:19Z</time>
      </trkpt>
      <trkpt lat="44.88725" lon="2.75435">
        <ele>940.79</ele>
        <time>2019-07-08T07:24:23Z</time>
      </trkpt>
      <trkpt lat="44.88722" lon="2.75436">
        <ele>940.79</ele>
        <time>2019-07-08T07:24:25Z</time>
      </trkpt>
      <trkpt lat="44.8872" lon="2.75437">
        <ele>940.79</ele>
        <time>2019-07-08T07:24:27Z</time>
      </trkpt>
      <trkpt lat="44.88717" lon="2.75439">
        <ele>940.79</ele>
        <time>2019-07-08T07:24:31Z</time>
      </trkpt>
      <trkpt lat="44.88705" lon="2.75446">
        <ele>941.27</ele>
        <time>2019-07-08T07:24:44Z</time>
      </trkpt>
      <trkpt lat="44.88701" lon="2.75449">
        <ele>940.31</ele>
        <time>2019-07-08T07:24:48Z</time>
      </trkpt>
      <trkpt lat="44.88685" lon="2.75456">
        <ele>940.31</ele>
        <time>2019-07-08T07:25:04Z</time>
      </trkpt>
      <trkpt lat="44.88682" lon="2.75457">
        <ele>940.31</ele>
        <time>2019-07-08T07:25:07Z</time>
      </trkpt>
      <trkpt lat="44.88678" lon="2.75459">
        <ele>940.31</ele>
        <time>2019-07-08T07:25:11Z</time>
      </trkpt>
      <trkpt lat="44.88668" lon="2.75464">
        <ele>940.31</ele>
        <time>2019-07-08T07:25:21Z</time>
      </trkpt>
      <trkpt lat="44.88662" lon="2.75469">
        <ele>939.35</ele>
        <time>2019-07-08T07:25:28Z</time>
      </trkpt>
      <trkpt lat="44.88646" lon="2.75479">
        <ele>938.86</ele>
        <time>2019-07-08T07:25:44Z</time>
      </trkpt>
      <trkpt lat="44.88633" lon="2.75491">
        <ele>939.35</ele>
        <time>2019-07-08T07:25:59Z</time>
      </trkpt>
      <trkpt lat="44.88631" lon="2.75492">
        <ele>938.38</ele>
        <time>2019-07-08T07:26:01Z</time>
      </trkpt>
      <trkpt lat="44.88619" lon="2.75497">
        <ele>937.9</ele>
        <time>2019-07-08T07:26:15Z</time>
      </trkpt>
      <trkpt lat="44.88617" lon="2.75499">
        <ele>937.9</ele>
        <time>2019-07-08T07:26:17Z</time>
      </trkpt>
      <trkpt lat="44.88614" lon="2.755">
        <ele>938.38</ele>
        <time>2019-07-08T07:26:20Z</time>
      </trkpt>
      <trkpt lat="44.886" lon="2.75511">
        <ele>937.9</ele>
        <time>2019-07-08T07:26:36Z</time>
      </trkpt>
      <trkpt lat="44.88597" lon="2.75514">
        <ele>938.38</ele>
        <time>2019-07-08T07:26:40Z</time>
      </trkpt>
      <trkpt lat="44.88596" lon="2.75516">
        <ele>938.86</ele>
        <time>2019-07-08T07:26:42Z</time>
      </trkpt>
      <trkpt lat="44.88593" lon="2.75519">
        <ele>938.38</ele>
        <time>2019-07-08T07:26:45Z</time>
      </trkpt>
      <trkpt lat="44.88586" lon="2.75524">
        <ele>938.38</ele>
        <time>2019-07-08T07:26:53Z</time>
      </trkpt>
      <trkpt lat="44.88581" lon="2.75528">
        <ele>938.38</ele>
        <time>2019-07-08T07:27:00Z</time>
      </trkpt>
      <trkpt lat="44.88579" lon="2.7553">
        <ele>938.38</ele>
        <time>2019-07-08T07:27:03Z</time>
      </trkpt>
      <trkpt lat="44.8857" lon="2.75537">
        <ele>938.38</ele>
        <time>2019-07-08T07:27:14Z</time>
      </trkpt>
      <trkpt lat="44.88568" lon="2.75539">
        <ele>938.38</ele>
        <time>2019-07-08T07:27:16Z</time>
      </trkpt>
      <trkpt lat="44.88566" lon="2.75539">
        <ele>938.86</ele>
        <time>2019-07-08T07:27:18Z</time>
      </trkpt>
      <trkpt lat="44.88554" lon="2.75547">
        <ele>939.35</ele>
        <time>2019-07-08T07:27:32Z</time>
      </trkpt>
      <trkpt lat="44.88549" lon="2.7555">
        <ele>938.86</ele>
        <time>2019-07-08T07:27:37Z</time>
      </trkpt>
      <trkpt lat="44.88546" lon="2.75553">
        <ele>938.86</ele>
        <time>2019-07-08T07:27:41Z</time>
      </trkpt>
      <trkpt lat="44.8854" lon="2.75557">
        <ele>938.86</ele>
        <time>2019-07-08T07:27:47Z</time>
      </trkpt>
      <trkpt lat="44.88539" lon="2.75559">
        <ele>938.86</ele>
        <time>2019-07-08T07:27:49Z</time>
      </trkpt>
      <trkpt lat="44.8853" lon="2.7557">
        <ele>937.9</ele>
        <time>2019-07-08T07:28:01Z</time>
      </trkpt>
      <trkpt lat="44.8852" lon="2.75584">
        <ele>937.9</ele>
        <time>2019-07-08T07:28:15Z</time>
      </trkpt>
      <trkpt lat="44.8852" lon="2.75584">
        <ele>937.9</ele>
        <time>2019-07-08T07:28:16Z</time>
      </trkpt>
      <trkpt lat="44.88513" lon="2.7559">
        <ele>937.42</ele>
        <time>2019-07-08T07:28:25Z</time>
      </trkpt>
      <trkpt lat="44.8851" lon="2.7559">
        <ele>937.42</ele>
        <time>2019-07-08T07:28:27Z</time>
      </trkpt>
      <trkpt lat="44.88509" lon="2.75591">
        <ele>937.42</ele>
        <time>2019-07-08T07:28:29Z</time>
      </trkpt>
      <trkpt lat="44.88505" lon="2.75591">
        <ele>936.94</ele>
        <time>2019-07-08T07:28:32Z</time>
      </trkpt>
      <trkpt lat="44.88502" lon="2.75591">
        <ele>936.94</ele>
        <time>2019-07-08T07:28:35Z</time>
      </trkpt>
      <trkpt lat="44.88501" lon="2.75591">
        <ele>936.94</ele>
        <time>2019-07-08T07:28:37Z</time>
      </trkpt>
      <trkpt lat="44.88492" lon="2.75589">
        <ele>937.42</ele>
        <time>2019-07-08T07:28:45Z</time>
      </trkpt>
      <trkpt lat="44.88477" lon="2.75584">
        <ele>937.42</ele>
        <time>2019-07-08T07:29:01Z</time>
      </trkpt>
      <trkpt lat="44.88467" lon="2.75581">
        <ele>937.42</ele>
        <time>2019-07-08T07:29:13Z</time>
      </trkpt>
      <trkpt lat="44.88455" lon="2.75578">
        <ele>936.94</ele>
        <time>2019-07-08T07:29:25Z</time>
      </trkpt>
      <trkpt lat="44.88443" lon="2.75572">
        <ele>936.46</ele>
        <time>2019-07-08T07:29:39Z</time>
      </trkpt>
      <trkpt lat="44.88431" lon="2.75571">
        <ele>935.5</ele>
        <time>2019-07-08T07:29:53Z</time>
      </trkpt>
      <trkpt lat="44.88415" lon="2.75573">
        <ele>934.06</ele>
        <time>2019-07-08T07:30:08Z</time>
      </trkpt>
      <trkpt lat="44.88403" lon="2.75579">
        <ele>935.02</ele>
        <time>2019-07-08T07:30:21Z</time>
      </trkpt>
      <trkpt lat="44.88401" lon="2.7558">
        <ele>935.02</ele>
        <time>2019-07-08T07:30:23Z</time>
      </trkpt>
      <trkpt lat="44.88399" lon="2.75581">
        <ele>933.58</ele>
        <time>2019-07-08T07:30:25Z</time>
      </trkpt>
      <trkpt lat="44.88385" lon="2.75589">
        <ele>933.58</ele>
        <time>2019-07-08T07:30:41Z</time>
      </trkpt>
      <trkpt lat="44.88374" lon="2.75595">
        <ele>933.1</ele>
        <time>2019-07-08T07:30:54Z</time>
      </trkpt>
      <trkpt lat="44.88362" lon="2.75597">
        <ele>932.62</ele>
        <time>2019-07-08T07:31:08Z</time>
      </trkpt>
      <trkpt lat="44.8836" lon="2.75598">
        <ele>933.1</ele>
        <time>2019-07-08T07:31:11Z</time>
      </trkpt>
      <trkpt lat="44.88347" lon="2.75599">
        <ele>932.14</ele>
        <time>2019-07-08T07:31:25Z</time>
      </trkpt>
      <trkpt lat="44.88334" lon="2.75599">
        <ele>931.65</ele>
        <time>2019-07-08T07:31:38Z</time>
      </trkpt>
      <trkpt lat="44.88323" lon="2.75597">
        <ele>930.69</ele>
        <time>2019-07-08T07:31:49Z</time>
      </trkpt>
      <trkpt lat="44.8831" lon="2.75594">
        <ele>930.21</ele>
        <time>2019-07-08T07:32:02Z</time>
      </trkpt>
      <trkpt lat="44.88296" lon="2.7559">
        <ele>929.25</ele>
        <time>2019-07-08T07:32:16Z</time>
      </trkpt>
      <trkpt lat="44.88281" lon="2.75588">
        <ele>929.73</ele>
        <time>2019-07-08T07:32:29Z</time>
      </trkpt>
      <trkpt lat="44.88269" lon="2.75589">
        <ele>929.25</ele>
        <time>2019-07-08T07:32:41Z</time>
      </trkpt>
      <trkpt lat="44.88261" lon="2.75591">
        <ele>929.25</ele>
        <time>2019-07-08T07:32:49Z</time>
      </trkpt>
      <trkpt lat="44.88258" lon="2.75592">
        <ele>929.25</ele>
        <time>2019-07-08T07:32:52Z</time>
      </trkpt>
      <trkpt lat="44.88243" lon="2.75593">
        <ele>928.29</ele>
        <time>2019-07-08T07:33:06Z</time>
      </trkpt>
      <trkpt lat="44.88232" lon="2.75593">
        <ele>928.77</ele>
        <time>2019-07-08T07:33:18Z</time>
      </trkpt>
      <trkpt lat="44.88227" lon="2.75593">
        <ele>928.29</ele>
        <time>2019-07-08T07:33:23Z</time>
      </trkpt>
      <trkpt lat="44.88221" lon="2.75594">
        <ele>928.29</ele>
        <time>2019-07-08T07:33:28Z</time>
      </trkpt>
      <trkpt lat="44.88216" lon="2.75594">
        <ele>928.29</ele>
        <time>2019-07-08T07:33:32Z</time>
      </trkpt>
      <trkpt lat="44.88204" lon="2.75598">
        <ele>928.77</ele>
        <time>2019-07-08T07:33:46Z</time>
      </trkpt>
      <trkpt lat="44.88203" lon="2.756">
        <ele>928.29</ele>
        <time>2019-07-08T07:33:59Z</time>
      </trkpt>
      <trkpt lat="44.88203" lon="2.756">
        <ele>928.77</ele>
        <time>2019-07-08T07:34:17Z</time>
      </trkpt>
      <trkpt lat="44.88202" lon="2.75601">
        <ele>928.77</ele>
        <time>2019-07-08T07:34:48Z</time>
      </trkpt>
      <trkpt lat="44.88202" lon="2.75602">
        <ele>928.29</ele>
        <time>2019-07-08T07:35:32Z</time>
      </trkpt>
      <trkpt lat="44.88202" lon="2.75602">
        <ele>928.77</ele>
        <time>2019-07-08T07:36:27Z</time>
      </trkpt>
      <trkpt lat="44.88201" lon="2.75599">
        <ele>928.29</ele>
        <time>2019-07-08T07:37:13Z</time>
      </trkpt>
      <trkpt lat="44.88191" lon="2.75601">
        <ele>927.81</ele>
        <time>2019-07-08T07:37:39Z</time>
      </trkpt>
      <trkpt lat="44.88177" lon="2.75602">
        <ele>927.81</ele>
        <time>2019-07-08T07:37:53Z</time>
      </trkpt>
      <trkpt lat="44.88173" lon="2.75602">
        <ele>927.81</ele>
        <time>2019-07-08T07:37:57Z</time>
      </trkpt>
      <trkpt lat="44.88171" lon="2.75603">
        <ele>927.81</ele>
        <time>2019-07-08T07:37:59Z</time>
      </trkpt>
      <trkpt lat="44.88156" lon="2.75604">
        <ele>927.81</ele>
        <time>2019-07-08T07:38:15Z</time>
      </trkpt>
      <trkpt lat="44.88143" lon="2.75605">
        <ele>927.81</ele>
        <time>2019-07-08T07:38:28Z</time>
      </trkpt>
      <trkpt lat="44.88131" lon="2.75606">
        <ele>927.33</ele>
        <time>2019-07-08T07:38:41Z</time>
      </trkpt>
      <trkpt lat="44.88118" lon="2.75608">
        <ele>927.33</ele>
        <time>2019-07-08T07:38:55Z</time>
      </trkpt>
      <trkpt lat="44.88105" lon="2.7561">
        <ele>926.85</ele>
        <time>2019-07-08T07:39:08Z</time>
      </trkpt>
      <trkpt lat="44.8809" lon="2.75614">
        <ele>927.33</ele>
        <time>2019-07-08T07:39:22Z</time>
      </trkpt>
      <trkpt lat="44.88075" lon="2.75617">
        <ele>926.85</ele>
        <time>2019-07-08T07:39:38Z</time>
      </trkpt>
      <trkpt lat="44.88064" lon="2.75619">
        <ele>926.85</ele>
        <time>2019-07-08T07:39:51Z</time>
      </trkpt>
      <trkpt lat="44.88052" lon="2.75619">
        <ele>927.33</ele>
        <time>2019-07-08T07:40:03Z</time>
      </trkpt>
      <trkpt lat="44.88039" lon="2.7562">
        <ele>926.85</ele>
        <time>2019-07-08T07:40:16Z</time>
      </trkpt>
      <trkpt lat="44.88037" lon="2.7562">
        <ele>927.33</ele>
        <time>2019-07-08T07:40:18Z</time>
      </trkpt>
      <trkpt lat="44.88026" lon="2.75621">
        <ele>926.85</ele>
        <time>2019-07-08T07:40:29Z</time>
      </trkpt>
      <trkpt lat="44.88024" lon="2.75622">
        <ele>926.85</ele>
        <time>2019-07-08T07:40:31Z</time>
      </trkpt>
      <trkpt lat="44.88018" lon="2.75622">
        <ele>926.85</ele>
        <time>2019-07-08T07:40:37Z</time>
      </trkpt>
      <trkpt lat="44.88004" lon="2.75625">
        <ele>926.85</ele>
        <time>2019-07-08T07:40:50Z</time>
      </trkpt>
      <trkpt lat="44.87989" lon="2.75629">
        <ele>926.85</ele>
        <time>2019-07-08T07:41:06Z</time>
      </trkpt>
      <trkpt lat="44.87976" lon="2.75631">
        <ele>927.33</ele>
        <time>2019-07-08T07:41:20Z</time>
      </trkpt>
      <trkpt lat="44.87973" lon="2.75631">
        <ele>926.37</ele>
        <time>2019-07-08T07:41:23Z</time>
      </trkpt>
      <trkpt lat="44.87971" lon="2.75632">
        <ele>926.85</ele>
        <time>2019-07-08T07:41:25Z</time>
      </trkpt>
      <trkpt lat="44.8796" lon="2.75634">
        <ele>927.33</ele>
        <time>2019-07-08T07:41:36Z</time>
      </trkpt>
      <trkpt lat="44.87955" lon="2.75634">
        <ele>926.37</ele>
        <time>2019-07-08T07:41:41Z</time>
      </trkpt>
      <trkpt lat="44.87941" lon="2.75635">
        <ele>927.33</ele>
        <time>2019-07-08T07:41:55Z</time>
      </trkpt>
      <trkpt lat="44.87927" lon="2.75636">
        <ele>927.33</ele>
        <time>2019-07-08T07:42:09Z</time>
      </trkpt>
      <trkpt lat="44.87914" lon="2.75637">
        <ele>926.85</ele>
        <time>2019-07-08T07:42:22Z</time>
      </trkpt>
      <trkpt lat="44.87909" lon="2.75638">
        <ele>927.33</ele>
        <time>2019-07-08T07:42:27Z</time>
      </trkpt>
      <trkpt lat="44.87902" lon="2.75641">
        <ele>926.85</ele>
        <time>2019-07-08T07:42:35Z</time>
      </trkpt>
      <trkpt lat="44.87896" lon="2.75643">
        <ele>926.85</ele>
        <time>2019-07-08T07:42:40Z</time>
      </trkpt>
      <trkpt lat="44.8788" lon="2.75648">
        <ele>926.85</ele>
        <time>2019-07-08T07:42:56Z</time>
      </trkpt>
      <trkpt lat="44.87867" lon="2.75652">
        <ele>926.37</ele>
        <time>2019-07-08T07:43:10Z</time>
      </trkpt>
      <trkpt lat="44.87862" lon="2.75652">
        <ele>926.37</ele>
        <time>2019-07-08T07:43:15Z</time>
      </trkpt>
      <trkpt lat="44.87847" lon="2.75656">
        <ele>925.89</ele>
        <time>2019-07-08T07:43:30Z</time>
      </trkpt>
      <trkpt lat="44.87834" lon="2.75655">
        <ele>924.93</ele>
        <time>2019-07-08T07:43:43Z</time>
      </trkpt>
      <trkpt lat="44.87827" lon="2.75655">
        <ele>924.93</ele>
        <time>2019-07-08T07:43:50Z</time>
      </trkpt>
      <trkpt lat="44.87813" lon="2.75652">
        <ele>923.96</ele>
        <time>2019-07-08T07:44:04Z</time>
      </trkpt>
      <trkpt lat="44.87796" lon="2.7565">
        <ele>923.96</ele>
        <time>2019-07-08T07:44:19Z</time>
      </trkpt>
      <trkpt lat="44.87792" lon="2.75649">
        <ele>923.48</ele>
        <time>2019-07-08T07:44:23Z</time>
      </trkpt>
      <trkpt lat="44.87775" lon="2.75647">
        <ele>923</ele>
        <time>2019-07-08T07:44:38Z</time>
      </trkpt>
      <trkpt lat="44.87775" lon="2.75646">
        <ele>923</ele>
        <time>2019-07-08T07:44:39Z</time>
      </trkpt>
      <trkpt lat="44.87766" lon="2.75645">
        <ele>922.52</ele>
        <time>2019-07-08T07:44:47Z</time>
      </trkpt>
      <trkpt lat="44.87748" lon="2.75642">
        <ele>922.04</ele>
        <time>2019-07-08T07:45:03Z</time>
      </trkpt>
      <trkpt lat="44.87737" lon="2.7564">
        <ele>921.56</ele>
        <time>2019-07-08T07:45:13Z</time>
      </trkpt>
      <trkpt lat="44.87725" lon="2.75639">
        <ele>921.56</ele>
        <time>2019-07-08T07:45:24Z</time>
      </trkpt>
      <trkpt lat="44.87708" lon="2.75635">
        <ele>921.08</ele>
        <time>2019-07-08T07:45:40Z</time>
      </trkpt>
      <trkpt lat="44.87692" lon="2.75631">
        <ele>920.6</ele>
        <time>2019-07-08T07:45:54Z</time>
      </trkpt>
      <trkpt lat="44.87674" lon="2.75629">
        <ele>920.6</ele>
        <time>2019-07-08T07:46:10Z</time>
      </trkpt>
      <trkpt lat="44.8766" lon="2.75626">
        <ele>920.12</ele>
        <time>2019-07-08T07:46:22Z</time>
      </trkpt>
      <trkpt lat="44.87645" lon="2.75623">
        <ele>920.12</ele>
        <time>2019-07-08T07:46:36Z</time>
      </trkpt>
      <trkpt lat="44.87644" lon="2.75623">
        <ele>920.12</ele>
        <time>2019-07-08T07:46:37Z</time>
      </trkpt>
      <trkpt lat="44.87641" lon="2.75623">
        <ele>920.12</ele>
        <time>2019-07-08T07:46:39Z</time>
      </trkpt>
      <trkpt lat="44.87635" lon="2.75622">
        <ele>920.12</ele>
        <time>2019-07-08T07:46:45Z</time>
      </trkpt>
      <trkpt lat="44.87633" lon="2.75621">
        <ele>920.12</ele>
        <time>2019-07-08T07:46:47Z</time>
      </trkpt>
      <trkpt lat="44.87618" lon="2.75619">
        <ele>919.64</ele>
        <time>2019-07-08T07:47:01Z</time>
      </trkpt>
      <trkpt lat="44.87609" lon="2.75616">
        <ele>919.64</ele>
        <time>2019-07-08T07:47:09Z</time>
      </trkpt>
      <trkpt lat="44.87602" lon="2.75617">
        <ele>919.16</ele>
        <time>2019-07-08T07:47:16Z</time>
      </trkpt>
      <trkpt lat="44.87586" lon="2.75611">
        <ele>919.16</ele>
        <time>2019-07-08T07:47:31Z</time>
      </trkpt>
      <trkpt lat="44.87571" lon="2.75605">
        <ele>918.2</ele>
        <time>2019-07-08T07:47:45Z</time>
      </trkpt>
      <trkpt lat="44.87556" lon="2.75599">
        <ele>917.72</ele>
        <time>2019-07-08T07:47:59Z</time>
      </trkpt>
      <trkpt lat="44.87555" lon="2.75599">
        <ele>917.24</ele>
        <time>2019-07-08T07:48:00Z</time>
      </trkpt>
      <trkpt lat="44.87552" lon="2.75597">
        <ele>917.24</ele>
        <time>2019-07-08T07:48:03Z</time>
      </trkpt>
      <trkpt lat="44.87536" lon="2.75589">
        <ele>916.75</ele>
        <time>2019-07-08T07:48:18Z</time>
      </trkpt>
      <trkpt lat="44.87532" lon="2.75588">
        <ele>916.75</ele>
        <time>2019-07-08T07:48:21Z</time>
      </trkpt>
      <trkpt lat="44.87525" lon="2.75585">
        <ele>916.27</ele>
        <time>2019-07-08T07:48:27Z</time>
      </trkpt>
      <trkpt lat="44.87521" lon="2.75582">
        <ele>916.75</ele>
        <time>2019-07-08T07:48:31Z</time>
      </trkpt>
      <trkpt lat="44.87507" lon="2.75576">
        <ele>915.79</ele>
        <time>2019-07-08T07:48:43Z</time>
      </trkpt>
      <trkpt lat="44.87505" lon="2.75574">
        <ele>916.27</ele>
        <time>2019-07-08T07:48:46Z</time>
      </trkpt>
      <trkpt lat="44.875" lon="2.75572">
        <ele>915.79</ele>
        <time>2019-07-08T07:48:50Z</time>
      </trkpt>
      <trkpt lat="44.87488" lon="2.75566">
        <ele>915.31</ele>
        <time>2019-07-08T07:49:01Z</time>
      </trkpt>
      <trkpt lat="44.87475" lon="2.75558">
        <ele>915.31</ele>
        <time>2019-07-08T07:49:13Z</time>
      </trkpt>
      <trkpt lat="44.87463" lon="2.7555">
        <ele>914.83</ele>
        <time>2019-07-08T07:49:25Z</time>
      </trkpt>
      <trkpt lat="44.87455" lon="2.75545">
        <ele>914.35</ele>
        <time>2019-07-08T07:49:33Z</time>
      </trkpt>
      <trkpt lat="44.87441" lon="2.75539">
        <ele>913.87</ele>
        <time>2019-07-08T07:49:46Z</time>
      </trkpt>
      <trkpt lat="44.87435" lon="2.75536">
        <ele>914.35</ele>
        <time>2019-07-08T07:49:52Z</time>
      </trkpt>
      <trkpt lat="44.87428" lon="2.75532">
        <ele>913.87</ele>
        <time>2019-07-08T07:49:58Z</time>
      </trkpt>
      <trkpt lat="44.87422" lon="2.75529">
        <ele>913.87</ele>
        <time>2019-07-08T07:50:04Z</time>
      </trkpt>
      <trkpt lat="44.87406" lon="2.75521">
        <ele>913.39</ele>
        <time>2019-07-08T07:50:19Z</time>
      </trkpt>
      <trkpt lat="44.87391" lon="2.75513">
        <ele>912.91</ele>
        <time>2019-07-08T07:50:33Z</time>
      </trkpt>
      <trkpt lat="44.87377" lon="2.75505">
        <ele>911.95</ele>
        <time>2019-07-08T07:50:46Z</time>
      </trkpt>
      <trkpt lat="44.87369" lon="2.75501">
        <ele>911.95</ele>
        <time>2019-07-08T07:50:54Z</time>
      </trkpt>
      <trkpt lat="44.87366" lon="2.755">
        <ele>911.95</ele>
        <time>2019-07-08T07:50:57Z</time>
      </trkpt>
      <trkpt lat="44.8736" lon="2.75495">
        <ele>911.95</ele>
        <time>2019-07-08T07:51:03Z</time>
      </trkpt>
      <trkpt lat="44.87348" lon="2.75488">
        <ele>911.47</ele>
        <time>2019-07-08T07:51:16Z</time>
      </trkpt>
      <trkpt lat="44.87341" lon="2.75483">
        <ele>911.47</ele>
        <time>2019-07-08T07:51:23Z</time>
      </trkpt>
      <trkpt lat="44.87333" lon="2.75479">
        <ele>910.99</ele>
        <time>2019-07-08T07:51:31Z</time>
      </trkpt>
      <trkpt lat="44.87331" lon="2.75477">
        <ele>910.99</ele>
        <time>2019-07-08T07:51:33Z</time>
      </trkpt>
      <trkpt lat="44.87328" lon="2.75476">
        <ele>911.47</ele>
        <time>2019-07-08T07:51:36Z</time>
      </trkpt>
      <trkpt lat="44.87325" lon="2.75473">
        <ele>910.99</ele>
        <time>2019-07-08T07:51:39Z</time>
      </trkpt>
      <trkpt lat="44.8732" lon="2.75469">
        <ele>910.03</ele>
        <time>2019-07-08T07:51:44Z</time>
      </trkpt>
      <trkpt lat="44.87304" lon="2.75462">
        <ele>910.03</ele>
        <time>2019-07-08T07:51:59Z</time>
      </trkpt>
      <trkpt lat="44.8729" lon="2.75455">
        <ele>909.06</ele>
        <time>2019-07-08T07:52:13Z</time>
      </trkpt>
      <trkpt lat="44.87289" lon="2.75454">
        <ele>909.06</ele>
        <time>2019-07-08T07:52:14Z</time>
      </trkpt>
      <trkpt lat="44.87287" lon="2.75452">
        <ele>909.06</ele>
        <time>2019-07-08T07:52:16Z</time>
      </trkpt>
      <trkpt lat="44.87272" lon="2.75445">
        <ele>907.62</ele>
        <time>2019-07-08T07:52:31Z</time>
      </trkpt>
      <trkpt lat="44.8726" lon="2.75437">
        <ele>907.62</ele>
        <time>2019-07-08T07:52:44Z</time>
      </trkpt>
      <trkpt lat="44.87248" lon="2.75431">
        <ele>906.66</ele>
        <time>2019-07-08T07:52:54Z</time>
      </trkpt>
      <trkpt lat="44.87246" lon="2.7543">
        <ele>907.62</ele>
        <time>2019-07-08T07:52:56Z</time>
      </trkpt>
      <trkpt lat="44.8724" lon="2.75426">
        <ele>907.62</ele>
        <time>2019-07-08T07:53:02Z</time>
      </trkpt>
      <trkpt lat="44.87236" lon="2.75424">
        <ele>907.14</ele>
        <time>2019-07-08T07:53:06Z</time>
      </trkpt>
      <trkpt lat="44.87234" lon="2.75422">
        <ele>907.14</ele>
        <time>2019-07-08T07:53:09Z</time>
      </trkpt>
      <trkpt lat="44.87231" lon="2.75421">
        <ele>906.66</ele>
        <time>2019-07-08T07:53:11Z</time>
      </trkpt>
      <trkpt lat="44.87223" lon="2.75415">
        <ele>906.66</ele>
        <time>2019-07-08T07:53:23Z</time>
      </trkpt>
      <trkpt lat="44.87212" lon="2.75408">
        <ele>905.7</ele>
        <time>2019-07-08T07:53:35Z</time>
      </trkpt>
      <trkpt lat="44.87207" lon="2.75403">
        <ele>906.66</ele>
        <time>2019-07-08T07:53:41Z</time>
      </trkpt>
      <trkpt lat="44.87193" lon="2.75392">
        <ele>905.22</ele>
        <time>2019-07-08T07:53:57Z</time>
      </trkpt>
      <trkpt lat="44.87191" lon="2.7539">
        <ele>908.1</ele>
        <time>2019-07-08T07:54:00Z</time>
      </trkpt>
      <trkpt lat="44.87189" lon="2.75388">
        <ele>904.74</ele>
        <time>2019-07-08T07:54:02Z</time>
      </trkpt>
      <trkpt lat="44.87188" lon="2.75387">
        <ele>904.74</ele>
        <time>2019-07-08T07:54:03Z</time>
      </trkpt>
      <trkpt lat="44.87175" lon="2.75377">
        <ele>905.7</ele>
        <time>2019-07-08T07:54:17Z</time>
      </trkpt>
      <trkpt lat="44.87165" lon="2.75373">
        <ele>905.22</ele>
        <time>2019-07-08T07:54:29Z</time>
      </trkpt>
      <trkpt lat="44.8715" lon="2.75369">
        <ele>904.74</ele>
        <time>2019-07-08T07:54:43Z</time>
      </trkpt>
      <trkpt lat="44.87131" lon="2.75365">
        <ele>904.26</ele>
        <time>2019-07-08T07:54:58Z</time>
      </trkpt>
      <trkpt lat="44.87123" lon="2.75364">
        <ele>904.26</ele>
        <time>2019-07-08T07:55:05Z</time>
      </trkpt>
      <trkpt lat="44.87112" lon="2.75362">
        <ele>903.78</ele>
        <time>2019-07-08T07:55:14Z</time>
      </trkpt>
      <trkpt lat="44.8711" lon="2.75362">
        <ele>903.78</ele>
        <time>2019-07-08T07:55:16Z</time>
      </trkpt>
      <trkpt lat="44.87093" lon="2.7536">
        <ele>903.78</ele>
        <time>2019-07-08T07:55:31Z</time>
      </trkpt>
      <trkpt lat="44.87084" lon="2.75359">
        <ele>903.78</ele>
        <time>2019-07-08T07:55:42Z</time>
      </trkpt>
      <trkpt lat="44.87075" lon="2.75358">
        <ele>903.3</ele>
        <time>2019-07-08T07:55:55Z</time>
      </trkpt>
      <trkpt lat="44.87061" lon="2.75362">
        <ele>903.3</ele>
        <time>2019-07-08T07:56:07Z</time>
      </trkpt>
      <trkpt lat="44.87047" lon="2.7537">
        <ele>903.3</ele>
        <time>2019-07-08T07:56:21Z</time>
      </trkpt>
      <trkpt lat="44.87039" lon="2.75378">
        <ele>903.3</ele>
        <time>2019-07-08T07:56:31Z</time>
      </trkpt>
      <trkpt lat="44.87031" lon="2.75387">
        <ele>903.78</ele>
        <time>2019-07-08T07:56:43Z</time>
      </trkpt>
      <trkpt lat="44.8702" lon="2.754">
        <ele>902.33</ele>
        <time>2019-07-08T07:56:58Z</time>
      </trkpt>
      <trkpt lat="44.87016" lon="2.75405">
        <ele>902.82</ele>
        <time>2019-07-08T07:57:11Z</time>
      </trkpt>
      <trkpt lat="44.87013" lon="2.75407">
        <ele>902.82</ele>
        <time>2019-07-08T07:57:26Z</time>
      </trkpt>
      <trkpt lat="44.87009" lon="2.75412">
        <ele>902.82</ele>
        <time>2019-07-08T07:57:41Z</time>
      </trkpt>
      <trkpt lat="44.87009" lon="2.75412">
        <ele>902.33</ele>
        <time>2019-07-08T07:58:08Z</time>
      </trkpt>
      <trkpt lat="44.87008" lon="2.75413">
        <ele>902.33</ele>
        <time>2019-07-08T07:58:17Z</time>
      </trkpt>
      <trkpt lat="44.86999" lon="2.75411">
        <ele>902.33</ele>
        <time>2019-07-08T07:58:24Z</time>
      </trkpt>
      <trkpt lat="44.86997" lon="2.75412">
        <ele>902.33</ele>
        <time>2019-07-08T07:58:26Z</time>
      </trkpt>
      <trkpt lat="44.86993" lon="2.75411">
        <ele>902.82</ele>
        <time>2019-07-08T07:58:29Z</time>
      </trkpt>
      <trkpt lat="44.86977" lon="2.75417">
        <ele>902.33</ele>
        <time>2019-07-08T07:58:42Z</time>
      </trkpt>
      <trkpt lat="44.86961" lon="2.7542">
        <ele>901.85</ele>
        <time>2019-07-08T07:58:57Z</time>
      </trkpt>
      <trkpt lat="44.86954" lon="2.75423">
        <ele>901.85</ele>
        <time>2019-07-08T07:59:10Z</time>
      </trkpt>
      <trkpt lat="44.86954" lon="2.75423">
        <ele>902.33</ele>
        <time>2019-07-08T07:59:37Z</time>
      </trkpt>
      <trkpt lat="44.86953" lon="2.75424">
        <ele>901.85</ele>
        <time>2019-07-08T08:00:18Z</time>
      </trkpt>
      <trkpt lat="44.86949" lon="2.75423">
        <ele>901.85</ele>
        <time>2019-07-08T08:00:33Z</time>
      </trkpt>
      <trkpt lat="44.86949" lon="2.75423">
        <ele>901.85</ele>
        <time>2019-07-08T08:01:13Z</time>
      </trkpt>
      <trkpt lat="44.86944" lon="2.75426">
        <ele>901.85</ele>
        <time>2019-07-08T08:01:38Z</time>
      </trkpt>
      <trkpt lat="44.86939" lon="2.75428">
        <ele>901.85</ele>
        <time>2019-07-08T08:01:42Z</time>
      </trkpt>
      <trkpt lat="44.86929" lon="2.75434">
        <ele>900.89</ele>
        <time>2019-07-08T08:01:53Z</time>
      </trkpt>
      <trkpt lat="44.86928" lon="2.75434">
        <ele>900.89</ele>
        <time>2019-07-08T08:01:55Z</time>
      </trkpt>
      <trkpt lat="44.86918" lon="2.75428">
        <ele>899.45</ele>
        <time>2019-07-08T08:02:08Z</time>
      </trkpt>
      <trkpt lat="44.86912" lon="2.75423">
        <ele>899.45</ele>
        <time>2019-07-08T08:02:19Z</time>
      </trkpt>
      <trkpt lat="44.86904" lon="2.75417">
        <ele>898.01</ele>
        <time>2019-07-08T08:02:30Z</time>
      </trkpt>
      <trkpt lat="44.86894" lon="2.75411">
        <ele>897.53</ele>
        <time>2019-07-08T08:02:44Z</time>
      </trkpt>
      <trkpt lat="44.86889" lon="2.75415">
        <ele>896.57</ele>
        <time>2019-07-08T08:02:56Z</time>
      </trkpt>
      <trkpt lat="44.86879" lon="2.75423">
        <ele>894.64</ele>
        <time>2019-07-08T08:03:09Z</time>
      </trkpt>
      <trkpt lat="44.86876" lon="2.75428">
        <ele>892.72</ele>
        <time>2019-07-08T08:03:15Z</time>
      </trkpt>
      <trkpt lat="44.86873" lon="2.75449">
        <ele>891.76</ele>
        <time>2019-07-08T08:03:31Z</time>
      </trkpt>
      <trkpt lat="44.86869" lon="2.75461">
        <ele>889.84</ele>
        <time>2019-07-08T08:03:43Z</time>
      </trkpt>
      <trkpt lat="44.86867" lon="2.75463">
        <ele>889.84</ele>
        <time>2019-07-08T08:03:45Z</time>
      </trkpt>
      <trkpt lat="44.8686" lon="2.75477">
        <ele>887.43</ele>
        <time>2019-07-08T08:03:59Z</time>
      </trkpt>
      <trkpt lat="44.86858" lon="2.75481">
        <ele>886.47</ele>
        <time>2019-07-08T08:04:04Z</time>
      </trkpt>
      <trkpt lat="44.8685" lon="2.75493">
        <ele>885.03</ele>
        <time>2019-07-08T08:04:16Z</time>
      </trkpt>
      <trkpt lat="44.86841" lon="2.75502">
        <ele>884.07</ele>
        <time>2019-07-08T08:04:27Z</time>
      </trkpt>
      <trkpt lat="44.8683" lon="2.7551">
        <ele>882.15</ele>
        <time>2019-07-08T08:04:40Z</time>
      </trkpt>
      <trkpt lat="44.86827" lon="2.75511">
        <ele>881.67</ele>
        <time>2019-07-08T08:04:46Z</time>
      </trkpt>
      <trkpt lat="44.86825" lon="2.75512">
        <ele>882.15</ele>
        <time>2019-07-08T08:04:48Z</time>
      </trkpt>
      <trkpt lat="44.86814" lon="2.75524">
        <ele>880.22</ele>
        <time>2019-07-08T08:05:02Z</time>
      </trkpt>
      <trkpt lat="44.86805" lon="2.75534">
        <ele>878.78</ele>
        <time>2019-07-08T08:05:14Z</time>
      </trkpt>
      <trkpt lat="44.86796" lon="2.75547">
        <ele>877.82</ele>
        <time>2019-07-08T08:05:29Z</time>
      </trkpt>
      <trkpt lat="44.86787" lon="2.75557">
        <ele>876.38</ele>
        <time>2019-07-08T08:05:41Z</time>
      </trkpt>
      <trkpt lat="44.8678" lon="2.75562">
        <ele>875.9</ele>
        <time>2019-07-08T08:05:48Z</time>
      </trkpt>
      <trkpt lat="44.86772" lon="2.75571">
        <ele>874.94</ele>
        <time>2019-07-08T08:06:01Z</time>
      </trkpt>
      <trkpt lat="44.86765" lon="2.7558">
        <ele>873.5</ele>
        <time>2019-07-08T08:06:12Z</time>
      </trkpt>
      <trkpt lat="44.86757" lon="2.75595">
        <ele>873.5</ele>
        <time>2019-07-08T08:06:24Z</time>
      </trkpt>
      <trkpt lat="44.8675" lon="2.75604">
        <ele>872.05</ele>
        <time>2019-07-08T08:06:34Z</time>
      </trkpt>
      <trkpt lat="44.86746" lon="2.75615">
        <ele>871.57</ele>
        <time>2019-07-08T08:06:43Z</time>
      </trkpt>
      <trkpt lat="44.86743" lon="2.75629">
        <ele>870.61</ele>
        <time>2019-07-08T08:06:56Z</time>
      </trkpt>
      <trkpt lat="44.86742" lon="2.75631">
        <ele>870.13</ele>
        <time>2019-07-08T08:06:58Z</time>
      </trkpt>
      <trkpt lat="44.8674" lon="2.75644">
        <ele>869.17</ele>
        <time>2019-07-08T08:07:10Z</time>
      </trkpt>
      <trkpt lat="44.86738" lon="2.75658">
        <ele>868.21</ele>
        <time>2019-07-08T08:07:23Z</time>
      </trkpt>
      <trkpt lat="44.86733" lon="2.75673">
        <ele>867.25</ele>
        <time>2019-07-08T08:07:34Z</time>
      </trkpt>
      <trkpt lat="44.86729" lon="2.75685">
        <ele>865.8</ele>
        <time>2019-07-08T08:07:46Z</time>
      </trkpt>
      <trkpt lat="44.86724" lon="2.75701">
        <ele>865.32</ele>
        <time>2019-07-08T08:07:57Z</time>
      </trkpt>
      <trkpt lat="44.86719" lon="2.75714">
        <ele>863.4</ele>
        <time>2019-07-08T08:08:08Z</time>
      </trkpt>
      <trkpt lat="44.86715" lon="2.75723">
        <ele>862.92</ele>
        <time>2019-07-08T08:08:15Z</time>
      </trkpt>
      <trkpt lat="44.8671" lon="2.75737">
        <ele>861</ele>
        <time>2019-07-08T08:08:27Z</time>
      </trkpt>
      <trkpt lat="44.86705" lon="2.75753">
        <ele>860.52</ele>
        <time>2019-07-08T08:08:40Z</time>
      </trkpt>
      <trkpt lat="44.86702" lon="2.75759">
        <ele>860.52</ele>
        <time>2019-07-08T08:08:45Z</time>
      </trkpt>
      <trkpt lat="44.86694" lon="2.75771">
        <ele>859.08</ele>
        <time>2019-07-08T08:08:58Z</time>
      </trkpt>
      <trkpt lat="44.86687" lon="2.7578">
        <ele>858.59</ele>
        <time>2019-07-08T08:09:08Z</time>
      </trkpt>
      <trkpt lat="44.86683" lon="2.75786">
        <ele>858.59</ele>
        <time>2019-07-08T08:09:12Z</time>
      </trkpt>
      <trkpt lat="44.86678" lon="2.75803">
        <ele>857.15</ele>
        <time>2019-07-08T08:09:25Z</time>
      </trkpt>
      <trkpt lat="44.86676" lon="2.75806">
        <ele>856.67</ele>
        <time>2019-07-08T08:09:27Z</time>
      </trkpt>
      <trkpt lat="44.86674" lon="2.75809">
        <ele>856.67</ele>
        <time>2019-07-08T08:09:29Z</time>
      </trkpt>
      <trkpt lat="44.86671" lon="2.75817">
        <ele>857.63</ele>
        <time>2019-07-08T08:09:37Z</time>
      </trkpt>
      <trkpt lat="44.86665" lon="2.75825">
        <ele>858.11</ele>
        <time>2019-07-08T08:09:48Z</time>
      </trkpt>
      <trkpt lat="44.86662" lon="2.75823">
        <ele>860.04</ele>
        <time>2019-07-08T08:09:59Z</time>
      </trkpt>
      <trkpt lat="44.86659" lon="2.75822">
        <ele>861</ele>
        <time>2019-07-08T08:10:12Z</time>
      </trkpt>
      <trkpt lat="44.86656" lon="2.75818">
        <ele>862.92</ele>
        <time>2019-07-08T08:10:23Z</time>
      </trkpt>
      <trkpt lat="44.86648" lon="2.7581">
        <ele>864.84</ele>
        <time>2019-07-08T08:10:36Z</time>
      </trkpt>
      <trkpt lat="44.86644" lon="2.75805">
        <ele>865.8</ele>
        <time>2019-07-08T08:10:47Z</time>
      </trkpt>
      <trkpt lat="44.86641" lon="2.75805">
        <ele>867.25</ele>
        <time>2019-07-08T08:11:03Z</time>
      </trkpt>
      <trkpt lat="44.8663" lon="2.75804">
        <ele>867.73</ele>
        <time>2019-07-08T08:11:11Z</time>
      </trkpt>
      <trkpt lat="44.86622" lon="2.75804">
        <ele>868.21</ele>
        <time>2019-07-08T08:11:14Z</time>
      </trkpt>
      <trkpt lat="44.86611" lon="2.75807">
        <ele>868.21</ele>
        <time>2019-07-08T08:11:25Z</time>
      </trkpt>
      <trkpt lat="44.86603" lon="2.75808">
        <ele>869.65</ele>
        <time>2019-07-08T08:11:36Z</time>
      </trkpt>
      <trkpt lat="44.86596" lon="2.7581">
        <ele>870.61</ele>
        <time>2019-07-08T08:11:46Z</time>
      </trkpt>
      <trkpt lat="44.86591" lon="2.75816">
        <ele>871.09</ele>
        <time>2019-07-08T08:11:57Z</time>
      </trkpt>
      <trkpt lat="44.86585" lon="2.75818">
        <ele>871.57</ele>
        <time>2019-07-08T08:12:08Z</time>
      </trkpt>
      <trkpt lat="44.86581" lon="2.75819">
        <ele>871.09</ele>
        <time>2019-07-08T08:12:11Z</time>
      </trkpt>
      <trkpt lat="44.86576" lon="2.7582">
        <ele>872.05</ele>
        <time>2019-07-08T08:12:15Z</time>
      </trkpt>
      <trkpt lat="44.86573" lon="2.7582">
        <ele>872.05</ele>
        <time>2019-07-08T08:12:18Z</time>
      </trkpt>
      <trkpt lat="44.86561" lon="2.75821">
        <ele>872.05</ele>
        <time>2019-07-08T08:12:31Z</time>
      </trkpt>
      <trkpt lat="44.86557" lon="2.75823">
        <ele>872.53</ele>
        <time>2019-07-08T08:12:36Z</time>
      </trkpt>
      <trkpt lat="44.86544" lon="2.75822">
        <ele>873.01</ele>
        <time>2019-07-08T08:12:49Z</time>
      </trkpt>
      <trkpt lat="44.86533" lon="2.75819">
        <ele>873.98</ele>
        <time>2019-07-08T08:12:59Z</time>
      </trkpt>
      <trkpt lat="44.86527" lon="2.75814">
        <ele>875.9</ele>
        <time>2019-07-08T08:13:09Z</time>
      </trkpt>
      <trkpt lat="44.86523" lon="2.75804">
        <ele>877.34</ele>
        <time>2019-07-08T08:13:20Z</time>
      </trkpt>
      <trkpt lat="44.86519" lon="2.75797">
        <ele>878.3</ele>
        <time>2019-07-08T08:13:30Z</time>
      </trkpt>
      <trkpt lat="44.86509" lon="2.7579">
        <ele>880.22</ele>
        <time>2019-07-08T08:13:42Z</time>
      </trkpt>
      <trkpt lat="44.86502" lon="2.75787">
        <ele>881.19</ele>
        <time>2019-07-08T08:13:52Z</time>
      </trkpt>
      <trkpt lat="44.86498" lon="2.75778">
        <ele>883.11</ele>
        <time>2019-07-08T08:14:02Z</time>
      </trkpt>
      <trkpt lat="44.86491" lon="2.75773">
        <ele>884.07</ele>
        <time>2019-07-08T08:14:13Z</time>
      </trkpt>
      <trkpt lat="44.86479" lon="2.7577">
        <ele>885.51</ele>
        <time>2019-07-08T08:14:28Z</time>
      </trkpt>
      <trkpt lat="44.86478" lon="2.7577">
        <ele>885.51</ele>
        <time>2019-07-08T08:14:29Z</time>
      </trkpt>
      <trkpt lat="44.86475" lon="2.75769">
        <ele>886.47</ele>
        <time>2019-07-08T08:14:34Z</time>
      </trkpt>
      <trkpt lat="44.86472" lon="2.75768">
        <ele>886.95</ele>
        <time>2019-07-08T08:14:37Z</time>
      </trkpt>
      <trkpt lat="44.8646" lon="2.75765">
        <ele>888.88</ele>
        <time>2019-07-08T08:14:54Z</time>
      </trkpt>
      <trkpt lat="44.8646" lon="2.75764">
        <ele>891.28</ele>
        <time>2019-07-08T08:15:06Z</time>
      </trkpt>
      <trkpt lat="44.86459" lon="2.75764">
        <ele>892.24</ele>
        <time>2019-07-08T08:15:17Z</time>
      </trkpt>
      <trkpt lat="44.86453" lon="2.75764">
        <ele>894.16</ele>
        <time>2019-07-08T08:15:30Z</time>
      </trkpt>
      <trkpt lat="44.86445" lon="2.75758">
        <ele>896.09</ele>
        <time>2019-07-08T08:15:41Z</time>
      </trkpt>
      <trkpt lat="44.86444" lon="2.75758">
        <ele>895.61</ele>
        <time>2019-07-08T08:15:43Z</time>
      </trkpt>
      <trkpt lat="44.86441" lon="2.75755">
        <ele>896.57</ele>
        <time>2019-07-08T08:15:49Z</time>
      </trkpt>
      <trkpt lat="44.86433" lon="2.7575">
        <ele>898.01</ele>
        <time>2019-07-08T08:16:00Z</time>
      </trkpt>
      <trkpt lat="44.86431" lon="2.7575">
        <ele>898.49</ele>
        <time>2019-07-08T08:16:02Z</time>
      </trkpt>
      <trkpt lat="44.86423" lon="2.75741">
        <ele>900.41</ele>
        <time>2019-07-08T08:16:14Z</time>
      </trkpt>
      <trkpt lat="44.86414" lon="2.75728">
        <ele>901.37</ele>
        <time>2019-07-08T08:16:28Z</time>
      </trkpt>
      <trkpt lat="44.86404" lon="2.75718">
        <ele>902.33</ele>
        <time>2019-07-08T08:16:42Z</time>
      </trkpt>
      <trkpt lat="44.86403" lon="2.75719">
        <ele>901.85</ele>
        <time>2019-07-08T08:17:01Z</time>
      </trkpt>
      <trkpt lat="44.86402" lon="2.7572">
        <ele>902.33</ele>
        <time>2019-07-08T08:17:19Z</time>
      </trkpt>
      <trkpt lat="44.86401" lon="2.7572">
        <ele>902.82</ele>
        <time>2019-07-08T08:18:20Z</time>
      </trkpt>
      <trkpt lat="44.86402" lon="2.7572">
        <ele>902.33</ele>
        <time>2019-07-08T08:19:17Z</time>
      </trkpt>
      <trkpt lat="44.86402" lon="2.7572">
        <ele>902.33</ele>
        <time>2019-07-08T08:22:04Z</time>
      </trkpt>
      <trkpt lat="44.86397" lon="2.7572">
        <ele>902.82</ele>
        <time>2019-07-08T08:22:35Z</time>
      </trkpt>
      <trkpt lat="44.86393" lon="2.75721">
        <ele>902.33</ele>
        <time>2019-07-08T08:22:54Z</time>
      </trkpt>
      <trkpt lat="44.86393" lon="2.7572">
        <ele>902.82</ele>
        <time>2019-07-08T08:22:55Z</time>
      </trkpt>
      <trkpt lat="44.86395" lon="2.75719">
        <ele>902.82</ele>
        <time>2019-07-08T08:22:57Z</time>
      </trkpt>
      <trkpt lat="44.86399" lon="2.75715">
        <ele>901.37</ele>
        <time>2019-07-08T08:23:02Z</time>
      </trkpt>
      <trkpt lat="44.86402" lon="2.75712">
        <ele>901.85</ele>
        <time>2019-07-08T08:23:05Z</time>
      </trkpt>
      <trkpt lat="44.86399" lon="2.75696">
        <ele>902.33</ele>
        <time>2019-07-08T08:23:17Z</time>
      </trkpt>
      <trkpt lat="44.86397" lon="2.75689">
        <ele>901.85</ele>
        <time>2019-07-08T08:23:22Z</time>
      </trkpt>
      <trkpt lat="44.86396" lon="2.75687">
        <ele>901.85</ele>
        <time>2019-07-08T08:23:24Z</time>
      </trkpt>
      <trkpt lat="44.86391" lon="2.75672">
        <ele>901.85</ele>
        <time>2019-07-08T08:23:35Z</time>
      </trkpt>
      <trkpt lat="44.86388" lon="2.75665">
        <ele>901.85</ele>
        <time>2019-07-08T08:23:40Z</time>
      </trkpt>
      <trkpt lat="44.86386" lon="2.75658">
        <ele>901.85</ele>
        <time>2019-07-08T08:23:45Z</time>
      </trkpt>
      <trkpt lat="44.86385" lon="2.75656">
        <ele>901.37</ele>
        <time>2019-07-08T08:23:47Z</time>
      </trkpt>
      <trkpt lat="44.86381" lon="2.75645">
        <ele>900.89</ele>
        <time>2019-07-08T08:23:55Z</time>
      </trkpt>
      <trkpt lat="44.86381" lon="2.75643">
        <ele>900.89</ele>
        <time>2019-07-08T08:23:57Z</time>
      </trkpt>
      <trkpt lat="44.86378" lon="2.75636">
        <ele>900.41</ele>
        <time>2019-07-08T08:24:02Z</time>
      </trkpt>
      <trkpt lat="44.86377" lon="2.75632">
        <ele>899.93</ele>
        <time>2019-07-08T08:24:05Z</time>
      </trkpt>
      <trkpt lat="44.86373" lon="2.75623">
        <ele>899.45</ele>
        <time>2019-07-08T08:24:12Z</time>
      </trkpt>
      <trkpt lat="44.86372" lon="2.75618">
        <ele>899.45</ele>
        <time>2019-07-08T08:24:15Z</time>
      </trkpt>
      <trkpt lat="44.86371" lon="2.75616">
        <ele>899.45</ele>
        <time>2019-07-08T08:24:17Z</time>
      </trkpt>
      <trkpt lat="44.86364" lon="2.75599">
        <ele>898.49</ele>
        <time>2019-07-08T08:24:31Z</time>
      </trkpt>
      <trkpt lat="44.86355" lon="2.75583">
        <ele>897.53</ele>
        <time>2019-07-08T08:24:45Z</time>
      </trkpt>
      <trkpt lat="44.86347" lon="2.75569">
        <ele>896.57</ele>
        <time>2019-07-08T08:24:59Z</time>
      </trkpt>
      <trkpt lat="44.86342" lon="2.75564">
        <ele>895.61</ele>
        <time>2019-07-08T08:25:12Z</time>
      </trkpt>
      <trkpt lat="44.86335" lon="2.7556">
        <ele>895.12</ele>
        <time>2019-07-08T08:25:32Z</time>
      </trkpt>
      <trkpt lat="44.86325" lon="2.75562">
        <ele>895.12</ele>
        <time>2019-07-08T08:25:42Z</time>
      </trkpt>
      <trkpt lat="44.86312" lon="2.75565">
        <ele>895.12</ele>
        <time>2019-07-08T08:25:55Z</time>
      </trkpt>
      <trkpt lat="44.86295" lon="2.75568">
        <ele>894.64</ele>
        <time>2019-07-08T08:26:10Z</time>
      </trkpt>
      <trkpt lat="44.8628" lon="2.75571">
        <ele>895.12</ele>
        <time>2019-07-08T08:26:25Z</time>
      </trkpt>
      <trkpt lat="44.86265" lon="2.75574">
        <ele>894.16</ele>
        <time>2019-07-08T08:26:40Z</time>
      </trkpt>
      <trkpt lat="44.86248" lon="2.75575">
        <ele>893.68</ele>
        <time>2019-07-08T08:26:55Z</time>
      </trkpt>
      <trkpt lat="44.86247" lon="2.75576">
        <ele>893.68</ele>
        <time>2019-07-08T08:26:56Z</time>
      </trkpt>
      <trkpt lat="44.86229" lon="2.75579">
        <ele>893.2</ele>
        <time>2019-07-08T08:27:13Z</time>
      </trkpt>
      <trkpt lat="44.86226" lon="2.75579">
        <ele>893.68</ele>
        <time>2019-07-08T08:27:16Z</time>
      </trkpt>
      <trkpt lat="44.86214" lon="2.75578">
        <ele>893.2</ele>
        <time>2019-07-08T08:27:29Z</time>
      </trkpt>
      <trkpt lat="44.86201" lon="2.75581">
        <ele>893.2</ele>
        <time>2019-07-08T08:27:42Z</time>
      </trkpt>
      <trkpt lat="44.86187" lon="2.75582">
        <ele>892.72</ele>
        <time>2019-07-08T08:27:56Z</time>
      </trkpt>
      <trkpt lat="44.86171" lon="2.75581">
        <ele>892.72</ele>
        <time>2019-07-08T08:28:11Z</time>
      </trkpt>
      <trkpt lat="44.86157" lon="2.75582">
        <ele>892.24</ele>
        <time>2019-07-08T08:28:24Z</time>
      </trkpt>
      <trkpt lat="44.86142" lon="2.75582">
        <ele>892.72</ele>
        <time>2019-07-08T08:28:38Z</time>
      </trkpt>
      <trkpt lat="44.86129" lon="2.75583">
        <ele>892.72</ele>
        <time>2019-07-08T08:28:51Z</time>
      </trkpt>
      <trkpt lat="44.86123" lon="2.75584">
        <ele>893.2</ele>
        <time>2019-07-08T08:28:56Z</time>
      </trkpt>
      <trkpt lat="44.86118" lon="2.75584">
        <ele>893.68</ele>
        <time>2019-07-08T08:29:01Z</time>
      </trkpt>
      <trkpt lat="44.86113" lon="2.75584">
        <ele>892.72</ele>
        <time>2019-07-08T08:29:06Z</time>
      </trkpt>
      <trkpt lat="44.86105" lon="2.75585">
        <ele>893.2</ele>
        <time>2019-07-08T08:29:15Z</time>
      </trkpt>
      <trkpt lat="44.86101" lon="2.75585">
        <ele>892.72</ele>
        <time>2019-07-08T08:29:18Z</time>
      </trkpt>
      <trkpt lat="44.86087" lon="2.75583">
        <ele>892.24</ele>
        <time>2019-07-08T08:29:33Z</time>
      </trkpt>
      <trkpt lat="44.86074" lon="2.7558">
        <ele>891.28</ele>
        <time>2019-07-08T08:29:45Z</time>
      </trkpt>
      <trkpt lat="44.86066" lon="2.75578">
        <ele>891.28</ele>
        <time>2019-07-08T08:29:58Z</time>
      </trkpt>
      <trkpt lat="44.86055" lon="2.75567">
        <ele>889.84</ele>
        <time>2019-07-08T08:30:12Z</time>
      </trkpt>
      <trkpt lat="44.86051" lon="2.75555">
        <ele>888.88</ele>
        <time>2019-07-08T08:30:22Z</time>
      </trkpt>
      <trkpt lat="44.8605" lon="2.7555">
        <ele>888.88</ele>
        <time>2019-07-08T08:30:26Z</time>
      </trkpt>
      <trkpt lat="44.86047" lon="2.75543">
        <ele>888.4</ele>
        <time>2019-07-08T08:30:32Z</time>
      </trkpt>
      <trkpt lat="44.86045" lon="2.75541">
        <ele>888.4</ele>
        <time>2019-07-08T08:30:34Z</time>
      </trkpt>
      <trkpt lat="44.86037" lon="2.75526">
        <ele>887.43</ele>
        <time>2019-07-08T08:30:47Z</time>
      </trkpt>
      <trkpt lat="44.86036" lon="2.75523">
        <ele>887.43</ele>
        <time>2019-07-08T08:30:55Z</time>
      </trkpt>
      <trkpt lat="44.86034" lon="2.75522">
        <ele>887.43</ele>
        <time>2019-07-08T08:30:57Z</time>
      </trkpt>
      <trkpt lat="44.86025" lon="2.75514">
        <ele>886.95</ele>
        <time>2019-07-08T08:31:07Z</time>
      </trkpt>
      <trkpt lat="44.86022" lon="2.75512">
        <ele>886.95</ele>
        <time>2019-07-08T08:31:10Z</time>
      </trkpt>
      <trkpt lat="44.86004" lon="2.75505">
        <ele>887.91</ele>
        <time>2019-07-08T08:31:27Z</time>
      </trkpt>
      <trkpt lat="44.85995" lon="2.75504">
        <ele>887.91</ele>
        <time>2019-07-08T08:31:38Z</time>
      </trkpt>
      <trkpt lat="44.85991" lon="2.75508">
        <ele>888.4</ele>
        <time>2019-07-08T08:31:52Z</time>
      </trkpt>
      <trkpt lat="44.85991" lon="2.75508">
        <ele>888.88</ele>
        <time>2019-07-08T08:32:35Z</time>
      </trkpt>
      <trkpt lat="44.8599" lon="2.75513">
        <ele>888.4</ele>
        <time>2019-07-08T08:33:11Z</time>
      </trkpt>
      <trkpt lat="44.85984" lon="2.75518">
        <ele>888.88</ele>
        <time>2019-07-08T08:33:31Z</time>
      </trkpt>
      <trkpt lat="44.85983" lon="2.75531">
        <ele>889.84</ele>
        <time>2019-07-08T08:33:42Z</time>
      </trkpt>
      <trkpt lat="44.85972" lon="2.75538">
        <ele>890.8</ele>
        <time>2019-07-08T08:33:55Z</time>
      </trkpt>
      <trkpt lat="44.85964" lon="2.75544">
        <ele>891.28</ele>
        <time>2019-07-08T08:34:07Z</time>
      </trkpt>
      <trkpt lat="44.85959" lon="2.75551">
        <ele>891.28</ele>
        <time>2019-07-08T08:34:12Z</time>
      </trkpt>
      <trkpt lat="44.85957" lon="2.75562">
        <ele>891.28</ele>
        <time>2019-07-08T08:34:21Z</time>
      </trkpt>
      <trkpt lat="44.85952" lon="2.75577">
        <ele>891.76</ele>
        <time>2019-07-08T08:34:32Z</time>
      </trkpt>
      <trkpt lat="44.85946" lon="2.75584">
        <ele>892.24</ele>
        <time>2019-07-08T08:34:44Z</time>
      </trkpt>
      <trkpt lat="44.85939" lon="2.75588">
        <ele>892.72</ele>
        <time>2019-07-08T08:34:52Z</time>
      </trkpt>
      <trkpt lat="44.85926" lon="2.75598">
        <ele>893.2</ele>
        <time>2019-07-08T08:35:05Z</time>
      </trkpt>
      <trkpt lat="44.85916" lon="2.75607">
        <ele>892.72</ele>
        <time>2019-07-08T08:35:17Z</time>
      </trkpt>
      <trkpt lat="44.85903" lon="2.75616">
        <ele>892.24</ele>
        <time>2019-07-08T08:35:31Z</time>
      </trkpt>
      <trkpt lat="44.8589" lon="2.75619">
        <ele>892.24</ele>
        <time>2019-07-08T08:35:45Z</time>
      </trkpt>
      <trkpt lat="44.85877" lon="2.75623">
        <ele>891.76</ele>
        <time>2019-07-08T08:35:57Z</time>
      </trkpt>
      <trkpt lat="44.85863" lon="2.75633">
        <ele>891.28</ele>
        <time>2019-07-08T08:36:11Z</time>
      </trkpt>
      <trkpt lat="44.85852" lon="2.7564">
        <ele>891.76</ele>
        <time>2019-07-08T08:36:24Z</time>
      </trkpt>
      <trkpt lat="44.85851" lon="2.75641">
        <ele>890.8</ele>
        <time>2019-07-08T08:36:26Z</time>
      </trkpt>
      <trkpt lat="44.8584" lon="2.75649">
        <ele>890.8</ele>
        <time>2019-07-08T08:36:39Z</time>
      </trkpt>
      <trkpt lat="44.85829" lon="2.75657">
        <ele>890.8</ele>
        <time>2019-07-08T08:36:53Z</time>
      </trkpt>
      <trkpt lat="44.85822" lon="2.75662">
        <ele>890.32</ele>
        <time>2019-07-08T08:37:12Z</time>
      </trkpt>
      <trkpt lat="44.85815" lon="2.75669">
        <ele>889.84</ele>
        <time>2019-07-08T08:37:24Z</time>
      </trkpt>
      <trkpt lat="44.85809" lon="2.75673">
        <ele>889.36</ele>
        <time>2019-07-08T08:37:41Z</time>
      </trkpt>
      <trkpt lat="44.85808" lon="2.75673">
        <ele>889.84</ele>
        <time>2019-07-08T08:37:58Z</time>
      </trkpt>
      <trkpt lat="44.85802" lon="2.7568">
        <ele>888.88</ele>
        <time>2019-07-08T08:38:11Z</time>
      </trkpt>
      <trkpt lat="44.8579" lon="2.75688">
        <ele>888.88</ele>
        <time>2019-07-08T08:38:25Z</time>
      </trkpt>
      <trkpt lat="44.85777" lon="2.757">
        <ele>888.4</ele>
        <time>2019-07-08T08:38:39Z</time>
      </trkpt>
      <trkpt lat="44.85763" lon="2.75711">
        <ele>887.43</ele>
        <time>2019-07-08T08:38:55Z</time>
      </trkpt>
      <trkpt lat="44.85752" lon="2.75725">
        <ele>886.47</ele>
        <time>2019-07-08T08:39:10Z</time>
      </trkpt>
      <trkpt lat="44.85745" lon="2.75739">
        <ele>885.03</ele>
        <time>2019-07-08T08:39:24Z</time>
      </trkpt>
      <trkpt lat="44.85742" lon="2.75744">
        <ele>885.03</ele>
        <time>2019-07-08T08:39:31Z</time>
      </trkpt>
      <trkpt lat="44.85734" lon="2.7575">
        <ele>884.55</ele>
        <time>2019-07-08T08:39:43Z</time>
      </trkpt>
      <trkpt lat="44.85725" lon="2.75762">
        <ele>884.07</ele>
        <time>2019-07-08T08:39:58Z</time>
      </trkpt>
      <trkpt lat="44.85719" lon="2.75772">
        <ele>883.59</ele>
        <time>2019-07-08T08:40:11Z</time>
      </trkpt>
      <trkpt lat="44.85713" lon="2.75782">
        <ele>883.11</ele>
        <time>2019-07-08T08:40:23Z</time>
      </trkpt>
      <trkpt lat="44.85705" lon="2.75791">
        <ele>882.15</ele>
        <time>2019-07-08T08:40:36Z</time>
      </trkpt>
      <trkpt lat="44.85696" lon="2.75798">
        <ele>881.67</ele>
        <time>2019-07-08T08:40:47Z</time>
      </trkpt>
      <trkpt lat="44.85679" lon="2.75807">
        <ele>880.22</ele>
        <time>2019-07-08T08:41:02Z</time>
      </trkpt>
      <trkpt lat="44.85672" lon="2.75809">
        <ele>879.26</ele>
        <time>2019-07-08T08:41:16Z</time>
      </trkpt>
      <trkpt lat="44.85668" lon="2.7581">
        <ele>879.26</ele>
        <time>2019-07-08T08:41:32Z</time>
      </trkpt>
      <trkpt lat="44.85661" lon="2.75817">
        <ele>877.82</ele>
        <time>2019-07-08T08:41:45Z</time>
      </trkpt>
      <trkpt lat="44.8565" lon="2.75829">
        <ele>876.38</ele>
        <time>2019-07-08T08:42:01Z</time>
      </trkpt>
      <trkpt lat="44.85641" lon="2.7584">
        <ele>874.46</ele>
        <time>2019-07-08T08:42:16Z</time>
      </trkpt>
      <trkpt lat="44.85631" lon="2.75852">
        <ele>873.5</ele>
        <time>2019-07-08T08:42:30Z</time>
      </trkpt>
      <trkpt lat="44.85629" lon="2.75854">
        <ele>873.5</ele>
        <time>2019-07-08T08:42:32Z</time>
      </trkpt>
      <trkpt lat="44.85619" lon="2.75867">
        <ele>872.53</ele>
        <time>2019-07-08T08:42:45Z</time>
      </trkpt>
      <trkpt lat="44.85615" lon="2.75875">
        <ele>871.57</ele>
        <time>2019-07-08T08:42:55Z</time>
      </trkpt>
      <trkpt lat="44.85607" lon="2.75883">
        <ele>869.17</ele>
        <time>2019-07-08T08:43:09Z</time>
      </trkpt>
      <trkpt lat="44.85602" lon="2.75889">
        <ele>868.21</ele>
        <time>2019-07-08T08:43:18Z</time>
      </trkpt>
      <trkpt lat="44.85593" lon="2.75898">
        <ele>866.77</ele>
        <time>2019-07-08T08:43:30Z</time>
      </trkpt>
      <trkpt lat="44.85585" lon="2.75907">
        <ele>864.84</ele>
        <time>2019-07-08T08:43:42Z</time>
      </trkpt>
      <trkpt lat="44.85578" lon="2.75918">
        <ele>862.92</ele>
        <time>2019-07-08T08:43:57Z</time>
      </trkpt>
      <trkpt lat="44.85574" lon="2.75927">
        <ele>861.48</ele>
        <time>2019-07-08T08:44:11Z</time>
      </trkpt>
      <trkpt lat="44.85568" lon="2.75933">
        <ele>860.04</ele>
        <time>2019-07-08T08:44:22Z</time>
      </trkpt>
      <trkpt lat="44.85562" lon="2.75938">
        <ele>859.56</ele>
        <time>2019-07-08T08:44:30Z</time>
      </trkpt>
      <trkpt lat="44.85556" lon="2.75953">
        <ele>858.11</ele>
        <time>2019-07-08T08:44:44Z</time>
      </trkpt>
      <trkpt lat="44.85554" lon="2.7596">
        <ele>856.19</ele>
        <time>2019-07-08T08:44:52Z</time>
      </trkpt>
      <trkpt lat="44.85551" lon="2.7597">
        <ele>854.75</ele>
        <time>2019-07-08T08:45:03Z</time>
      </trkpt>
      <trkpt lat="44.85551" lon="2.75972">
        <ele>854.75</ele>
        <time>2019-07-08T08:45:06Z</time>
      </trkpt>
      <trkpt lat="44.85552" lon="2.75979">
        <ele>853.79</ele>
        <time>2019-07-08T08:45:14Z</time>
      </trkpt>
      <trkpt lat="44.85559" lon="2.75996">
        <ele>851.87</ele>
        <time>2019-07-08T08:45:27Z</time>
      </trkpt>
      <trkpt lat="44.8556" lon="2.7601">
        <ele>850.42</ele>
        <time>2019-07-08T08:45:41Z</time>
      </trkpt>
      <trkpt lat="44.85559" lon="2.76012">
        <ele>849.46</ele>
        <time>2019-07-08T08:45:45Z</time>
      </trkpt>
      <trkpt lat="44.85562" lon="2.76024">
        <ele>848.02</ele>
        <time>2019-07-08T08:45:57Z</time>
      </trkpt>
      <trkpt lat="44.85566" lon="2.76028">
        <ele>847.54</ele>
        <time>2019-07-08T08:46:02Z</time>
      </trkpt>
      <trkpt lat="44.85578" lon="2.76039">
        <ele>847.06</ele>
        <time>2019-07-08T08:46:16Z</time>
      </trkpt>
      <trkpt lat="44.85582" lon="2.76049">
        <ele>845.62</ele>
        <time>2019-07-08T08:46:28Z</time>
      </trkpt>
      <trkpt lat="44.85588" lon="2.7606">
        <ele>843.69</ele>
        <time>2019-07-08T08:46:39Z</time>
      </trkpt>
      <trkpt lat="44.85594" lon="2.7607">
        <ele>842.73</ele>
        <time>2019-07-08T08:46:51Z</time>
      </trkpt>
      <trkpt lat="44.85597" lon="2.76079">
        <ele>842.25</ele>
        <time>2019-07-08T08:47:02Z</time>
      </trkpt>
      <trkpt lat="44.85601" lon="2.76091">
        <ele>841.77</ele>
        <time>2019-07-08T08:47:13Z</time>
      </trkpt>
      <trkpt lat="44.85603" lon="2.76093">
        <ele>842.25</ele>
        <time>2019-07-08T08:47:14Z</time>
      </trkpt>
      <trkpt lat="44.8561" lon="2.76102">
        <ele>842.73</ele>
        <time>2019-07-08T08:47:22Z</time>
      </trkpt>
      <trkpt lat="44.85623" lon="2.76114">
        <ele>841.77</ele>
        <time>2019-07-08T08:47:35Z</time>
      </trkpt>
      <trkpt lat="44.85627" lon="2.76128">
        <ele>839.85</ele>
        <time>2019-07-08T08:47:48Z</time>
      </trkpt>
      <trkpt lat="44.85632" lon="2.76138">
        <ele>838.89</ele>
        <time>2019-07-08T08:48:02Z</time>
      </trkpt>
      <trkpt lat="44.85638" lon="2.76153">
        <ele>836</ele>
        <time>2019-07-08T08:48:15Z</time>
      </trkpt>
      <trkpt lat="44.85639" lon="2.76156">
        <ele>836</ele>
        <time>2019-07-08T08:48:17Z</time>
      </trkpt>
      <trkpt lat="44.85641" lon="2.76171">
        <ele>835.04</ele>
        <time>2019-07-08T08:48:29Z</time>
      </trkpt>
      <trkpt lat="44.85639" lon="2.76182">
        <ele>834.08</ele>
        <time>2019-07-08T08:48:42Z</time>
      </trkpt>
      <trkpt lat="44.8564" lon="2.76198">
        <ele>832.64</ele>
        <time>2019-07-08T08:48:54Z</time>
      </trkpt>
      <trkpt lat="44.85639" lon="2.76218">
        <ele>831.2</ele>
        <time>2019-07-08T08:49:10Z</time>
      </trkpt>
      <trkpt lat="44.85639" lon="2.76219">
        <ele>831.68</ele>
        <time>2019-07-08T08:49:11Z</time>
      </trkpt>
      <trkpt lat="44.85638" lon="2.76222">
        <ele>831.68</ele>
        <time>2019-07-08T08:49:13Z</time>
      </trkpt>
      <trkpt lat="44.85637" lon="2.76237">
        <ele>829.76</ele>
        <time>2019-07-08T08:49:26Z</time>
      </trkpt>
      <trkpt lat="44.85635" lon="2.76243">
        <ele>829.27</ele>
        <time>2019-07-08T08:49:32Z</time>
      </trkpt>
      <trkpt lat="44.8563" lon="2.76262">
        <ele>828.79</ele>
        <time>2019-07-08T08:49:45Z</time>
      </trkpt>
      <trkpt lat="44.85625" lon="2.76273">
        <ele>827.35</ele>
        <time>2019-07-08T08:49:57Z</time>
      </trkpt>
      <trkpt lat="44.85621" lon="2.76284">
        <ele>825.43</ele>
        <time>2019-07-08T08:50:10Z</time>
      </trkpt>
      <trkpt lat="44.85616" lon="2.76298">
        <ele>823.03</ele>
        <time>2019-07-08T08:50:23Z</time>
      </trkpt>
      <trkpt lat="44.85613" lon="2.76306">
        <ele>821.58</ele>
        <time>2019-07-08T08:50:30Z</time>
      </trkpt>
      <trkpt lat="44.85606" lon="2.76314">
        <ele>820.14</ele>
        <time>2019-07-08T08:50:42Z</time>
      </trkpt>
      <trkpt lat="44.85599" lon="2.76321">
        <ele>818.22</ele>
        <time>2019-07-08T08:50:53Z</time>
      </trkpt>
      <trkpt lat="44.85598" lon="2.76321">
        <ele>817.26</ele>
        <time>2019-07-08T08:51:17Z</time>
      </trkpt>
      <trkpt lat="44.85598" lon="2.76321">
        <ele>817.74</ele>
        <time>2019-07-08T08:52:00Z</time>
      </trkpt>
      <trkpt lat="44.85598" lon="2.76321">
        <ele>818.22</ele>
        <time>2019-07-08T08:52:32Z</time>
      </trkpt>
      <trkpt lat="44.85598" lon="2.76321">
        <ele>817.74</ele>
        <time>2019-07-08T08:53:01Z</time>
      </trkpt>
      <trkpt lat="44.85593" lon="2.76319">
        <ele>816.3</ele>
        <time>2019-07-08T08:54:06Z</time>
      </trkpt>
      <trkpt lat="44.85583" lon="2.76318">
        <ele>815.34</ele>
        <time>2019-07-08T08:54:19Z</time>
      </trkpt>
      <trkpt lat="44.85572" lon="2.76312">
        <ele>811.97</ele>
        <time>2019-07-08T08:54:31Z</time>
      </trkpt>
      <trkpt lat="44.85564" lon="2.76307">
        <ele>811.49</ele>
        <time>2019-07-08T08:54:42Z</time>
      </trkpt>
      <trkpt lat="44.85557" lon="2.763">
        <ele>809.57</ele>
        <time>2019-07-08T08:54:55Z</time>
      </trkpt>
      <trkpt lat="44.85549" lon="2.76295">
        <ele>807.64</ele>
        <time>2019-07-08T08:55:08Z</time>
      </trkpt>
      <trkpt lat="44.85534" lon="2.76289">
        <ele>805.72</ele>
        <time>2019-07-08T08:55:23Z</time>
      </trkpt>
      <trkpt lat="44.85518" lon="2.76283">
        <ele>803.8</ele>
        <time>2019-07-08T08:55:38Z</time>
      </trkpt>
      <trkpt lat="44.85502" lon="2.76283">
        <ele>802.36</ele>
        <time>2019-07-08T08:55:52Z</time>
      </trkpt>
      <trkpt lat="44.85488" lon="2.76287">
        <ele>801.4</ele>
        <time>2019-07-08T08:56:06Z</time>
      </trkpt>
      <trkpt lat="44.85478" lon="2.76293">
        <ele>799.95</ele>
        <time>2019-07-08T08:56:21Z</time>
      </trkpt>
      <trkpt lat="44.85477" lon="2.76294">
        <ele>799.95</ele>
        <time>2019-07-08T08:56:23Z</time>
      </trkpt>
      <trkpt lat="44.85475" lon="2.76298">
        <ele>798.51</ele>
        <time>2019-07-08T08:56:26Z</time>
      </trkpt>
      <trkpt lat="44.85474" lon="2.76313">
        <ele>798.03</ele>
        <time>2019-07-08T08:56:40Z</time>
      </trkpt>
      <trkpt lat="44.8548" lon="2.76322">
        <ele>797.07</ele>
        <time>2019-07-08T08:56:53Z</time>
      </trkpt>
      <trkpt lat="44.8549" lon="2.76331">
        <ele>796.11</ele>
        <time>2019-07-08T08:57:06Z</time>
      </trkpt>
      <trkpt lat="44.85492" lon="2.76332">
        <ele>795.63</ele>
        <time>2019-07-08T08:57:08Z</time>
      </trkpt>
      <trkpt lat="44.85501" lon="2.76338">
        <ele>794.19</ele>
        <time>2019-07-08T08:57:20Z</time>
      </trkpt>
      <trkpt lat="44.85506" lon="2.76344">
        <ele>793.71</ele>
        <time>2019-07-08T08:57:27Z</time>
      </trkpt>
      <trkpt lat="44.8551" lon="2.76347">
        <ele>793.22</ele>
        <time>2019-07-08T08:57:32Z</time>
      </trkpt>
      <trkpt lat="44.85517" lon="2.76359">
        <ele>791.78</ele>
        <time>2019-07-08T08:57:45Z</time>
      </trkpt>
      <trkpt lat="44.85524" lon="2.76367">
        <ele>790.34</ele>
        <time>2019-07-08T08:57:57Z</time>
      </trkpt>
      <trkpt lat="44.85535" lon="2.76379">
        <ele>788.9</ele>
        <time>2019-07-08T08:58:10Z</time>
      </trkpt>
      <trkpt lat="44.85542" lon="2.76389">
        <ele>786.5</ele>
        <time>2019-07-08T08:58:21Z</time>
      </trkpt>
      <trkpt lat="44.85543" lon="2.76393">
        <ele>786.98</ele>
        <time>2019-07-08T08:58:25Z</time>
      </trkpt>
      <trkpt lat="44.85543" lon="2.76407">
        <ele>784.57</ele>
        <time>2019-07-08T08:58:38Z</time>
      </trkpt>
      <trkpt lat="44.85542" lon="2.76418">
        <ele>783.61</ele>
        <time>2019-07-08T08:58:50Z</time>
      </trkpt>
      <trkpt lat="44.8554" lon="2.76432">
        <ele>782.65</ele>
        <time>2019-07-08T08:59:00Z</time>
      </trkpt>
      <trkpt lat="44.85541" lon="2.76446">
        <ele>781.69</ele>
        <time>2019-07-08T08:59:10Z</time>
      </trkpt>
      <trkpt lat="44.85542" lon="2.76458">
        <ele>781.69</ele>
        <time>2019-07-08T08:59:18Z</time>
      </trkpt>
      <trkpt lat="44.85543" lon="2.76468">
        <ele>779.77</ele>
        <time>2019-07-08T08:59:29Z</time>
      </trkpt>
      <trkpt lat="44.85546" lon="2.76476">
        <ele>778.81</ele>
        <time>2019-07-08T08:59:33Z</time>
      </trkpt>
      <trkpt lat="44.85547" lon="2.76481">
        <ele>779.29</ele>
        <time>2019-07-08T08:59:36Z</time>
      </trkpt>
      <trkpt lat="44.85545" lon="2.76495">
        <ele>777.84</ele>
        <time>2019-07-08T08:59:47Z</time>
      </trkpt>
      <trkpt lat="44.85541" lon="2.76511">
        <ele>775.44</ele>
        <time>2019-07-08T09:00:02Z</time>
      </trkpt>
      <trkpt lat="44.85541" lon="2.76514">
        <ele>774.96</ele>
        <time>2019-07-08T09:00:06Z</time>
      </trkpt>
      <trkpt lat="44.8554" lon="2.76524">
        <ele>773.04</ele>
        <time>2019-07-08T09:00:15Z</time>
      </trkpt>
      <trkpt lat="44.85533" lon="2.76534">
        <ele>771.6</ele>
        <time>2019-07-08T09:00:30Z</time>
      </trkpt>
      <trkpt lat="44.85537" lon="2.76547">
        <ele>770.15</ele>
        <time>2019-07-08T09:00:42Z</time>
      </trkpt>
      <trkpt lat="44.85543" lon="2.7656">
        <ele>769.67</ele>
        <time>2019-07-08T09:00:56Z</time>
      </trkpt>
      <trkpt lat="44.85543" lon="2.7656">
        <ele>766.31</ele>
        <time>2019-07-08T09:00:57Z</time>
      </trkpt>
      <trkpt lat="44.85542" lon="2.76562">
        <ele>769.19</ele>
        <time>2019-07-08T09:00:59Z</time>
      </trkpt>
      <trkpt lat="44.85542" lon="2.76562">
        <ele>769.19</ele>
        <time>2019-07-08T09:01:00Z</time>
      </trkpt>
      <trkpt lat="44.85542" lon="2.76562">
        <ele>769.67</ele>
        <time>2019-07-08T09:01:32Z</time>
      </trkpt>
      <trkpt lat="44.85542" lon="2.76563">
        <ele>769.67</ele>
        <time>2019-07-08T09:01:41Z</time>
      </trkpt>
      <trkpt lat="44.85538" lon="2.76572">
        <ele>769.19</ele>
        <time>2019-07-08T09:01:48Z</time>
      </trkpt>
      <trkpt lat="44.85531" lon="2.76584">
        <ele>767.27</ele>
        <time>2019-07-08T09:02:02Z</time>
      </trkpt>
      <trkpt lat="44.85522" lon="2.76594">
        <ele>764.39</ele>
        <time>2019-07-08T09:02:14Z</time>
      </trkpt>
      <trkpt lat="44.85517" lon="2.76599">
        <ele>763.9</ele>
        <time>2019-07-08T09:02:28Z</time>
      </trkpt>
      <trkpt lat="44.85511" lon="2.76605">
        <ele>762.46</ele>
        <time>2019-07-08T09:02:43Z</time>
      </trkpt>
      <trkpt lat="44.85504" lon="2.76618">
        <ele>760.54</ele>
        <time>2019-07-08T09:02:57Z</time>
      </trkpt>
      <trkpt lat="44.85503" lon="2.76628">
        <ele>759.58</ele>
        <time>2019-07-08T09:03:10Z</time>
      </trkpt>
      <trkpt lat="44.85502" lon="2.76635">
        <ele>759.1</ele>
        <time>2019-07-08T09:03:22Z</time>
      </trkpt>
      <trkpt lat="44.85501" lon="2.76644">
        <ele>756.69</ele>
        <time>2019-07-08T09:03:36Z</time>
      </trkpt>
      <trkpt lat="44.85497" lon="2.76648">
        <ele>756.21</ele>
        <time>2019-07-08T09:03:49Z</time>
      </trkpt>
      <trkpt lat="44.85492" lon="2.76646">
        <ele>755.73</ele>
        <time>2019-07-08T09:03:59Z</time>
      </trkpt>
      <trkpt lat="44.85488" lon="2.76646">
        <ele>754.77</ele>
        <time>2019-07-08T09:04:12Z</time>
      </trkpt>
      <trkpt lat="44.85487" lon="2.76649">
        <ele>755.25</ele>
        <time>2019-07-08T09:04:14Z</time>
      </trkpt>
      <trkpt lat="44.85486" lon="2.76665">
        <ele>753.81</ele>
        <time>2019-07-08T09:04:30Z</time>
      </trkpt>
      <trkpt lat="44.85486" lon="2.76682">
        <ele>750.45</ele>
        <time>2019-07-08T09:04:45Z</time>
      </trkpt>
      <trkpt lat="44.85489" lon="2.76701">
        <ele>748.52</ele>
        <time>2019-07-08T09:05:02Z</time>
      </trkpt>
      <trkpt lat="44.85486" lon="2.76715">
        <ele>745.16</ele>
        <time>2019-07-08T09:05:15Z</time>
      </trkpt>
      <trkpt lat="44.85487" lon="2.76722">
        <ele>743.24</ele>
        <time>2019-07-08T09:05:21Z</time>
      </trkpt>
      <trkpt lat="44.85487" lon="2.76736">
        <ele>741.31</ele>
        <time>2019-07-08T09:05:33Z</time>
      </trkpt>
      <trkpt lat="44.85486" lon="2.76752">
        <ele>738.43</ele>
        <time>2019-07-08T09:05:48Z</time>
      </trkpt>
      <trkpt lat="44.85483" lon="2.76766">
        <ele>735.07</ele>
        <time>2019-07-08T09:06:01Z</time>
      </trkpt>
      <trkpt lat="44.85482" lon="2.76783">
        <ele>732.66</ele>
        <time>2019-07-08T09:06:16Z</time>
      </trkpt>
      <trkpt lat="44.85482" lon="2.76784">
        <ele>732.18</ele>
        <time>2019-07-08T09:06:17Z</time>
      </trkpt>
      <trkpt lat="44.8548" lon="2.76798">
        <ele>728.82</ele>
        <time>2019-07-08T09:06:31Z</time>
      </trkpt>
      <trkpt lat="44.8548" lon="2.76812">
        <ele>726.41</ele>
        <time>2019-07-08T09:06:45Z</time>
      </trkpt>
      <trkpt lat="44.85481" lon="2.76826">
        <ele>723.53</ele>
        <time>2019-07-08T09:07:00Z</time>
      </trkpt>
      <trkpt lat="44.8548" lon="2.76838">
        <ele>720.65</ele>
        <time>2019-07-08T09:07:14Z</time>
      </trkpt>
      <trkpt lat="44.85477" lon="2.76847">
        <ele>718.24</ele>
        <time>2019-07-08T09:07:28Z</time>
      </trkpt>
      <trkpt lat="44.85475" lon="2.76855">
        <ele>716.32</ele>
        <time>2019-07-08T09:07:39Z</time>
      </trkpt>
      <trkpt lat="44.85471" lon="2.76864">
        <ele>713.92</ele>
        <time>2019-07-08T09:07:54Z</time>
      </trkpt>
      <trkpt lat="44.85468" lon="2.76871">
        <ele>711.99</ele>
        <time>2019-07-08T09:08:07Z</time>
      </trkpt>
      <trkpt lat="44.85464" lon="2.76883">
        <ele>709.11</ele>
        <time>2019-07-08T09:08:21Z</time>
      </trkpt>
      <trkpt lat="44.85464" lon="2.76883">
        <ele>708.63</ele>
        <time>2019-07-08T09:08:39Z</time>
      </trkpt>
      <trkpt lat="44.85464" lon="2.76884">
        <ele>708.63</ele>
        <time>2019-07-08T09:10:29Z</time>
      </trkpt>
      <trkpt lat="44.85461" lon="2.76895">
        <ele>707.19</ele>
        <time>2019-07-08T09:10:41Z</time>
      </trkpt>
      <trkpt lat="44.85457" lon="2.76899">
        <ele>704.3</ele>
        <time>2019-07-08T09:10:54Z</time>
      </trkpt>
      <trkpt lat="44.8545" lon="2.76908">
        <ele>702.38</ele>
        <time>2019-07-08T09:11:08Z</time>
      </trkpt>
      <trkpt lat="44.85447" lon="2.76922">
        <ele>700.94</ele>
        <time>2019-07-08T09:11:21Z</time>
      </trkpt>
      <trkpt lat="44.85445" lon="2.76935">
        <ele>699.5</ele>
        <time>2019-07-08T09:11:34Z</time>
      </trkpt>
      <trkpt lat="44.85446" lon="2.76945">
        <ele>697.09</ele>
        <time>2019-07-08T09:11:48Z</time>
      </trkpt>
      <trkpt lat="44.85447" lon="2.76958">
        <ele>693.73</ele>
        <time>2019-07-08T09:12:03Z</time>
      </trkpt>
      <trkpt lat="44.85445" lon="2.76968">
        <ele>690.84</ele>
        <time>2019-07-08T09:12:15Z</time>
      </trkpt>
      <trkpt lat="44.8544" lon="2.76975">
        <ele>687.48</ele>
        <time>2019-07-08T09:12:27Z</time>
      </trkpt>
      <trkpt lat="44.8543" lon="2.76978">
        <ele>687</ele>
        <time>2019-07-08T09:12:38Z</time>
      </trkpt>
      <trkpt lat="44.85426" lon="2.76979">
        <ele>687</ele>
        <time>2019-07-08T09:12:51Z</time>
      </trkpt>
      <trkpt lat="44.85423" lon="2.76994">
        <ele>687</ele>
        <time>2019-07-08T09:13:04Z</time>
      </trkpt>
      <trkpt lat="44.85425" lon="2.77003">
        <ele>686.52</ele>
        <time>2019-07-08T09:13:16Z</time>
      </trkpt>
      <trkpt lat="44.85426" lon="2.77004">
        <ele>686.52</ele>
        <time>2019-07-08T09:13:40Z</time>
      </trkpt>
      <trkpt lat="44.85426" lon="2.77004">
        <ele>687</ele>
        <time>2019-07-08T09:14:00Z</time>
      </trkpt>
      <trkpt lat="44.85426" lon="2.77004">
        <ele>686.52</ele>
        <time>2019-07-08T09:15:24Z</time>
      </trkpt>
      <trkpt lat="44.85423" lon="2.77001">
        <ele>686.04</ele>
        <time>2019-07-08T09:15:49Z</time>
      </trkpt>
      <trkpt lat="44.85422" lon="2.76997">
        <ele>687</ele>
        <time>2019-07-08T09:16:03Z</time>
      </trkpt>
      <trkpt lat="44.85425" lon="2.76997">
        <ele>686.52</ele>
        <time>2019-07-08T09:16:16Z</time>
      </trkpt>
      <trkpt lat="44.85428" lon="2.76999">
        <ele>686.04</ele>
        <time>2019-07-08T09:16:34Z</time>
      </trkpt>
      <trkpt lat="44.85428" lon="2.76999">
        <ele>685.56</ele>
        <time>2019-07-08T09:16:53Z</time>
      </trkpt>
      <trkpt lat="44.85429" lon="2.77">
        <ele>685.56</ele>
        <time>2019-07-08T09:17:26Z</time>
      </trkpt>
      <trkpt lat="44.85429" lon="2.76999">
        <ele>685.56</ele>
        <time>2019-07-08T09:17:43Z</time>
      </trkpt>
      <trkpt lat="44.85439" lon="2.77001">
        <ele>684.12</ele>
        <time>2019-07-08T09:17:58Z</time>
      </trkpt>
      <trkpt lat="44.8545" lon="2.76999">
        <ele>683.15</ele>
        <time>2019-07-08T09:18:11Z</time>
      </trkpt>
      <trkpt lat="44.8546" lon="2.76994">
        <ele>681.71</ele>
        <time>2019-07-08T09:18:21Z</time>
      </trkpt>
      <trkpt lat="44.8547" lon="2.7699">
        <ele>680.75</ele>
        <time>2019-07-08T09:18:33Z</time>
      </trkpt>
      <trkpt lat="44.85483" lon="2.76982">
        <ele>679.31</ele>
        <time>2019-07-08T09:18:50Z</time>
      </trkpt>
      <trkpt lat="44.85484" lon="2.76983">
        <ele>678.83</ele>
        <time>2019-07-08T09:18:51Z</time>
      </trkpt>
      <trkpt lat="44.85482" lon="2.76998">
        <ele>677.39</ele>
        <time>2019-07-08T09:19:03Z</time>
      </trkpt>
      <trkpt lat="44.85481" lon="2.76999">
        <ele>677.39</ele>
        <time>2019-07-08T09:19:04Z</time>
      </trkpt>
      <trkpt lat="44.85471" lon="2.77007">
        <ele>675.94</ele>
        <time>2019-07-08T09:19:16Z</time>
      </trkpt>
      <trkpt lat="44.85462" lon="2.7702">
        <ele>674.5</ele>
        <time>2019-07-08T09:19:28Z</time>
      </trkpt>
      <trkpt lat="44.85458" lon="2.77025">
        <ele>674.02</ele>
        <time>2019-07-08T09:19:33Z</time>
      </trkpt>
      <trkpt lat="44.85448" lon="2.77033">
        <ele>672.58</ele>
        <time>2019-07-08T09:19:46Z</time>
      </trkpt>
      <trkpt lat="44.85438" lon="2.77041">
        <ele>671.62</ele>
        <time>2019-07-08T09:19:57Z</time>
      </trkpt>
      <trkpt lat="44.8543" lon="2.7705">
        <ele>670.66</ele>
        <time>2019-07-08T09:20:06Z</time>
      </trkpt>
      <trkpt lat="44.85425" lon="2.77052">
        <ele>669.7</ele>
        <time>2019-07-08T09:20:12Z</time>
      </trkpt>
      <trkpt lat="44.85415" lon="2.77058">
        <ele>668.25</ele>
        <time>2019-07-08T09:20:23Z</time>
      </trkpt>
      <trkpt lat="44.85403" lon="2.77069">
        <ele>667.29</ele>
        <time>2019-07-08T09:20:38Z</time>
      </trkpt>
      <trkpt lat="44.85395" lon="2.77077">
        <ele>666.81</ele>
        <time>2019-07-08T09:20:52Z</time>
      </trkpt>
      <trkpt lat="44.85389" lon="2.77085">
        <ele>665.85</ele>
        <time>2019-07-08T09:21:05Z</time>
      </trkpt>
      <trkpt lat="44.85386" lon="2.77092">
        <ele>665.37</ele>
        <time>2019-07-08T09:21:15Z</time>
      </trkpt>
      <trkpt lat="44.85384" lon="2.77108">
        <ele>666.33</ele>
        <time>2019-07-08T09:21:28Z</time>
      </trkpt>
      <trkpt lat="44.8538" lon="2.77124">
        <ele>665.37</ele>
        <time>2019-07-08T09:21:41Z</time>
      </trkpt>
      <trkpt lat="44.85373" lon="2.77139">
        <ele>664.89</ele>
        <time>2019-07-08T09:21:55Z</time>
      </trkpt>
      <trkpt lat="44.8537" lon="2.77149">
        <ele>665.37</ele>
        <time>2019-07-08T09:22:06Z</time>
      </trkpt>
      <trkpt lat="44.85369" lon="2.77157">
        <ele>664.89</ele>
        <time>2019-07-08T09:22:25Z</time>
      </trkpt>
      <trkpt lat="44.85367" lon="2.77171">
        <ele>664.41</ele>
        <time>2019-07-08T09:22:36Z</time>
      </trkpt>
      <trkpt lat="44.85364" lon="2.77175">
        <ele>663.93</ele>
        <time>2019-07-08T09:22:50Z</time>
      </trkpt>
      <trkpt lat="44.85364" lon="2.77176">
        <ele>663.93</ele>
        <time>2019-07-08T09:22:56Z</time>
      </trkpt>
      <trkpt lat="44.85364" lon="2.77183">
        <ele>663.93</ele>
        <time>2019-07-08T09:23:00Z</time>
      </trkpt>
      <trkpt lat="44.85364" lon="2.77186">
        <ele>663.93</ele>
        <time>2019-07-08T09:23:02Z</time>
      </trkpt>
      <trkpt lat="44.85365" lon="2.77189">
        <ele>664.41</ele>
        <time>2019-07-08T09:23:04Z</time>
      </trkpt>
      <trkpt lat="44.85364" lon="2.77192">
        <ele>664.41</ele>
        <time>2019-07-08T09:23:06Z</time>
      </trkpt>
      <trkpt lat="44.85367" lon="2.77205">
        <ele>664.41</ele>
        <time>2019-07-08T09:23:17Z</time>
      </trkpt>
      <trkpt lat="44.85366" lon="2.77209">
        <ele>664.41</ele>
        <time>2019-07-08T09:23:20Z</time>
      </trkpt>
      <trkpt lat="44.85364" lon="2.77214">
        <ele>664.41</ele>
        <time>2019-07-08T09:23:24Z</time>
      </trkpt>
      <trkpt lat="44.85365" lon="2.77236">
        <ele>664.41</ele>
        <time>2019-07-08T09:23:39Z</time>
      </trkpt>
      <trkpt lat="44.85365" lon="2.77245">
        <ele>664.41</ele>
        <time>2019-07-08T09:23:45Z</time>
      </trkpt>
      <trkpt lat="44.85364" lon="2.77249">
        <ele>664.41</ele>
        <time>2019-07-08T09:23:48Z</time>
      </trkpt>
      <trkpt lat="44.85364" lon="2.77252">
        <ele>664.41</ele>
        <time>2019-07-08T09:23:50Z</time>
      </trkpt>
      <trkpt lat="44.85363" lon="2.77265">
        <ele>663.93</ele>
        <time>2019-07-08T09:23:59Z</time>
      </trkpt>
      <trkpt lat="44.85362" lon="2.77272">
        <ele>663.93</ele>
        <time>2019-07-08T09:24:03Z</time>
      </trkpt>
      <trkpt lat="44.85363" lon="2.7729">
        <ele>663.93</ele>
        <time>2019-07-08T09:24:14Z</time>
      </trkpt>
      <trkpt lat="44.85363" lon="2.77308">
        <ele>664.41</ele>
        <time>2019-07-08T09:24:26Z</time>
      </trkpt>
      <trkpt lat="44.85363" lon="2.7731">
        <ele>664.41</ele>
        <time>2019-07-08T09:24:27Z</time>
      </trkpt>
      <trkpt lat="44.85363" lon="2.77314">
        <ele>663.93</ele>
        <time>2019-07-08T09:24:30Z</time>
      </trkpt>
      <trkpt lat="44.85363" lon="2.77333">
        <ele>664.41</ele>
        <time>2019-07-08T09:24:43Z</time>
      </trkpt>
      <trkpt lat="44.85364" lon="2.77356">
        <ele>664.41</ele>
        <time>2019-07-08T09:24:58Z</time>
      </trkpt>
      <trkpt lat="44.85364" lon="2.77359">
        <ele>663.93</ele>
        <time>2019-07-08T09:25:00Z</time>
      </trkpt>
      <trkpt lat="44.85365" lon="2.77379">
        <ele>664.41</ele>
        <time>2019-07-08T09:25:15Z</time>
      </trkpt>
      <trkpt lat="44.85367" lon="2.77387">
        <ele>664.89</ele>
        <time>2019-07-08T09:25:20Z</time>
      </trkpt>
      <trkpt lat="44.8537" lon="2.77395">
        <ele>664.89</ele>
        <time>2019-07-08T09:25:26Z</time>
      </trkpt>
      <trkpt lat="44.8537" lon="2.77401">
        <ele>665.37</ele>
        <time>2019-07-08T09:25:29Z</time>
      </trkpt>
      <trkpt lat="44.85375" lon="2.77419">
        <ele>665.37</ele>
        <time>2019-07-08T09:25:41Z</time>
      </trkpt>
      <trkpt lat="44.85376" lon="2.77425">
        <ele>665.37</ele>
        <time>2019-07-08T09:25:44Z</time>
      </trkpt>
      <trkpt lat="44.85383" lon="2.77442">
        <ele>665.85</ele>
        <time>2019-07-08T09:25:57Z</time>
      </trkpt>
      <trkpt lat="44.85391" lon="2.77458">
        <ele>666.33</ele>
        <time>2019-07-08T09:26:10Z</time>
      </trkpt>
      <trkpt lat="44.85392" lon="2.77459">
        <ele>666.33</ele>
        <time>2019-07-08T09:26:11Z</time>
      </trkpt>
      <trkpt lat="44.85399" lon="2.77477">
        <ele>667.29</ele>
        <time>2019-07-08T09:26:25Z</time>
      </trkpt>
      <trkpt lat="44.854" lon="2.77482">
        <ele>667.77</ele>
        <time>2019-07-08T09:26:29Z</time>
      </trkpt>
      <trkpt lat="44.85398" lon="2.77497">
        <ele>668.73</ele>
        <time>2019-07-08T09:26:44Z</time>
      </trkpt>
      <trkpt lat="44.85397" lon="2.77497">
        <ele>668.73</ele>
        <time>2019-07-08T09:27:21Z</time>
      </trkpt>
      <trkpt lat="44.85404" lon="2.77502">
        <ele>666.81</ele>
        <time>2019-07-08T09:27:37Z</time>
      </trkpt>
      <trkpt lat="44.85408" lon="2.77517">
        <ele>665.37</ele>
        <time>2019-07-08T09:27:50Z</time>
      </trkpt>
      <trkpt lat="44.85414" lon="2.77531">
        <ele>663.93</ele>
        <time>2019-07-08T09:28:02Z</time>
      </trkpt>
      <trkpt lat="44.85409" lon="2.77541">
        <ele>664.89</ele>
        <time>2019-07-08T09:28:12Z</time>
      </trkpt>
      <trkpt lat="44.85406" lon="2.77562">
        <ele>663.93</ele>
        <time>2019-07-08T09:28:27Z</time>
      </trkpt>
      <trkpt lat="44.85407" lon="2.77577">
        <ele>662.97</ele>
        <time>2019-07-08T09:28:41Z</time>
      </trkpt>
      <trkpt lat="44.85407" lon="2.77595">
        <ele>662.01</ele>
        <time>2019-07-08T09:28:59Z</time>
      </trkpt>
      <trkpt lat="44.85406" lon="2.77612">
        <ele>659.6</ele>
        <time>2019-07-08T09:29:16Z</time>
      </trkpt>
      <trkpt lat="44.8541" lon="2.77619">
        <ele>659.6</ele>
        <time>2019-07-08T09:29:36Z</time>
      </trkpt>
      <trkpt lat="44.8541" lon="2.77618">
        <ele>659.12</ele>
        <time>2019-07-08T09:30:30Z</time>
      </trkpt>
      <trkpt lat="44.8541" lon="2.77618">
        <ele>658.64</ele>
        <time>2019-07-08T09:32:58Z</time>
      </trkpt>
      <trkpt lat="44.8541" lon="2.77619">
        <ele>657.68</ele>
        <time>2019-07-08T09:36:59Z</time>
      </trkpt>
      <trkpt lat="44.8541" lon="2.77619">
        <ele>658.16</ele>
        <time>2019-07-08T09:38:41Z</time>
      </trkpt>
      <trkpt lat="44.85411" lon="2.77619">
        <ele>654.8</ele>
        <time>2019-07-08T10:06:46Z</time>
      </trkpt>
      <trkpt lat="44.85411" lon="2.77619">
        <ele>655.28</ele>
        <time>2019-07-08T10:07:59Z</time>
      </trkpt>
      <trkpt lat="44.85412" lon="2.77618">
        <ele>655.28</ele>
        <time>2019-07-08T10:12:40Z</time>
      </trkpt>
      <trkpt lat="44.85412" lon="2.7762">
        <ele>652.87</ele>
        <time>2019-07-08T10:23:45Z</time>
      </trkpt>
      <trkpt lat="44.85413" lon="2.77619">
        <ele>653.35</ele>
        <time>2019-07-08T10:33:12Z</time>
      </trkpt>
      <trkpt lat="44.85412" lon="2.77618">
        <ele>652.87</ele>
        <time>2019-07-08T10:36:32Z</time>
      </trkpt>
      <trkpt lat="44.85412" lon="2.77618">
        <ele>654.31</ele>
        <time>2019-07-08T10:38:23Z</time>
      </trkpt>
      <trkpt lat="44.85409" lon="2.77618">
        <ele>654.8</ele>
        <time>2019-07-08T10:39:26Z</time>
      </trkpt>
      <trkpt lat="44.85404" lon="2.77614">
        <ele>655.28</ele>
        <time>2019-07-08T10:39:39Z</time>
      </trkpt>
      <trkpt lat="44.85402" lon="2.77613">
        <ele>655.28</ele>
        <time>2019-07-08T10:39:42Z</time>
      </trkpt>
      <trkpt lat="44.85393" lon="2.77607">
        <ele>655.28</ele>
        <time>2019-07-08T10:39:53Z</time>
      </trkpt>
      <trkpt lat="44.8539" lon="2.77606">
        <ele>655.76</ele>
        <time>2019-07-08T10:40:05Z</time>
      </trkpt>
      <trkpt lat="44.85381" lon="2.77602">
        <ele>655.76</ele>
        <time>2019-07-08T10:40:20Z</time>
      </trkpt>
      <trkpt lat="44.85374" lon="2.77595">
        <ele>655.76</ele>
        <time>2019-07-08T10:40:34Z</time>
      </trkpt>
      <trkpt lat="44.85374" lon="2.77595">
        <ele>656.24</ele>
        <time>2019-07-08T10:40:55Z</time>
      </trkpt>
      <trkpt lat="44.85374" lon="2.77595">
        <ele>656.72</ele>
        <time>2019-07-08T10:41:37Z</time>
      </trkpt>
      <trkpt lat="44.85372" lon="2.77588">
        <ele>657.68</ele>
        <time>2019-07-08T10:41:53Z</time>
      </trkpt>
      <trkpt lat="44.85375" lon="2.77576">
        <ele>659.6</ele>
        <time>2019-07-08T10:42:06Z</time>
      </trkpt>
      <trkpt lat="44.8538" lon="2.77564">
        <ele>661.04</ele>
        <time>2019-07-08T10:42:18Z</time>
      </trkpt>
      <trkpt lat="44.85383" lon="2.77554">
        <ele>662.01</ele>
        <time>2019-07-08T10:42:30Z</time>
      </trkpt>
      <trkpt lat="44.85384" lon="2.77551">
        <ele>662.01</ele>
        <time>2019-07-08T10:42:33Z</time>
      </trkpt>
      <trkpt lat="44.85387" lon="2.77537">
        <ele>663.45</ele>
        <time>2019-07-08T10:42:46Z</time>
      </trkpt>
      <trkpt lat="44.85387" lon="2.77529">
        <ele>663.93</ele>
        <time>2019-07-08T10:42:52Z</time>
      </trkpt>
      <trkpt lat="44.85381" lon="2.7752">
        <ele>664.41</ele>
        <time>2019-07-08T10:43:06Z</time>
      </trkpt>
      <trkpt lat="44.85372" lon="2.77519">
        <ele>664.41</ele>
        <time>2019-07-08T10:43:47Z</time>
      </trkpt>
      <trkpt lat="44.85361" lon="2.77517">
        <ele>665.85</ele>
        <time>2019-07-08T10:43:59Z</time>
      </trkpt>
      <trkpt lat="44.85352" lon="2.77512">
        <ele>666.33</ele>
        <time>2019-07-08T10:44:11Z</time>
      </trkpt>
      <trkpt lat="44.85344" lon="2.77507">
        <ele>665.85</ele>
        <time>2019-07-08T10:44:22Z</time>
      </trkpt>
      <trkpt lat="44.85334" lon="2.77499">
        <ele>666.33</ele>
        <time>2019-07-08T10:44:35Z</time>
      </trkpt>
      <trkpt lat="44.85322" lon="2.7749">
        <ele>667.29</ele>
        <time>2019-07-08T10:44:48Z</time>
      </trkpt>
      <trkpt lat="44.85321" lon="2.7749">
        <ele>667.29</ele>
        <time>2019-07-08T10:44:50Z</time>
      </trkpt>
      <trkpt lat="44.85308" lon="2.77481">
        <ele>666.81</ele>
        <time>2019-07-08T10:45:05Z</time>
      </trkpt>
      <trkpt lat="44.85301" lon="2.77473">
        <ele>666.33</ele>
        <time>2019-07-08T10:45:16Z</time>
      </trkpt>
      <trkpt lat="44.85299" lon="2.77471">
        <ele>665.85</ele>
        <time>2019-07-08T10:45:18Z</time>
      </trkpt>
      <trkpt lat="44.85297" lon="2.77469">
        <ele>665.37</ele>
        <time>2019-07-08T10:45:20Z</time>
      </trkpt>
      <trkpt lat="44.85289" lon="2.77456">
        <ele>666.33</ele>
        <time>2019-07-08T10:45:34Z</time>
      </trkpt>
      <trkpt lat="44.85286" lon="2.77437">
        <ele>666.81</ele>
        <time>2019-07-08T10:45:49Z</time>
      </trkpt>
      <trkpt lat="44.85289" lon="2.77427">
        <ele>668.73</ele>
        <time>2019-07-08T10:46:00Z</time>
      </trkpt>
      <trkpt lat="44.85292" lon="2.77412">
        <ele>670.18</ele>
        <time>2019-07-08T10:46:12Z</time>
      </trkpt>
      <trkpt lat="44.85296" lon="2.77404">
        <ele>671.62</ele>
        <time>2019-07-08T10:46:22Z</time>
      </trkpt>
      <trkpt lat="44.85304" lon="2.77394">
        <ele>674.02</ele>
        <time>2019-07-08T10:46:35Z</time>
      </trkpt>
      <trkpt lat="44.8531" lon="2.77384">
        <ele>674.98</ele>
        <time>2019-07-08T10:46:46Z</time>
      </trkpt>
      <trkpt lat="44.85312" lon="2.77381">
        <ele>675.94</ele>
        <time>2019-07-08T10:46:56Z</time>
      </trkpt>
      <trkpt lat="44.85316" lon="2.77385">
        <ele>676.91</ele>
        <time>2019-07-08T10:47:07Z</time>
      </trkpt>
      <trkpt lat="44.8532" lon="2.77394">
        <ele>677.87</ele>
        <time>2019-07-08T10:47:17Z</time>
      </trkpt>
      <trkpt lat="44.85329" lon="2.77395">
        <ele>679.31</ele>
        <time>2019-07-08T10:47:28Z</time>
      </trkpt>
      <trkpt lat="44.85331" lon="2.77397">
        <ele>679.79</ele>
        <time>2019-07-08T10:47:43Z</time>
      </trkpt>
      <trkpt lat="44.85331" lon="2.77396">
        <ele>679.79</ele>
        <time>2019-07-08T10:48:38Z</time>
      </trkpt>
      <trkpt lat="44.85328" lon="2.77396">
        <ele>678.83</ele>
        <time>2019-07-08T10:48:55Z</time>
      </trkpt>
      <trkpt lat="44.85327" lon="2.77397">
        <ele>677.87</ele>
        <time>2019-07-08T10:49:10Z</time>
      </trkpt>
      <trkpt lat="44.85327" lon="2.77397">
        <ele>678.35</ele>
        <time>2019-07-08T10:49:30Z</time>
      </trkpt>
      <trkpt lat="44.85318" lon="2.77385">
        <ele>676.91</ele>
        <time>2019-07-08T10:49:49Z</time>
      </trkpt>
      <trkpt lat="44.85316" lon="2.77382">
        <ele>676.91</ele>
        <time>2019-07-08T10:49:53Z</time>
      </trkpt>
      <trkpt lat="44.85312" lon="2.77366">
        <ele>674.98</ele>
        <time>2019-07-08T10:50:06Z</time>
      </trkpt>
      <trkpt lat="44.85315" lon="2.77348">
        <ele>674.5</ele>
        <time>2019-07-08T10:50:20Z</time>
      </trkpt>
      <trkpt lat="44.85318" lon="2.77331">
        <ele>673.06</ele>
        <time>2019-07-08T10:50:34Z</time>
      </trkpt>
      <trkpt lat="44.85324" lon="2.77312">
        <ele>671.14</ele>
        <time>2019-07-08T10:50:49Z</time>
      </trkpt>
      <trkpt lat="44.85326" lon="2.77305">
        <ele>671.14</ele>
        <time>2019-07-08T10:50:55Z</time>
      </trkpt>
      <trkpt lat="44.85326" lon="2.77292">
        <ele>670.18</ele>
        <time>2019-07-08T10:51:04Z</time>
      </trkpt>
      <trkpt lat="44.85329" lon="2.77278">
        <ele>669.22</ele>
        <time>2019-07-08T10:51:15Z</time>
      </trkpt>
      <trkpt lat="44.85331" lon="2.77275">
        <ele>668.73</ele>
        <time>2019-07-08T10:51:18Z</time>
      </trkpt>
      <trkpt lat="44.85332" lon="2.77271">
        <ele>668.25</ele>
        <time>2019-07-08T10:51:21Z</time>
      </trkpt>
      <trkpt lat="44.85338" lon="2.77261">
        <ele>667.29</ele>
        <time>2019-07-08T10:51:30Z</time>
      </trkpt>
      <trkpt lat="44.85346" lon="2.77244">
        <ele>665.85</ele>
        <time>2019-07-08T10:51:45Z</time>
      </trkpt>
      <trkpt lat="44.85352" lon="2.77228">
        <ele>663.93</ele>
        <time>2019-07-08T10:51:59Z</time>
      </trkpt>
      <trkpt lat="44.85356" lon="2.7721">
        <ele>662.01</ele>
        <time>2019-07-08T10:52:14Z</time>
      </trkpt>
      <trkpt lat="44.85362" lon="2.77196">
        <ele>660.56</ele>
        <time>2019-07-08T10:52:28Z</time>
      </trkpt>
      <trkpt lat="44.85364" lon="2.77188">
        <ele>659.6</ele>
        <time>2019-07-08T10:52:35Z</time>
      </trkpt>
      <trkpt lat="44.85368" lon="2.77168">
        <ele>659.6</ele>
        <time>2019-07-08T10:52:49Z</time>
      </trkpt>
      <trkpt lat="44.85371" lon="2.77152">
        <ele>660.56</ele>
        <time>2019-07-08T10:53:01Z</time>
      </trkpt>
      <trkpt lat="44.85377" lon="2.77138">
        <ele>661.04</ele>
        <time>2019-07-08T10:53:13Z</time>
      </trkpt>
      <trkpt lat="44.85383" lon="2.77119">
        <ele>661.04</ele>
        <time>2019-07-08T10:53:26Z</time>
      </trkpt>
      <trkpt lat="44.85385" lon="2.77115">
        <ele>661.52</ele>
        <time>2019-07-08T10:53:31Z</time>
      </trkpt>
      <trkpt lat="44.85389" lon="2.77094">
        <ele>662.49</ele>
        <time>2019-07-08T10:53:46Z</time>
      </trkpt>
      <trkpt lat="44.8539" lon="2.77087">
        <ele>662.01</ele>
        <time>2019-07-08T10:53:50Z</time>
      </trkpt>
      <trkpt lat="44.854" lon="2.77075">
        <ele>662.97</ele>
        <time>2019-07-08T10:54:03Z</time>
      </trkpt>
      <trkpt lat="44.85403" lon="2.77072">
        <ele>663.45</ele>
        <time>2019-07-08T10:54:07Z</time>
      </trkpt>
      <trkpt lat="44.85404" lon="2.77068">
        <ele>663.45</ele>
        <time>2019-07-08T10:54:10Z</time>
      </trkpt>
      <trkpt lat="44.85401" lon="2.77062">
        <ele>663.45</ele>
        <time>2019-07-08T10:54:30Z</time>
      </trkpt>
      <trkpt lat="44.854" lon="2.77061">
        <ele>662.49</ele>
        <time>2019-07-08T10:54:49Z</time>
      </trkpt>
      <trkpt lat="44.854" lon="2.77061">
        <ele>663.45</ele>
        <time>2019-07-08T10:55:13Z</time>
      </trkpt>
      <trkpt lat="44.85397" lon="2.77063">
        <ele>663.93</ele>
        <time>2019-07-08T10:55:41Z</time>
      </trkpt>
      <trkpt lat="44.85399" lon="2.77063">
        <ele>663.45</ele>
        <time>2019-07-08T10:55:56Z</time>
      </trkpt>
      <trkpt lat="44.85402" lon="2.77065">
        <ele>663.93</ele>
        <time>2019-07-08T10:56:02Z</time>
      </trkpt>
      <trkpt lat="44.8541" lon="2.77068">
        <ele>663.45</ele>
        <time>2019-07-08T10:56:13Z</time>
      </trkpt>
      <trkpt lat="44.85417" lon="2.7707">
        <ele>662.49</ele>
        <time>2019-07-08T10:56:27Z</time>
      </trkpt>
      <trkpt lat="44.8543" lon="2.77062">
        <ele>660.56</ele>
        <time>2019-07-08T10:56:42Z</time>
      </trkpt>
      <trkpt lat="44.85433" lon="2.77056">
        <ele>660.08</ele>
        <time>2019-07-08T10:56:54Z</time>
      </trkpt>
      <trkpt lat="44.85439" lon="2.77053">
        <ele>660.56</ele>
        <time>2019-07-08T10:57:18Z</time>
      </trkpt>
      <trkpt lat="44.85452" lon="2.77049">
        <ele>660.08</ele>
        <time>2019-07-08T10:57:31Z</time>
      </trkpt>
      <trkpt lat="44.85465" lon="2.77035">
        <ele>660.56</ele>
        <time>2019-07-08T10:57:46Z</time>
      </trkpt>
      <trkpt lat="44.85471" lon="2.77028">
        <ele>661.04</ele>
        <time>2019-07-08T10:57:57Z</time>
      </trkpt>
      <trkpt lat="44.85488" lon="2.77022">
        <ele>661.52</ele>
        <time>2019-07-08T10:58:11Z</time>
      </trkpt>
      <trkpt lat="44.855" lon="2.77013">
        <ele>664.89</ele>
        <time>2019-07-08T10:58:24Z</time>
      </trkpt>
      <trkpt lat="44.85501" lon="2.77012">
        <ele>661.52</ele>
        <time>2019-07-08T10:58:25Z</time>
      </trkpt>
      <trkpt lat="44.8551" lon="2.77005">
        <ele>661.04</ele>
        <time>2019-07-08T10:58:38Z</time>
      </trkpt>
      <trkpt lat="44.85515" lon="2.77005">
        <ele>661.04</ele>
        <time>2019-07-08T10:58:59Z</time>
      </trkpt>
      <trkpt lat="44.85522" lon="2.77">
        <ele>661.52</ele>
        <time>2019-07-08T10:59:08Z</time>
      </trkpt>
      <trkpt lat="44.85529" lon="2.76993">
        <ele>662.01</ele>
        <time>2019-07-08T10:59:19Z</time>
      </trkpt>
      <trkpt lat="44.85533" lon="2.76983">
        <ele>662.01</ele>
        <time>2019-07-08T10:59:26Z</time>
      </trkpt>
      <trkpt lat="44.85534" lon="2.76981">
        <ele>662.01</ele>
        <time>2019-07-08T10:59:28Z</time>
      </trkpt>
      <trkpt lat="44.85544" lon="2.76975">
        <ele>662.49</ele>
        <time>2019-07-08T10:59:38Z</time>
      </trkpt>
      <trkpt lat="44.85552" lon="2.76968">
        <ele>662.97</ele>
        <time>2019-07-08T10:59:49Z</time>
      </trkpt>
      <trkpt lat="44.85557" lon="2.76963">
        <ele>662.97</ele>
        <time>2019-07-08T11:00:00Z</time>
      </trkpt>
      <trkpt lat="44.85567" lon="2.76955">
        <ele>664.41</ele>
        <time>2019-07-08T11:00:11Z</time>
      </trkpt>
      <trkpt lat="44.85576" lon="2.76951">
        <ele>664.89</ele>
        <time>2019-07-08T11:00:20Z</time>
      </trkpt>
      <trkpt lat="44.85581" lon="2.76949">
        <ele>664.89</ele>
        <time>2019-07-08T11:00:25Z</time>
      </trkpt>
      <trkpt lat="44.85592" lon="2.76943">
        <ele>665.85</ele>
        <time>2019-07-08T11:00:38Z</time>
      </trkpt>
      <trkpt lat="44.85601" lon="2.76939">
        <ele>667.29</ele>
        <time>2019-07-08T11:00:52Z</time>
      </trkpt>
      <trkpt lat="44.85618" lon="2.7693">
        <ele>668.73</ele>
        <time>2019-07-08T11:01:07Z</time>
      </trkpt>
      <trkpt lat="44.85627" lon="2.76925">
        <ele>669.7</ele>
        <time>2019-07-08T11:01:20Z</time>
      </trkpt>
      <trkpt lat="44.8564" lon="2.76922">
        <ele>671.62</ele>
        <time>2019-07-08T11:01:34Z</time>
      </trkpt>
      <trkpt lat="44.85645" lon="2.76923">
        <ele>672.1</ele>
        <time>2019-07-08T11:01:48Z</time>
      </trkpt>
      <trkpt lat="44.85641" lon="2.76923">
        <ele>672.1</ele>
        <time>2019-07-08T11:01:53Z</time>
      </trkpt>
      <trkpt lat="44.85631" lon="2.76916">
        <ele>673.06</ele>
        <time>2019-07-08T11:02:07Z</time>
      </trkpt>
      <trkpt lat="44.85629" lon="2.76914">
        <ele>672.1</ele>
        <time>2019-07-08T11:02:19Z</time>
      </trkpt>
      <trkpt lat="44.85643" lon="2.7692">
        <ele>672.58</ele>
        <time>2019-07-08T11:02:34Z</time>
      </trkpt>
      <trkpt lat="44.85654" lon="2.76924">
        <ele>672.58</ele>
        <time>2019-07-08T11:02:48Z</time>
      </trkpt>
      <trkpt lat="44.85655" lon="2.76924">
        <ele>672.1</ele>
        <time>2019-07-08T11:03:08Z</time>
      </trkpt>
      <trkpt lat="44.85657" lon="2.76922">
        <ele>672.58</ele>
        <time>2019-07-08T11:03:40Z</time>
      </trkpt>
      <trkpt lat="44.85655" lon="2.76919">
        <ele>675.46</ele>
        <time>2019-07-08T11:04:00Z</time>
      </trkpt>
      <trkpt lat="44.85663" lon="2.76917">
        <ele>676.42</ele>
        <time>2019-07-08T11:04:15Z</time>
      </trkpt>
      <trkpt lat="44.85672" lon="2.7691">
        <ele>676.91</ele>
        <time>2019-07-08T11:04:32Z</time>
      </trkpt>
      <trkpt lat="44.85673" lon="2.76906">
        <ele>676.91</ele>
        <time>2019-07-08T11:04:45Z</time>
      </trkpt>
      <trkpt lat="44.85678" lon="2.76899">
        <ele>677.39</ele>
        <time>2019-07-08T11:05:01Z</time>
      </trkpt>
      <trkpt lat="44.85679" lon="2.76898">
        <ele>675.94</ele>
        <time>2019-07-08T11:05:20Z</time>
      </trkpt>
      <trkpt lat="44.85681" lon="2.76897">
        <ele>676.42</ele>
        <time>2019-07-08T11:05:31Z</time>
      </trkpt>
      <trkpt lat="44.85697" lon="2.76894">
        <ele>677.39</ele>
        <time>2019-07-08T11:05:39Z</time>
      </trkpt>
      <trkpt lat="44.85715" lon="2.76893">
        <ele>678.83</ele>
        <time>2019-07-08T11:05:55Z</time>
      </trkpt>
      <trkpt lat="44.85721" lon="2.76894">
        <ele>679.79</ele>
        <time>2019-07-08T11:06:07Z</time>
      </trkpt>
      <trkpt lat="44.8573" lon="2.76893">
        <ele>679.79</ele>
        <time>2019-07-08T11:06:17Z</time>
      </trkpt>
      <trkpt lat="44.85741" lon="2.76898">
        <ele>679.79</ele>
        <time>2019-07-08T11:06:28Z</time>
      </trkpt>
      <trkpt lat="44.85765" lon="2.76906">
        <ele>679.31</ele>
        <time>2019-07-08T11:06:42Z</time>
      </trkpt>
      <trkpt lat="44.85775" lon="2.76909">
        <ele>678.35</ele>
        <time>2019-07-08T11:06:54Z</time>
      </trkpt>
      <trkpt lat="44.85789" lon="2.76905">
        <ele>678.35</ele>
        <time>2019-07-08T11:07:07Z</time>
      </trkpt>
      <trkpt lat="44.85807" lon="2.76904">
        <ele>677.87</ele>
        <time>2019-07-08T11:07:20Z</time>
      </trkpt>
      <trkpt lat="44.8581" lon="2.76903">
        <ele>678.83</ele>
        <time>2019-07-08T11:07:23Z</time>
      </trkpt>
      <trkpt lat="44.85825" lon="2.76902">
        <ele>679.79</ele>
        <time>2019-07-08T11:07:39Z</time>
      </trkpt>
      <trkpt lat="44.85844" lon="2.76901">
        <ele>680.75</ele>
        <time>2019-07-08T11:07:49Z</time>
      </trkpt>
      <trkpt lat="44.8586" lon="2.76898">
        <ele>682.67</ele>
        <time>2019-07-08T11:08:03Z</time>
      </trkpt>
      <trkpt lat="44.85869" lon="2.76893">
        <ele>684.6</ele>
        <time>2019-07-08T11:08:18Z</time>
      </trkpt>
      <trkpt lat="44.85881" lon="2.76883">
        <ele>684.12</ele>
        <time>2019-07-08T11:08:32Z</time>
      </trkpt>
      <trkpt lat="44.85888" lon="2.76874">
        <ele>684.12</ele>
        <time>2019-07-08T11:08:46Z</time>
      </trkpt>
      <trkpt lat="44.85898" lon="2.76877">
        <ele>682.67</ele>
        <time>2019-07-08T11:09:00Z</time>
      </trkpt>
      <trkpt lat="44.85901" lon="2.76876">
        <ele>681.23</ele>
        <time>2019-07-08T11:09:06Z</time>
      </trkpt>
      <trkpt lat="44.85921" lon="2.76883">
        <ele>679.79</ele>
        <time>2019-07-08T11:09:20Z</time>
      </trkpt>
      <trkpt lat="44.85933" lon="2.76889">
        <ele>677.87</ele>
        <time>2019-07-08T11:09:35Z</time>
      </trkpt>
      <trkpt lat="44.85939" lon="2.76891">
        <ele>676.42</ele>
        <time>2019-07-08T11:09:48Z</time>
      </trkpt>
      <trkpt lat="44.85945" lon="2.76891">
        <ele>674.98</ele>
        <time>2019-07-08T11:09:57Z</time>
      </trkpt>
      <trkpt lat="44.8596" lon="2.76889">
        <ele>673.06</ele>
        <time>2019-07-08T11:10:12Z</time>
      </trkpt>
      <trkpt lat="44.85969" lon="2.76888">
        <ele>672.1</ele>
        <time>2019-07-08T11:10:20Z</time>
      </trkpt>
      <trkpt lat="44.85987" lon="2.76883">
        <ele>670.18</ele>
        <time>2019-07-08T11:10:32Z</time>
      </trkpt>
      <trkpt lat="44.86" lon="2.7687">
        <ele>669.22</ele>
        <time>2019-07-08T11:10:46Z</time>
      </trkpt>
      <trkpt lat="44.86008" lon="2.7686">
        <ele>668.25</ele>
        <time>2019-07-08T11:10:57Z</time>
      </trkpt>
      <trkpt lat="44.86018" lon="2.76856">
        <ele>666.81</ele>
        <time>2019-07-08T11:11:07Z</time>
      </trkpt>
      <trkpt lat="44.86032" lon="2.76864">
        <ele>664.89</ele>
        <time>2019-07-08T11:11:20Z</time>
      </trkpt>
      <trkpt lat="44.86038" lon="2.76866">
        <ele>664.41</ele>
        <time>2019-07-08T11:11:31Z</time>
      </trkpt>
      <trkpt lat="44.8604" lon="2.76867">
        <ele>663.45</ele>
        <time>2019-07-08T11:11:47Z</time>
      </trkpt>
      <trkpt lat="44.8605" lon="2.76866">
        <ele>661.52</ele>
        <time>2019-07-08T11:12:00Z</time>
      </trkpt>
      <trkpt lat="44.86071" lon="2.76866">
        <ele>660.08</ele>
        <time>2019-07-08T11:12:15Z</time>
      </trkpt>
      <trkpt lat="44.86074" lon="2.76866">
        <ele>659.12</ele>
        <time>2019-07-08T11:12:20Z</time>
      </trkpt>
      <trkpt lat="44.86085" lon="2.76866">
        <ele>658.64</ele>
        <time>2019-07-08T11:12:34Z</time>
      </trkpt>
      <trkpt lat="44.86089" lon="2.76863">
        <ele>658.16</ele>
        <time>2019-07-08T11:12:50Z</time>
      </trkpt>
      <trkpt lat="44.86089" lon="2.76863">
        <ele>657.68</ele>
        <time>2019-07-08T11:13:05Z</time>
      </trkpt>
      <trkpt lat="44.86113" lon="2.76867">
        <ele>657.68</ele>
        <time>2019-07-08T11:13:18Z</time>
      </trkpt>
      <trkpt lat="44.86124" lon="2.7687">
        <ele>657.68</ele>
        <time>2019-07-08T11:13:26Z</time>
      </trkpt>
      <trkpt lat="44.86136" lon="2.76869">
        <ele>657.68</ele>
        <time>2019-07-08T11:13:39Z</time>
      </trkpt>
      <trkpt lat="44.86136" lon="2.76869">
        <ele>657.2</ele>
        <time>2019-07-08T11:13:56Z</time>
      </trkpt>
      <trkpt lat="44.86136" lon="2.76871">
        <ele>657.2</ele>
        <time>2019-07-08T11:13:57Z</time>
      </trkpt>
      <trkpt lat="44.86146" lon="2.76888">
        <ele>657.2</ele>
        <time>2019-07-08T11:14:11Z</time>
      </trkpt>
      <trkpt lat="44.8615" lon="2.76898">
        <ele>657.2</ele>
        <time>2019-07-08T11:14:22Z</time>
      </trkpt>
      <trkpt lat="44.86147" lon="2.76898">
        <ele>657.2</ele>
        <time>2019-07-08T11:14:34Z</time>
      </trkpt>
      <trkpt lat="44.86147" lon="2.76898">
        <ele>657.2</ele>
        <time>2019-07-08T11:14:42Z</time>
      </trkpt>
      <trkpt lat="44.86147" lon="2.76891">
        <ele>657.2</ele>
        <time>2019-07-08T11:14:52Z</time>
      </trkpt>
      <trkpt lat="44.8615" lon="2.76879">
        <ele>657.2</ele>
        <time>2019-07-08T11:15:04Z</time>
      </trkpt>
      <trkpt lat="44.86152" lon="2.76877">
        <ele>657.2</ele>
        <time>2019-07-08T11:15:08Z</time>
      </trkpt>
      <trkpt lat="44.86158" lon="2.76874">
        <ele>656.72</ele>
        <time>2019-07-08T11:15:15Z</time>
      </trkpt>
      <trkpt lat="44.86167" lon="2.76869">
        <ele>656.72</ele>
        <time>2019-07-08T11:15:25Z</time>
      </trkpt>
      <trkpt lat="44.86171" lon="2.76867">
        <ele>656.72</ele>
        <time>2019-07-08T11:15:40Z</time>
      </trkpt>
      <trkpt lat="44.86171" lon="2.76867">
        <ele>656.24</ele>
        <time>2019-07-08T11:16:03Z</time>
      </trkpt>
      <trkpt lat="44.86174" lon="2.76866">
        <ele>656.24</ele>
        <time>2019-07-08T11:16:16Z</time>
      </trkpt>
      <trkpt lat="44.86183" lon="2.76864">
        <ele>655.76</ele>
        <time>2019-07-08T11:16:29Z</time>
      </trkpt>
      <trkpt lat="44.86195" lon="2.76857">
        <ele>655.28</ele>
        <time>2019-07-08T11:16:43Z</time>
      </trkpt>
      <trkpt lat="44.86209" lon="2.76847">
        <ele>654.8</ele>
        <time>2019-07-08T11:16:57Z</time>
      </trkpt>
      <trkpt lat="44.86222" lon="2.76842">
        <ele>654.8</ele>
        <time>2019-07-08T11:17:10Z</time>
      </trkpt>
      <trkpt lat="44.86227" lon="2.76843">
        <ele>654.31</ele>
        <time>2019-07-08T11:17:15Z</time>
      </trkpt>
      <trkpt lat="44.86245" lon="2.76845">
        <ele>654.31</ele>
        <time>2019-07-08T11:17:27Z</time>
      </trkpt>
      <trkpt lat="44.86256" lon="2.7685">
        <ele>653.83</ele>
        <time>2019-07-08T11:17:38Z</time>
      </trkpt>
      <trkpt lat="44.86265" lon="2.76854">
        <ele>654.8</ele>
        <time>2019-07-08T11:17:45Z</time>
      </trkpt>
      <trkpt lat="44.86277" lon="2.76848">
        <ele>654.8</ele>
        <time>2019-07-08T11:17:57Z</time>
      </trkpt>
      <trkpt lat="44.86297" lon="2.76834">
        <ele>654.31</ele>
        <time>2019-07-08T11:18:13Z</time>
      </trkpt>
      <trkpt lat="44.86303" lon="2.76829">
        <ele>654.8</ele>
        <time>2019-07-08T11:18:18Z</time>
      </trkpt>
      <trkpt lat="44.86312" lon="2.76811">
        <ele>655.28</ele>
        <time>2019-07-08T11:18:33Z</time>
      </trkpt>
      <trkpt lat="44.86318" lon="2.76803">
        <ele>655.28</ele>
        <time>2019-07-08T11:18:40Z</time>
      </trkpt>
      <trkpt lat="44.86327" lon="2.76788">
        <ele>654.8</ele>
        <time>2019-07-08T11:18:55Z</time>
      </trkpt>
      <trkpt lat="44.86331" lon="2.76776">
        <ele>655.28</ele>
        <time>2019-07-08T11:19:05Z</time>
      </trkpt>
      <trkpt lat="44.86343" lon="2.76759">
        <ele>656.24</ele>
        <time>2019-07-08T11:19:20Z</time>
      </trkpt>
      <trkpt lat="44.86349" lon="2.7674">
        <ele>656.72</ele>
        <time>2019-07-08T11:19:34Z</time>
      </trkpt>
      <trkpt lat="44.8635" lon="2.76725">
        <ele>657.2</ele>
        <time>2019-07-08T11:19:45Z</time>
      </trkpt>
      <trkpt lat="44.86353" lon="2.76719">
        <ele>657.2</ele>
        <time>2019-07-08T11:19:50Z</time>
      </trkpt>
      <trkpt lat="44.86358" lon="2.76706">
        <ele>658.16</ele>
        <time>2019-07-08T11:20:03Z</time>
      </trkpt>
      <trkpt lat="44.86363" lon="2.76696">
        <ele>658.64</ele>
        <time>2019-07-08T11:20:11Z</time>
      </trkpt>
      <trkpt lat="44.86374" lon="2.76682">
        <ele>660.08</ele>
        <time>2019-07-08T11:20:24Z</time>
      </trkpt>
      <trkpt lat="44.86384" lon="2.76672">
        <ele>660.08</ele>
        <time>2019-07-08T11:20:38Z</time>
      </trkpt>
      <trkpt lat="44.86394" lon="2.76666">
        <ele>661.04</ele>
        <time>2019-07-08T11:20:50Z</time>
      </trkpt>
      <trkpt lat="44.86407" lon="2.76659">
        <ele>661.52</ele>
        <time>2019-07-08T11:21:02Z</time>
      </trkpt>
      <trkpt lat="44.86421" lon="2.76647">
        <ele>661.52</ele>
        <time>2019-07-08T11:21:18Z</time>
      </trkpt>
      <trkpt lat="44.86428" lon="2.76645">
        <ele>662.49</ele>
        <time>2019-07-08T11:21:25Z</time>
      </trkpt>
      <trkpt lat="44.86436" lon="2.7664">
        <ele>662.49</ele>
        <time>2019-07-08T11:21:35Z</time>
      </trkpt>
      <trkpt lat="44.86444" lon="2.76638">
        <ele>662.97</ele>
        <time>2019-07-08T11:21:47Z</time>
      </trkpt>
      <trkpt lat="44.86456" lon="2.76635">
        <ele>662.97</ele>
        <time>2019-07-08T11:22:01Z</time>
      </trkpt>
      <trkpt lat="44.86461" lon="2.76635">
        <ele>662.97</ele>
        <time>2019-07-08T11:22:06Z</time>
      </trkpt>
      <trkpt lat="44.86478" lon="2.76635">
        <ele>663.45</ele>
        <time>2019-07-08T11:22:20Z</time>
      </trkpt>
      <trkpt lat="44.86486" lon="2.76629">
        <ele>663.93</ele>
        <time>2019-07-08T11:22:31Z</time>
      </trkpt>
      <trkpt lat="44.86497" lon="2.76623">
        <ele>663.93</ele>
        <time>2019-07-08T11:22:43Z</time>
      </trkpt>
      <trkpt lat="44.86502" lon="2.7662">
        <ele>664.41</ele>
        <time>2019-07-08T11:22:51Z</time>
      </trkpt>
      <trkpt lat="44.86503" lon="2.7662">
        <ele>664.89</ele>
        <time>2019-07-08T11:22:52Z</time>
      </trkpt>
      <trkpt lat="44.86515" lon="2.76621">
        <ele>664.89</ele>
        <time>2019-07-08T11:23:04Z</time>
      </trkpt>
      <trkpt lat="44.86533" lon="2.76616">
        <ele>665.85</ele>
        <time>2019-07-08T11:23:17Z</time>
      </trkpt>
      <trkpt lat="44.86546" lon="2.76609">
        <ele>666.81</ele>
        <time>2019-07-08T11:23:30Z</time>
      </trkpt>
      <trkpt lat="44.86561" lon="2.76603">
        <ele>666.33</ele>
        <time>2019-07-08T11:23:43Z</time>
      </trkpt>
      <trkpt lat="44.86564" lon="2.76602">
        <ele>666.33</ele>
        <time>2019-07-08T11:23:46Z</time>
      </trkpt>
      <trkpt lat="44.86578" lon="2.76596">
        <ele>666.33</ele>
        <time>2019-07-08T11:23:59Z</time>
      </trkpt>
      <trkpt lat="44.86578" lon="2.76595">
        <ele>666.33</ele>
        <time>2019-07-08T11:24:00Z</time>
      </trkpt>
      <trkpt lat="44.86582" lon="2.76591">
        <ele>666.33</ele>
        <time>2019-07-08T11:24:06Z</time>
      </trkpt>
      <trkpt lat="44.8659" lon="2.76591">
        <ele>666.33</ele>
        <time>2019-07-08T11:24:18Z</time>
      </trkpt>
      <trkpt lat="44.86594" lon="2.76595">
        <ele>666.33</ele>
        <time>2019-07-08T11:24:24Z</time>
      </trkpt>
      <trkpt lat="44.86608" lon="2.76606">
        <ele>666.81</ele>
        <time>2019-07-08T11:24:37Z</time>
      </trkpt>
      <trkpt lat="44.86618" lon="2.76614">
        <ele>667.29</ele>
        <time>2019-07-08T11:24:50Z</time>
      </trkpt>
      <trkpt lat="44.86622" lon="2.76614">
        <ele>667.29</ele>
        <time>2019-07-08T11:24:55Z</time>
      </trkpt>
      <trkpt lat="44.86625" lon="2.76615">
        <ele>667.29</ele>
        <time>2019-07-08T11:24:58Z</time>
      </trkpt>
      <trkpt lat="44.86639" lon="2.76616">
        <ele>667.77</ele>
        <time>2019-07-08T11:25:13Z</time>
      </trkpt>
      <trkpt lat="44.86641" lon="2.76616">
        <ele>667.77</ele>
        <time>2019-07-08T11:25:15Z</time>
      </trkpt>
      <trkpt lat="44.86651" lon="2.76612">
        <ele>668.25</ele>
        <time>2019-07-08T11:25:29Z</time>
      </trkpt>
      <trkpt lat="44.86662" lon="2.76606">
        <ele>669.22</ele>
        <time>2019-07-08T11:25:40Z</time>
      </trkpt>
      <trkpt lat="44.86665" lon="2.76602">
        <ele>669.22</ele>
        <time>2019-07-08T11:25:46Z</time>
      </trkpt>
      <trkpt lat="44.86677" lon="2.76597">
        <ele>670.18</ele>
        <time>2019-07-08T11:26:00Z</time>
      </trkpt>
      <trkpt lat="44.86686" lon="2.7659">
        <ele>670.66</ele>
        <time>2019-07-08T11:26:12Z</time>
      </trkpt>
      <trkpt lat="44.86696" lon="2.76587">
        <ele>672.1</ele>
        <time>2019-07-08T11:26:25Z</time>
      </trkpt>
      <trkpt lat="44.86703" lon="2.76588">
        <ele>671.62</ele>
        <time>2019-07-08T11:26:39Z</time>
      </trkpt>
      <trkpt lat="44.86721" lon="2.76586">
        <ele>673.54</ele>
        <time>2019-07-08T11:26:52Z</time>
      </trkpt>
      <trkpt lat="44.86739" lon="2.76578">
        <ele>674.98</ele>
        <time>2019-07-08T11:27:06Z</time>
      </trkpt>
      <trkpt lat="44.86746" lon="2.76571">
        <ele>675.46</ele>
        <time>2019-07-08T11:27:20Z</time>
      </trkpt>
      <trkpt lat="44.8675" lon="2.76564">
        <ele>676.42</ele>
        <time>2019-07-08T11:27:28Z</time>
      </trkpt>
      <trkpt lat="44.86757" lon="2.76546">
        <ele>677.39</ele>
        <time>2019-07-08T11:27:41Z</time>
      </trkpt>
      <trkpt lat="44.86765" lon="2.76539">
        <ele>677.87</ele>
        <time>2019-07-08T11:27:51Z</time>
      </trkpt>
      <trkpt lat="44.86767" lon="2.76531">
        <ele>679.31</ele>
        <time>2019-07-08T11:27:57Z</time>
      </trkpt>
      <trkpt lat="44.86774" lon="2.76523">
        <ele>679.79</ele>
        <time>2019-07-08T11:28:08Z</time>
      </trkpt>
      <trkpt lat="44.86784" lon="2.76515">
        <ele>680.75</ele>
        <time>2019-07-08T11:28:20Z</time>
      </trkpt>
      <trkpt lat="44.86793" lon="2.76505">
        <ele>681.71</ele>
        <time>2019-07-08T11:28:33Z</time>
      </trkpt>
      <trkpt lat="44.86803" lon="2.76496">
        <ele>683.15</ele>
        <time>2019-07-08T11:28:47Z</time>
      </trkpt>
      <trkpt lat="44.86808" lon="2.76485">
        <ele>683.63</ele>
        <time>2019-07-08T11:28:58Z</time>
      </trkpt>
      <trkpt lat="44.86814" lon="2.76476">
        <ele>684.6</ele>
        <time>2019-07-08T11:29:07Z</time>
      </trkpt>
      <trkpt lat="44.86815" lon="2.76461">
        <ele>685.56</ele>
        <time>2019-07-08T11:29:19Z</time>
      </trkpt>
      <trkpt lat="44.86816" lon="2.7646">
        <ele>685.56</ele>
        <time>2019-07-08T11:29:20Z</time>
      </trkpt>
      <trkpt lat="44.86826" lon="2.76449">
        <ele>686.52</ele>
        <time>2019-07-08T11:29:33Z</time>
      </trkpt>
      <trkpt lat="44.86836" lon="2.76439">
        <ele>687.48</ele>
        <time>2019-07-08T11:29:46Z</time>
      </trkpt>
      <trkpt lat="44.8685" lon="2.76434">
        <ele>688.44</ele>
        <time>2019-07-08T11:29:58Z</time>
      </trkpt>
      <trkpt lat="44.8686" lon="2.76425">
        <ele>689.88</ele>
        <time>2019-07-08T11:30:13Z</time>
      </trkpt>
      <trkpt lat="44.86876" lon="2.76412">
        <ele>690.84</ele>
        <time>2019-07-08T11:30:29Z</time>
      </trkpt>
      <trkpt lat="44.86877" lon="2.76411">
        <ele>690.36</ele>
        <time>2019-07-08T11:30:30Z</time>
      </trkpt>
      <trkpt lat="44.86888" lon="2.76401">
        <ele>691.81</ele>
        <time>2019-07-08T11:30:43Z</time>
      </trkpt>
      <trkpt lat="44.86889" lon="2.76401">
        <ele>691.33</ele>
        <time>2019-07-08T11:30:44Z</time>
      </trkpt>
      <trkpt lat="44.86896" lon="2.76405">
        <ele>691.81</ele>
        <time>2019-07-08T11:30:55Z</time>
      </trkpt>
      <trkpt lat="44.869" lon="2.7641">
        <ele>691.81</ele>
        <time>2019-07-08T11:31:00Z</time>
      </trkpt>
      <trkpt lat="44.86901" lon="2.76432">
        <ele>692.77</ele>
        <time>2019-07-08T11:31:15Z</time>
      </trkpt>
      <trkpt lat="44.86897" lon="2.76441">
        <ele>692.77</ele>
        <time>2019-07-08T11:31:31Z</time>
      </trkpt>
      <trkpt lat="44.86897" lon="2.7644">
        <ele>693.73</ele>
        <time>2019-07-08T11:32:24Z</time>
      </trkpt>
      <trkpt lat="44.86897" lon="2.76439">
        <ele>693.73</ele>
        <time>2019-07-08T11:33:16Z</time>
      </trkpt>
      <trkpt lat="44.86897" lon="2.7644">
        <ele>693.73</ele>
        <time>2019-07-08T11:33:57Z</time>
      </trkpt>
      <trkpt lat="44.86898" lon="2.7644">
        <ele>694.21</ele>
        <time>2019-07-08T11:34:46Z</time>
      </trkpt>
      <trkpt lat="44.86896" lon="2.76443">
        <ele>694.21</ele>
        <time>2019-07-08T11:35:03Z</time>
      </trkpt>
      <trkpt lat="44.86888" lon="2.76457">
        <ele>694.21</ele>
        <time>2019-07-08T11:35:27Z</time>
      </trkpt>
      <trkpt lat="44.86881" lon="2.76471">
        <ele>694.21</ele>
        <time>2019-07-08T11:35:39Z</time>
      </trkpt>
      <trkpt lat="44.86875" lon="2.76487">
        <ele>694.69</ele>
        <time>2019-07-08T11:35:52Z</time>
      </trkpt>
      <trkpt lat="44.86875" lon="2.76493">
        <ele>694.21</ele>
        <time>2019-07-08T11:35:56Z</time>
      </trkpt>
      <trkpt lat="44.86879" lon="2.76516">
        <ele>694.69</ele>
        <time>2019-07-08T11:36:11Z</time>
      </trkpt>
      <trkpt lat="44.86882" lon="2.76538">
        <ele>695.65</ele>
        <time>2019-07-08T11:36:25Z</time>
      </trkpt>
      <trkpt lat="44.8688" lon="2.76547">
        <ele>695.65</ele>
        <time>2019-07-08T11:36:32Z</time>
      </trkpt>
      <trkpt lat="44.8688" lon="2.7655">
        <ele>695.65</ele>
        <time>2019-07-08T11:36:34Z</time>
      </trkpt>
      <trkpt lat="44.86876" lon="2.7656">
        <ele>696.13</ele>
        <time>2019-07-08T11:36:42Z</time>
      </trkpt>
      <trkpt lat="44.86874" lon="2.76563">
        <ele>696.13</ele>
        <time>2019-07-08T11:36:44Z</time>
      </trkpt>
      <trkpt lat="44.86873" lon="2.76566">
        <ele>695.65</ele>
        <time>2019-07-08T11:36:46Z</time>
      </trkpt>
      <trkpt lat="44.8687" lon="2.7657">
        <ele>696.13</ele>
        <time>2019-07-08T11:36:49Z</time>
      </trkpt>
      <trkpt lat="44.86869" lon="2.7659">
        <ele>696.13</ele>
        <time>2019-07-08T11:37:03Z</time>
      </trkpt>
      <trkpt lat="44.86877" lon="2.7661">
        <ele>697.09</ele>
        <time>2019-07-08T11:37:19Z</time>
      </trkpt>
      <trkpt lat="44.86886" lon="2.76625">
        <ele>697.09</ele>
        <time>2019-07-08T11:37:33Z</time>
      </trkpt>
      <trkpt lat="44.86897" lon="2.76635">
        <ele>697.09</ele>
        <time>2019-07-08T11:37:46Z</time>
      </trkpt>
      <trkpt lat="44.8691" lon="2.76645">
        <ele>697.09</ele>
        <time>2019-07-08T11:37:59Z</time>
      </trkpt>
      <trkpt lat="44.86923" lon="2.76653">
        <ele>697.09</ele>
        <time>2019-07-08T11:38:11Z</time>
      </trkpt>
      <trkpt lat="44.86937" lon="2.76661">
        <ele>697.09</ele>
        <time>2019-07-08T11:38:25Z</time>
      </trkpt>
      <trkpt lat="44.8695" lon="2.76668">
        <ele>697.09</ele>
        <time>2019-07-08T11:38:39Z</time>
      </trkpt>
      <trkpt lat="44.86956" lon="2.76672">
        <ele>697.09</ele>
        <time>2019-07-08T11:38:45Z</time>
      </trkpt>
      <trkpt lat="44.86959" lon="2.76673">
        <ele>697.57</ele>
        <time>2019-07-08T11:38:47Z</time>
      </trkpt>
      <trkpt lat="44.86974" lon="2.76679">
        <ele>697.09</ele>
        <time>2019-07-08T11:39:00Z</time>
      </trkpt>
      <trkpt lat="44.86989" lon="2.7668">
        <ele>697.09</ele>
        <time>2019-07-08T11:39:14Z</time>
      </trkpt>
      <trkpt lat="44.86995" lon="2.76679">
        <ele>697.09</ele>
        <time>2019-07-08T11:39:20Z</time>
      </trkpt>
      <trkpt lat="44.86997" lon="2.76678">
        <ele>696.61</ele>
        <time>2019-07-08T11:39:22Z</time>
      </trkpt>
      <trkpt lat="44.87011" lon="2.76678">
        <ele>696.61</ele>
        <time>2019-07-08T11:39:36Z</time>
      </trkpt>
      <trkpt lat="44.87019" lon="2.76682">
        <ele>696.13</ele>
        <time>2019-07-08T11:39:44Z</time>
      </trkpt>
      <trkpt lat="44.87023" lon="2.76684">
        <ele>696.13</ele>
        <time>2019-07-08T11:39:48Z</time>
      </trkpt>
      <trkpt lat="44.87033" lon="2.76687">
        <ele>695.65</ele>
        <time>2019-07-08T11:39:56Z</time>
      </trkpt>
      <trkpt lat="44.87046" lon="2.76689">
        <ele>696.13</ele>
        <time>2019-07-08T11:40:08Z</time>
      </trkpt>
      <trkpt lat="44.87062" lon="2.76684">
        <ele>695.65</ele>
        <time>2019-07-08T11:40:22Z</time>
      </trkpt>
      <trkpt lat="44.87074" lon="2.76676">
        <ele>695.65</ele>
        <time>2019-07-08T11:40:34Z</time>
      </trkpt>
      <trkpt lat="44.87087" lon="2.7667">
        <ele>695.65</ele>
        <time>2019-07-08T11:40:46Z</time>
      </trkpt>
      <trkpt lat="44.87096" lon="2.76666">
        <ele>696.13</ele>
        <time>2019-07-08T11:40:56Z</time>
      </trkpt>
      <trkpt lat="44.87098" lon="2.76665">
        <ele>696.61</ele>
        <time>2019-07-08T11:40:58Z</time>
      </trkpt>
      <trkpt lat="44.87112" lon="2.76662">
        <ele>696.61</ele>
        <time>2019-07-08T11:41:10Z</time>
      </trkpt>
      <trkpt lat="44.87126" lon="2.76661">
        <ele>696.61</ele>
        <time>2019-07-08T11:41:23Z</time>
      </trkpt>
      <trkpt lat="44.87133" lon="2.76664">
        <ele>696.13</ele>
        <time>2019-07-08T11:41:30Z</time>
      </trkpt>
      <trkpt lat="44.87136" lon="2.76669">
        <ele>696.61</ele>
        <time>2019-07-08T11:41:34Z</time>
      </trkpt>
      <trkpt lat="44.87143" lon="2.76688">
        <ele>695.65</ele>
        <time>2019-07-08T11:41:48Z</time>
      </trkpt>
      <trkpt lat="44.87146" lon="2.76706">
        <ele>695.17</ele>
        <time>2019-07-08T11:42:01Z</time>
      </trkpt>
      <trkpt lat="44.87146" lon="2.76717">
        <ele>695.17</ele>
        <time>2019-07-08T11:42:08Z</time>
      </trkpt>
      <trkpt lat="44.87147" lon="2.76721">
        <ele>694.69</ele>
        <time>2019-07-08T11:42:11Z</time>
      </trkpt>
      <trkpt lat="44.87148" lon="2.76745">
        <ele>694.21</ele>
        <time>2019-07-08T11:42:25Z</time>
      </trkpt>
      <trkpt lat="44.8715" lon="2.76757">
        <ele>694.21</ele>
        <time>2019-07-08T11:42:32Z</time>
      </trkpt>
      <trkpt lat="44.87151" lon="2.7676">
        <ele>694.69</ele>
        <time>2019-07-08T11:42:34Z</time>
      </trkpt>
      <trkpt lat="44.87156" lon="2.76771">
        <ele>694.21</ele>
        <time>2019-07-08T11:42:43Z</time>
      </trkpt>
      <trkpt lat="44.87163" lon="2.76777">
        <ele>694.21</ele>
        <time>2019-07-08T11:42:52Z</time>
      </trkpt>
      <trkpt lat="44.87172" lon="2.76789">
        <ele>694.69</ele>
        <time>2019-07-08T11:43:05Z</time>
      </trkpt>
      <trkpt lat="44.87174" lon="2.76791">
        <ele>694.69</ele>
        <time>2019-07-08T11:43:07Z</time>
      </trkpt>
      <trkpt lat="44.87176" lon="2.76793">
        <ele>694.21</ele>
        <time>2019-07-08T11:43:09Z</time>
      </trkpt>
      <trkpt lat="44.87189" lon="2.76807">
        <ele>695.17</ele>
        <time>2019-07-08T11:43:23Z</time>
      </trkpt>
      <trkpt lat="44.87202" lon="2.76822">
        <ele>694.69</ele>
        <time>2019-07-08T11:43:35Z</time>
      </trkpt>
      <trkpt lat="44.87208" lon="2.76835">
        <ele>694.69</ele>
        <time>2019-07-08T11:43:45Z</time>
      </trkpt>
      <trkpt lat="44.87217" lon="2.76853">
        <ele>694.21</ele>
        <time>2019-07-08T11:44:00Z</time>
      </trkpt>
      <trkpt lat="44.87222" lon="2.76859">
        <ele>693.73</ele>
        <time>2019-07-08T11:44:08Z</time>
      </trkpt>
      <trkpt lat="44.87227" lon="2.76858">
        <ele>692.77</ele>
        <time>2019-07-08T11:44:14Z</time>
      </trkpt>
      <trkpt lat="44.87233" lon="2.76856">
        <ele>692.77</ele>
        <time>2019-07-08T11:44:20Z</time>
      </trkpt>
      <trkpt lat="44.87238" lon="2.76852">
        <ele>692.77</ele>
        <time>2019-07-08T11:44:26Z</time>
      </trkpt>
      <trkpt lat="44.87251" lon="2.76843">
        <ele>691.81</ele>
        <time>2019-07-08T11:44:41Z</time>
      </trkpt>
      <trkpt lat="44.87265" lon="2.76838">
        <ele>690.36</ele>
        <time>2019-07-08T11:44:56Z</time>
      </trkpt>
      <trkpt lat="44.87284" lon="2.76837">
        <ele>688.92</ele>
        <time>2019-07-08T11:45:12Z</time>
      </trkpt>
      <trkpt lat="44.87296" lon="2.76845">
        <ele>688.44</ele>
        <time>2019-07-08T11:45:23Z</time>
      </trkpt>
      <trkpt lat="44.87297" lon="2.76844">
        <ele>688.44</ele>
        <time>2019-07-08T11:45:24Z</time>
      </trkpt>
      <trkpt lat="44.87307" lon="2.7685">
        <ele>687.96</ele>
        <time>2019-07-08T11:45:37Z</time>
      </trkpt>
      <trkpt lat="44.8732" lon="2.76852">
        <ele>687</ele>
        <time>2019-07-08T11:45:49Z</time>
      </trkpt>
      <trkpt lat="44.87331" lon="2.76857">
        <ele>686.04</ele>
        <time>2019-07-08T11:46:00Z</time>
      </trkpt>
      <trkpt lat="44.87341" lon="2.76857">
        <ele>685.56</ele>
        <time>2019-07-08T11:46:11Z</time>
      </trkpt>
      <trkpt lat="44.87343" lon="2.76856">
        <ele>685.08</ele>
        <time>2019-07-08T11:46:13Z</time>
      </trkpt>
      <trkpt lat="44.87351" lon="2.76843">
        <ele>683.63</ele>
        <time>2019-07-08T11:46:26Z</time>
      </trkpt>
      <trkpt lat="44.87352" lon="2.76839">
        <ele>683.63</ele>
        <time>2019-07-08T11:46:29Z</time>
      </trkpt>
      <trkpt lat="44.87352" lon="2.76831">
        <ele>683.15</ele>
        <time>2019-07-08T11:46:34Z</time>
      </trkpt>
      <trkpt lat="44.87364" lon="2.76815">
        <ele>681.23</ele>
        <time>2019-07-08T11:46:50Z</time>
      </trkpt>
      <trkpt lat="44.87368" lon="2.76811">
        <ele>680.75</ele>
        <time>2019-07-08T11:46:57Z</time>
      </trkpt>
      <trkpt lat="44.87384" lon="2.76805">
        <ele>679.79</ele>
        <time>2019-07-08T11:47:13Z</time>
      </trkpt>
      <trkpt lat="44.87386" lon="2.76803">
        <ele>679.31</ele>
        <time>2019-07-08T11:47:17Z</time>
      </trkpt>
      <trkpt lat="44.87399" lon="2.76794">
        <ele>679.79</ele>
        <time>2019-07-08T11:47:30Z</time>
      </trkpt>
      <trkpt lat="44.87406" lon="2.76786">
        <ele>681.71</ele>
        <time>2019-07-08T11:47:42Z</time>
      </trkpt>
      <trkpt lat="44.87412" lon="2.76782">
        <ele>681.71</ele>
        <time>2019-07-08T11:47:48Z</time>
      </trkpt>
      <trkpt lat="44.87413" lon="2.76781">
        <ele>681.71</ele>
        <time>2019-07-08T11:47:50Z</time>
      </trkpt>
      <trkpt lat="44.87426" lon="2.76773">
        <ele>683.15</ele>
        <time>2019-07-08T11:48:04Z</time>
      </trkpt>
      <trkpt lat="44.87435" lon="2.76765">
        <ele>685.08</ele>
        <time>2019-07-08T11:48:16Z</time>
      </trkpt>
      <trkpt lat="44.87446" lon="2.76756">
        <ele>686.52</ele>
        <time>2019-07-08T11:48:29Z</time>
      </trkpt>
      <trkpt lat="44.8745" lon="2.76753">
        <ele>687</ele>
        <time>2019-07-08T11:48:35Z</time>
      </trkpt>
      <trkpt lat="44.87453" lon="2.76752">
        <ele>687.96</ele>
        <time>2019-07-08T11:48:39Z</time>
      </trkpt>
      <trkpt lat="44.87463" lon="2.76741">
        <ele>688.92</ele>
        <time>2019-07-08T11:48:53Z</time>
      </trkpt>
      <trkpt lat="44.87471" lon="2.76731">
        <ele>690.36</ele>
        <time>2019-07-08T11:49:05Z</time>
      </trkpt>
      <trkpt lat="44.8748" lon="2.76723">
        <ele>691.33</ele>
        <time>2019-07-08T11:49:18Z</time>
      </trkpt>
      <trkpt lat="44.87483" lon="2.76718">
        <ele>692.29</ele>
        <time>2019-07-08T11:49:29Z</time>
      </trkpt>
      <trkpt lat="44.87493" lon="2.76711">
        <ele>693.73</ele>
        <time>2019-07-08T11:49:43Z</time>
      </trkpt>
      <trkpt lat="44.87502" lon="2.76705">
        <ele>695.17</ele>
        <time>2019-07-08T11:49:54Z</time>
      </trkpt>
      <trkpt lat="44.87512" lon="2.76699">
        <ele>696.61</ele>
        <time>2019-07-08T11:50:07Z</time>
      </trkpt>
      <trkpt lat="44.87519" lon="2.76696">
        <ele>697.57</ele>
        <time>2019-07-08T11:50:18Z</time>
      </trkpt>
      <trkpt lat="44.87528" lon="2.76687">
        <ele>699.98</ele>
        <time>2019-07-08T11:50:33Z</time>
      </trkpt>
      <trkpt lat="44.87532" lon="2.76687">
        <ele>700.46</ele>
        <time>2019-07-08T11:50:45Z</time>
      </trkpt>
      <trkpt lat="44.87532" lon="2.76691">
        <ele>700.46</ele>
        <time>2019-07-08T11:51:12Z</time>
      </trkpt>
      <trkpt lat="44.87532" lon="2.76691">
        <ele>699.5</ele>
        <time>2019-07-08T11:52:05Z</time>
      </trkpt>
      <trkpt lat="44.87531" lon="2.76691">
        <ele>700.94</ele>
        <time>2019-07-08T11:53:45Z</time>
      </trkpt>
      <trkpt lat="44.87531" lon="2.76693">
        <ele>701.9</ele>
        <time>2019-07-08T11:55:56Z</time>
      </trkpt>
      <trkpt lat="44.87521" lon="2.76701">
        <ele>700.94</ele>
        <time>2019-07-08T11:56:20Z</time>
      </trkpt>
      <trkpt lat="44.87519" lon="2.76702">
        <ele>700.94</ele>
        <time>2019-07-08T11:56:38Z</time>
      </trkpt>
      <trkpt lat="44.87521" lon="2.76699">
        <ele>700.94</ele>
        <time>2019-07-08T11:57:10Z</time>
      </trkpt>
      <trkpt lat="44.87529" lon="2.76686">
        <ele>702.38</ele>
        <time>2019-07-08T11:57:25Z</time>
      </trkpt>
      <trkpt lat="44.87538" lon="2.76679">
        <ele>703.34</ele>
        <time>2019-07-08T11:57:40Z</time>
      </trkpt>
      <trkpt lat="44.87547" lon="2.7668">
        <ele>703.82</ele>
        <time>2019-07-08T11:57:51Z</time>
      </trkpt>
      <trkpt lat="44.87557" lon="2.76688">
        <ele>704.78</ele>
        <time>2019-07-08T11:58:04Z</time>
      </trkpt>
      <trkpt lat="44.87561" lon="2.76696">
        <ele>705.26</ele>
        <time>2019-07-08T11:58:10Z</time>
      </trkpt>
      <trkpt lat="44.87561" lon="2.76714">
        <ele>705.75</ele>
        <time>2019-07-08T11:58:25Z</time>
      </trkpt>
      <trkpt lat="44.87559" lon="2.76729">
        <ele>706.23</ele>
        <time>2019-07-08T11:58:39Z</time>
      </trkpt>
      <trkpt lat="44.87555" lon="2.76745">
        <ele>706.23</ele>
        <time>2019-07-08T11:58:53Z</time>
      </trkpt>
      <trkpt lat="44.87549" lon="2.76756">
        <ele>706.23</ele>
        <time>2019-07-08T11:59:05Z</time>
      </trkpt>
      <trkpt lat="44.87547" lon="2.76766">
        <ele>707.19</ele>
        <time>2019-07-08T11:59:15Z</time>
      </trkpt>
      <trkpt lat="44.87548" lon="2.76774">
        <ele>707.19</ele>
        <time>2019-07-08T11:59:21Z</time>
      </trkpt>
      <trkpt lat="44.87557" lon="2.76789">
        <ele>707.67</ele>
        <time>2019-07-08T11:59:35Z</time>
      </trkpt>
      <trkpt lat="44.87564" lon="2.76801">
        <ele>707.67</ele>
        <time>2019-07-08T11:59:48Z</time>
      </trkpt>
      <trkpt lat="44.87572" lon="2.76813">
        <ele>708.63</ele>
        <time>2019-07-08T12:00:02Z</time>
      </trkpt>
      <trkpt lat="44.87587" lon="2.76823">
        <ele>709.11</ele>
        <time>2019-07-08T12:00:19Z</time>
      </trkpt>
      <trkpt lat="44.87597" lon="2.76836">
        <ele>709.11</ele>
        <time>2019-07-08T12:00:33Z</time>
      </trkpt>
      <trkpt lat="44.87606" lon="2.76851">
        <ele>709.59</ele>
        <time>2019-07-08T12:00:46Z</time>
      </trkpt>
      <trkpt lat="44.87608" lon="2.76855">
        <ele>709.59</ele>
        <time>2019-07-08T12:00:49Z</time>
      </trkpt>
      <trkpt lat="44.87614" lon="2.7687">
        <ele>710.07</ele>
        <time>2019-07-08T12:01:02Z</time>
      </trkpt>
      <trkpt lat="44.87623" lon="2.76888">
        <ele>710.55</ele>
        <time>2019-07-08T12:01:17Z</time>
      </trkpt>
      <trkpt lat="44.87633" lon="2.76896">
        <ele>710.55</ele>
        <time>2019-07-08T12:01:31Z</time>
      </trkpt>
      <trkpt lat="44.87643" lon="2.76907">
        <ele>710.55</ele>
        <time>2019-07-08T12:01:45Z</time>
      </trkpt>
      <trkpt lat="44.87656" lon="2.76914">
        <ele>710.55</ele>
        <time>2019-07-08T12:02:00Z</time>
      </trkpt>
      <trkpt lat="44.87666" lon="2.76919">
        <ele>710.07</ele>
        <time>2019-07-08T12:02:13Z</time>
      </trkpt>
      <trkpt lat="44.87667" lon="2.76918">
        <ele>710.07</ele>
        <time>2019-07-08T12:02:15Z</time>
      </trkpt>
      <trkpt lat="44.87674" lon="2.7692">
        <ele>709.59</ele>
        <time>2019-07-08T12:02:22Z</time>
      </trkpt>
      <trkpt lat="44.87677" lon="2.76921">
        <ele>709.59</ele>
        <time>2019-07-08T12:02:25Z</time>
      </trkpt>
      <trkpt lat="44.87691" lon="2.7692">
        <ele>708.63</ele>
        <time>2019-07-08T12:02:41Z</time>
      </trkpt>
      <trkpt lat="44.87706" lon="2.76916">
        <ele>707.67</ele>
        <time>2019-07-08T12:02:55Z</time>
      </trkpt>
      <trkpt lat="44.87719" lon="2.76914">
        <ele>707.19</ele>
        <time>2019-07-08T12:03:10Z</time>
      </trkpt>
      <trkpt lat="44.87729" lon="2.76919">
        <ele>706.71</ele>
        <time>2019-07-08T12:03:23Z</time>
      </trkpt>
      <trkpt lat="44.87737" lon="2.7692">
        <ele>706.23</ele>
        <time>2019-07-08T12:03:36Z</time>
      </trkpt>
      <trkpt lat="44.87747" lon="2.76917">
        <ele>704.78</ele>
        <time>2019-07-08T12:03:48Z</time>
      </trkpt>
      <trkpt lat="44.87761" lon="2.76903">
        <ele>704.3</ele>
        <time>2019-07-08T12:04:03Z</time>
      </trkpt>
      <trkpt lat="44.87779" lon="2.76898">
        <ele>703.82</ele>
        <time>2019-07-08T12:04:18Z</time>
      </trkpt>
      <trkpt lat="44.87795" lon="2.76913">
        <ele>703.34</ele>
        <time>2019-07-08T12:04:31Z</time>
      </trkpt>
      <trkpt lat="44.87807" lon="2.76923">
        <ele>702.38</ele>
        <time>2019-07-08T12:04:44Z</time>
      </trkpt>
      <trkpt lat="44.87813" lon="2.76929">
        <ele>702.38</ele>
        <time>2019-07-08T12:04:54Z</time>
      </trkpt>
      <trkpt lat="44.87822" lon="2.76935">
        <ele>701.42</ele>
        <time>2019-07-08T12:05:05Z</time>
      </trkpt>
      <trkpt lat="44.87833" lon="2.76942">
        <ele>699.98</ele>
        <time>2019-07-08T12:05:19Z</time>
      </trkpt>
      <trkpt lat="44.87842" lon="2.76937">
        <ele>699.98</ele>
        <time>2019-07-08T12:05:33Z</time>
      </trkpt>
      <trkpt lat="44.87843" lon="2.76935">
        <ele>699.5</ele>
        <time>2019-07-08T12:05:35Z</time>
      </trkpt>
      <trkpt lat="44.87847" lon="2.76919">
        <ele>698.53</ele>
        <time>2019-07-08T12:05:49Z</time>
      </trkpt>
      <trkpt lat="44.8785" lon="2.76906">
        <ele>698.05</ele>
        <time>2019-07-08T12:06:00Z</time>
      </trkpt>
      <trkpt lat="44.87858" lon="2.76885">
        <ele>697.09</ele>
        <time>2019-07-08T12:06:17Z</time>
      </trkpt>
      <trkpt lat="44.87863" lon="2.76873">
        <ele>696.61</ele>
        <time>2019-07-08T12:06:27Z</time>
      </trkpt>
      <trkpt lat="44.87864" lon="2.7687">
        <ele>697.09</ele>
        <time>2019-07-08T12:06:30Z</time>
      </trkpt>
      <trkpt lat="44.87867" lon="2.7686">
        <ele>696.61</ele>
        <time>2019-07-08T12:06:38Z</time>
      </trkpt>
      <trkpt lat="44.87871" lon="2.76851">
        <ele>696.61</ele>
        <time>2019-07-08T12:06:45Z</time>
      </trkpt>
      <trkpt lat="44.87876" lon="2.76832">
        <ele>695.65</ele>
        <time>2019-07-08T12:07:00Z</time>
      </trkpt>
      <trkpt lat="44.87882" lon="2.7682">
        <ele>694.69</ele>
        <time>2019-07-08T12:07:12Z</time>
      </trkpt>
      <trkpt lat="44.87889" lon="2.76808">
        <ele>696.13</ele>
        <time>2019-07-08T12:07:23Z</time>
      </trkpt>
      <trkpt lat="44.87896" lon="2.7679">
        <ele>694.21</ele>
        <time>2019-07-08T12:07:37Z</time>
      </trkpt>
      <trkpt lat="44.87912" lon="2.76793">
        <ele>694.69</ele>
        <time>2019-07-08T12:07:50Z</time>
      </trkpt>
      <trkpt lat="44.87917" lon="2.76799">
        <ele>694.69</ele>
        <time>2019-07-08T12:07:54Z</time>
      </trkpt>
      <trkpt lat="44.87921" lon="2.76817">
        <ele>694.69</ele>
        <time>2019-07-08T12:08:07Z</time>
      </trkpt>
      <trkpt lat="44.87924" lon="2.76839">
        <ele>694.69</ele>
        <time>2019-07-08T12:08:22Z</time>
      </trkpt>
      <trkpt lat="44.87926" lon="2.76861">
        <ele>695.17</ele>
        <time>2019-07-08T12:08:37Z</time>
      </trkpt>
      <trkpt lat="44.87927" lon="2.76868">
        <ele>695.65</ele>
        <time>2019-07-08T12:08:42Z</time>
      </trkpt>
      <trkpt lat="44.87929" lon="2.76872">
        <ele>695.17</ele>
        <time>2019-07-08T12:08:45Z</time>
      </trkpt>
      <trkpt lat="44.87932" lon="2.76887">
        <ele>696.13</ele>
        <time>2019-07-08T12:08:56Z</time>
      </trkpt>
      <trkpt lat="44.87938" lon="2.76908">
        <ele>696.13</ele>
        <time>2019-07-08T12:09:12Z</time>
      </trkpt>
      <trkpt lat="44.87946" lon="2.76916">
        <ele>696.61</ele>
        <time>2019-07-08T12:09:21Z</time>
      </trkpt>
      <trkpt lat="44.87947" lon="2.76918">
        <ele>696.61</ele>
        <time>2019-07-08T12:09:23Z</time>
      </trkpt>
      <trkpt lat="44.87954" lon="2.76933">
        <ele>697.09</ele>
        <time>2019-07-08T12:09:35Z</time>
      </trkpt>
      <trkpt lat="44.87955" lon="2.76938">
        <ele>696.61</ele>
        <time>2019-07-08T12:09:39Z</time>
      </trkpt>
      <trkpt lat="44.87959" lon="2.76958">
        <ele>697.57</ele>
        <time>2019-07-08T12:09:53Z</time>
      </trkpt>
      <trkpt lat="44.87968" lon="2.76973">
        <ele>696.61</ele>
        <time>2019-07-08T12:10:09Z</time>
      </trkpt>
      <trkpt lat="44.87981" lon="2.76973">
        <ele>694.69</ele>
        <time>2019-07-08T12:10:24Z</time>
      </trkpt>
      <trkpt lat="44.87991" lon="2.76969">
        <ele>693.25</ele>
        <time>2019-07-08T12:10:37Z</time>
      </trkpt>
      <trkpt lat="44.88" lon="2.7697">
        <ele>691.81</ele>
        <time>2019-07-08T12:10:50Z</time>
      </trkpt>
      <trkpt lat="44.88007" lon="2.7697">
        <ele>690.36</ele>
        <time>2019-07-08T12:10:58Z</time>
      </trkpt>
      <trkpt lat="44.88017" lon="2.76968">
        <ele>689.4</ele>
        <time>2019-07-08T12:11:10Z</time>
      </trkpt>
      <trkpt lat="44.88019" lon="2.76968">
        <ele>688.92</ele>
        <time>2019-07-08T12:11:13Z</time>
      </trkpt>
      <trkpt lat="44.88032" lon="2.76969">
        <ele>687.48</ele>
        <time>2019-07-08T12:11:27Z</time>
      </trkpt>
      <trkpt lat="44.88044" lon="2.76969">
        <ele>686.04</ele>
        <time>2019-07-08T12:11:41Z</time>
      </trkpt>
      <trkpt lat="44.88056" lon="2.7697">
        <ele>684.6</ele>
        <time>2019-07-08T12:11:54Z</time>
      </trkpt>
      <trkpt lat="44.88061" lon="2.76972">
        <ele>683.63</ele>
        <time>2019-07-08T12:12:05Z</time>
      </trkpt>
      <trkpt lat="44.88072" lon="2.76974">
        <ele>682.67</ele>
        <time>2019-07-08T12:12:16Z</time>
      </trkpt>
      <trkpt lat="44.88078" lon="2.76974">
        <ele>682.19</ele>
        <time>2019-07-08T12:12:21Z</time>
      </trkpt>
      <trkpt lat="44.88082" lon="2.76974">
        <ele>681.23</ele>
        <time>2019-07-08T12:12:25Z</time>
      </trkpt>
      <trkpt lat="44.88096" lon="2.76971">
        <ele>680.75</ele>
        <time>2019-07-08T12:12:39Z</time>
      </trkpt>
      <trkpt lat="44.88107" lon="2.76977">
        <ele>678.83</ele>
        <time>2019-07-08T12:12:52Z</time>
      </trkpt>
      <trkpt lat="44.88119" lon="2.76975">
        <ele>677.39</ele>
        <time>2019-07-08T12:13:06Z</time>
      </trkpt>
      <trkpt lat="44.88136" lon="2.7698">
        <ele>676.42</ele>
        <time>2019-07-08T12:13:20Z</time>
      </trkpt>
      <trkpt lat="44.88142" lon="2.76984">
        <ele>675.46</ele>
        <time>2019-07-08T12:13:27Z</time>
      </trkpt>
      <trkpt lat="44.88146" lon="2.77004">
        <ele>675.94</ele>
        <time>2019-07-08T12:13:41Z</time>
      </trkpt>
      <trkpt lat="44.88142" lon="2.77014">
        <ele>675.94</ele>
        <time>2019-07-08T12:13:49Z</time>
      </trkpt>
      <trkpt lat="44.88141" lon="2.77017">
        <ele>675.94</ele>
        <time>2019-07-08T12:13:51Z</time>
      </trkpt>
      <trkpt lat="44.88135" lon="2.77028">
        <ele>676.42</ele>
        <time>2019-07-08T12:14:02Z</time>
      </trkpt>
      <trkpt lat="44.88133" lon="2.77034">
        <ele>676.42</ele>
        <time>2019-07-08T12:14:07Z</time>
      </trkpt>
      <trkpt lat="44.88125" lon="2.7704">
        <ele>678.35</ele>
        <time>2019-07-08T12:14:20Z</time>
      </trkpt>
      <trkpt lat="44.88117" lon="2.77047">
        <ele>679.31</ele>
        <time>2019-07-08T12:14:32Z</time>
      </trkpt>
      <trkpt lat="44.88107" lon="2.77056">
        <ele>680.27</ele>
        <time>2019-07-08T12:14:43Z</time>
      </trkpt>
      <trkpt lat="44.88098" lon="2.77063">
        <ele>681.23</ele>
        <time>2019-07-08T12:14:54Z</time>
      </trkpt>
      <trkpt lat="44.8809" lon="2.77068">
        <ele>682.19</ele>
        <time>2019-07-08T12:15:06Z</time>
      </trkpt>
      <trkpt lat="44.88082" lon="2.77077">
        <ele>683.15</ele>
        <time>2019-07-08T12:15:18Z</time>
      </trkpt>
      <trkpt lat="44.88077" lon="2.77087">
        <ele>684.6</ele>
        <time>2019-07-08T12:15:29Z</time>
      </trkpt>
      <trkpt lat="44.88081" lon="2.77095">
        <ele>686.04</ele>
        <time>2019-07-08T12:15:40Z</time>
      </trkpt>
      <trkpt lat="44.88083" lon="2.77097">
        <ele>687</ele>
        <time>2019-07-08T12:15:53Z</time>
      </trkpt>
      <trkpt lat="44.88088" lon="2.77101">
        <ele>688.92</ele>
        <time>2019-07-08T12:16:04Z</time>
      </trkpt>
      <trkpt lat="44.88096" lon="2.77109">
        <ele>689.88</ele>
        <time>2019-07-08T12:16:15Z</time>
      </trkpt>
      <trkpt lat="44.88104" lon="2.77121">
        <ele>691.33</ele>
        <time>2019-07-08T12:16:27Z</time>
      </trkpt>
      <trkpt lat="44.88108" lon="2.77133">
        <ele>692.29</ele>
        <time>2019-07-08T12:16:40Z</time>
      </trkpt>
      <trkpt lat="44.88113" lon="2.77145">
        <ele>693.73</ele>
        <time>2019-07-08T12:16:53Z</time>
      </trkpt>
      <trkpt lat="44.88116" lon="2.77156">
        <ele>694.69</ele>
        <time>2019-07-08T12:17:05Z</time>
      </trkpt>
      <trkpt lat="44.88116" lon="2.77164">
        <ele>695.65</ele>
        <time>2019-07-08T12:17:19Z</time>
      </trkpt>
      <trkpt lat="44.88119" lon="2.77177">
        <ele>695.65</ele>
        <time>2019-07-08T12:17:31Z</time>
      </trkpt>
      <trkpt lat="44.88119" lon="2.77178">
        <ele>696.13</ele>
        <time>2019-07-08T12:17:57Z</time>
      </trkpt>
      <trkpt lat="44.88119" lon="2.77179">
        <ele>696.61</ele>
        <time>2019-07-08T12:18:47Z</time>
      </trkpt>
      <trkpt lat="44.88117" lon="2.7718">
        <ele>696.61</ele>
        <time>2019-07-08T12:20:46Z</time>
      </trkpt>
      <trkpt lat="44.88111" lon="2.7717">
        <ele>695.65</ele>
        <time>2019-07-08T12:21:52Z</time>
      </trkpt>
      <trkpt lat="44.88105" lon="2.77157">
        <ele>694.69</ele>
        <time>2019-07-08T12:22:03Z</time>
      </trkpt>
      <trkpt lat="44.88098" lon="2.77141">
        <ele>693.25</ele>
        <time>2019-07-08T12:22:19Z</time>
      </trkpt>
      <trkpt lat="44.88096" lon="2.7713">
        <ele>692.29</ele>
        <time>2019-07-08T12:22:33Z</time>
      </trkpt>
      <trkpt lat="44.88097" lon="2.77129">
        <ele>692.77</ele>
        <time>2019-07-08T12:24:18Z</time>
      </trkpt>
      <trkpt lat="44.88097" lon="2.77132">
        <ele>693.25</ele>
        <time>2019-07-08T12:24:44Z</time>
      </trkpt>
      <trkpt lat="44.88103" lon="2.77136">
        <ele>693.73</ele>
        <time>2019-07-08T12:25:50Z</time>
      </trkpt>
      <trkpt lat="44.88111" lon="2.77149">
        <ele>694.69</ele>
        <time>2019-07-08T12:26:02Z</time>
      </trkpt>
      <trkpt lat="44.88111" lon="2.77153">
        <ele>695.17</ele>
        <time>2019-07-08T12:26:07Z</time>
      </trkpt>
      <trkpt lat="44.88116" lon="2.77169">
        <ele>697.09</ele>
        <time>2019-07-08T12:26:21Z</time>
      </trkpt>
      <trkpt lat="44.88117" lon="2.77176">
        <ele>697.57</ele>
        <time>2019-07-08T12:26:27Z</time>
      </trkpt>
      <trkpt lat="44.88117" lon="2.77179">
        <ele>698.05</ele>
        <time>2019-07-08T12:26:29Z</time>
      </trkpt>
      <trkpt lat="44.88119" lon="2.77186">
        <ele>698.53</ele>
        <time>2019-07-08T12:26:35Z</time>
      </trkpt>
      <trkpt lat="44.88119" lon="2.77202">
        <ele>699.98</ele>
        <time>2019-07-08T12:26:48Z</time>
      </trkpt>
      <trkpt lat="44.88119" lon="2.77216">
        <ele>700.46</ele>
        <time>2019-07-08T12:27:00Z</time>
      </trkpt>
      <trkpt lat="44.88119" lon="2.77218">
        <ele>699.98</ele>
        <time>2019-07-08T12:27:01Z</time>
      </trkpt>
      <trkpt lat="44.88117" lon="2.77237">
        <ele>701.42</ele>
        <time>2019-07-08T12:27:15Z</time>
      </trkpt>
      <trkpt lat="44.88117" lon="2.77256">
        <ele>702.86</ele>
        <time>2019-07-08T12:27:28Z</time>
      </trkpt>
      <trkpt lat="44.88117" lon="2.77258">
        <ele>702.86</ele>
        <time>2019-07-08T12:27:29Z</time>
      </trkpt>
      <trkpt lat="44.88117" lon="2.7726">
        <ele>702.86</ele>
        <time>2019-07-08T12:27:31Z</time>
      </trkpt>
      <trkpt lat="44.88117" lon="2.77264">
        <ele>703.82</ele>
        <time>2019-07-08T12:27:34Z</time>
      </trkpt>
      <trkpt lat="44.88117" lon="2.77279">
        <ele>704.3</ele>
        <time>2019-07-08T12:27:44Z</time>
      </trkpt>
      <trkpt lat="44.88117" lon="2.77282">
        <ele>704.3</ele>
        <time>2019-07-08T12:27:46Z</time>
      </trkpt>
      <trkpt lat="44.88119" lon="2.773">
        <ele>706.23</ele>
        <time>2019-07-08T12:27:59Z</time>
      </trkpt>
      <trkpt lat="44.88119" lon="2.77301">
        <ele>706.23</ele>
        <time>2019-07-08T12:28:00Z</time>
      </trkpt>
      <trkpt lat="44.88121" lon="2.77317">
        <ele>707.67</ele>
        <time>2019-07-08T12:28:13Z</time>
      </trkpt>
      <trkpt lat="44.88125" lon="2.77324">
        <ele>708.63</ele>
        <time>2019-07-08T12:28:26Z</time>
      </trkpt>
      <trkpt lat="44.88131" lon="2.77324">
        <ele>709.59</ele>
        <time>2019-07-08T12:28:44Z</time>
      </trkpt>
      <trkpt lat="44.88141" lon="2.77324">
        <ele>711.03</ele>
        <time>2019-07-08T12:28:57Z</time>
      </trkpt>
      <trkpt lat="44.88143" lon="2.77322">
        <ele>711.03</ele>
        <time>2019-07-08T12:29:01Z</time>
      </trkpt>
      <trkpt lat="44.88149" lon="2.77318">
        <ele>711.99</ele>
        <time>2019-07-08T12:29:08Z</time>
      </trkpt>
      <trkpt lat="44.88157" lon="2.77314">
        <ele>712.47</ele>
        <time>2019-07-08T12:29:19Z</time>
      </trkpt>
      <trkpt lat="44.88167" lon="2.7731">
        <ele>713.92</ele>
        <time>2019-07-08T12:29:31Z</time>
      </trkpt>
      <trkpt lat="44.88174" lon="2.77309">
        <ele>714.88</ele>
        <time>2019-07-08T12:29:43Z</time>
      </trkpt>
      <trkpt lat="44.88184" lon="2.77309">
        <ele>716.8</ele>
        <time>2019-07-08T12:29:57Z</time>
      </trkpt>
      <trkpt lat="44.88197" lon="2.77311">
        <ele>717.28</ele>
        <time>2019-07-08T12:30:09Z</time>
      </trkpt>
      <trkpt lat="44.88207" lon="2.77313">
        <ele>717.76</ele>
        <time>2019-07-08T12:30:20Z</time>
      </trkpt>
      <trkpt lat="44.88219" lon="2.77313">
        <ele>718.72</ele>
        <time>2019-07-08T12:30:32Z</time>
      </trkpt>
      <trkpt lat="44.88231" lon="2.77315">
        <ele>719.68</ele>
        <time>2019-07-08T12:30:45Z</time>
      </trkpt>
      <trkpt lat="44.88242" lon="2.77316">
        <ele>720.65</ele>
        <time>2019-07-08T12:30:58Z</time>
      </trkpt>
      <trkpt lat="44.88254" lon="2.77319">
        <ele>721.61</ele>
        <time>2019-07-08T12:31:12Z</time>
      </trkpt>
      <trkpt lat="44.88264" lon="2.77322">
        <ele>721.61</ele>
        <time>2019-07-08T12:31:22Z</time>
      </trkpt>
      <trkpt lat="44.88275" lon="2.77325">
        <ele>722.57</ele>
        <time>2019-07-08T12:31:34Z</time>
      </trkpt>
      <trkpt lat="44.88284" lon="2.77324">
        <ele>723.05</ele>
        <time>2019-07-08T12:31:45Z</time>
      </trkpt>
      <trkpt lat="44.88293" lon="2.77324">
        <ele>724.01</ele>
        <time>2019-07-08T12:31:55Z</time>
      </trkpt>
      <trkpt lat="44.88306" lon="2.77324">
        <ele>724.49</ele>
        <time>2019-07-08T12:32:08Z</time>
      </trkpt>
      <trkpt lat="44.88319" lon="2.77322">
        <ele>725.45</ele>
        <time>2019-07-08T12:32:20Z</time>
      </trkpt>
      <trkpt lat="44.88332" lon="2.77324">
        <ele>726.41</ele>
        <time>2019-07-08T12:32:33Z</time>
      </trkpt>
      <trkpt lat="44.8834" lon="2.77323">
        <ele>727.37</ele>
        <time>2019-07-08T12:32:44Z</time>
      </trkpt>
      <trkpt lat="44.88351" lon="2.77324">
        <ele>728.34</ele>
        <time>2019-07-08T12:32:57Z</time>
      </trkpt>
      <trkpt lat="44.88363" lon="2.77322">
        <ele>729.3</ele>
        <time>2019-07-08T12:33:10Z</time>
      </trkpt>
      <trkpt lat="44.88366" lon="2.77319">
        <ele>728.34</ele>
        <time>2019-07-08T12:33:47Z</time>
      </trkpt>
      <trkpt lat="44.88367" lon="2.77321">
        <ele>727.86</ele>
        <time>2019-07-08T12:34:04Z</time>
      </trkpt>
      <trkpt lat="44.88373" lon="2.77324">
        <ele>728.34</ele>
        <time>2019-07-08T12:34:32Z</time>
      </trkpt>
      <trkpt lat="44.8838" lon="2.77325">
        <ele>728.82</ele>
        <time>2019-07-08T12:34:37Z</time>
      </trkpt>
      <trkpt lat="44.88394" lon="2.77324">
        <ele>729.78</ele>
        <time>2019-07-08T12:34:50Z</time>
      </trkpt>
      <trkpt lat="44.88407" lon="2.77328">
        <ele>730.74</ele>
        <time>2019-07-08T12:35:03Z</time>
      </trkpt>
      <trkpt lat="44.88422" lon="2.7733">
        <ele>731.22</ele>
        <time>2019-07-08T12:35:16Z</time>
      </trkpt>
      <trkpt lat="44.88431" lon="2.77326">
        <ele>732.18</ele>
        <time>2019-07-08T12:35:26Z</time>
      </trkpt>
      <trkpt lat="44.88439" lon="2.7732">
        <ele>732.66</ele>
        <time>2019-07-08T12:35:36Z</time>
      </trkpt>
      <trkpt lat="44.88452" lon="2.7732">
        <ele>733.14</ele>
        <time>2019-07-08T12:35:49Z</time>
      </trkpt>
      <trkpt lat="44.88462" lon="2.77327">
        <ele>734.1</ele>
        <time>2019-07-08T12:36:01Z</time>
      </trkpt>
      <trkpt lat="44.88478" lon="2.77335">
        <ele>734.1</ele>
        <time>2019-07-08T12:36:13Z</time>
      </trkpt>
      <trkpt lat="44.88489" lon="2.77338">
        <ele>735.07</ele>
        <time>2019-07-08T12:36:25Z</time>
      </trkpt>
      <trkpt lat="44.88503" lon="2.77338">
        <ele>735.55</ele>
        <time>2019-07-08T12:36:39Z</time>
      </trkpt>
      <trkpt lat="44.88515" lon="2.77339">
        <ele>735.55</ele>
        <time>2019-07-08T12:36:52Z</time>
      </trkpt>
      <trkpt lat="44.88524" lon="2.7734">
        <ele>736.03</ele>
        <time>2019-07-08T12:37:04Z</time>
      </trkpt>
      <trkpt lat="44.88527" lon="2.77338">
        <ele>736.99</ele>
        <time>2019-07-08T12:37:07Z</time>
      </trkpt>
      <trkpt lat="44.88541" lon="2.77335">
        <ele>737.95</ele>
        <time>2019-07-08T12:37:20Z</time>
      </trkpt>
      <trkpt lat="44.88555" lon="2.77336">
        <ele>738.91</ele>
        <time>2019-07-08T12:37:33Z</time>
      </trkpt>
      <trkpt lat="44.88556" lon="2.77336">
        <ele>738.91</ele>
        <time>2019-07-08T12:37:35Z</time>
      </trkpt>
      <trkpt lat="44.88571" lon="2.77342">
        <ele>739.87</ele>
        <time>2019-07-08T12:37:49Z</time>
      </trkpt>
      <trkpt lat="44.8858" lon="2.77344">
        <ele>740.83</ele>
        <time>2019-07-08T12:37:58Z</time>
      </trkpt>
      <trkpt lat="44.88594" lon="2.77341">
        <ele>741.79</ele>
        <time>2019-07-08T12:38:13Z</time>
      </trkpt>
      <trkpt lat="44.88596" lon="2.77341">
        <ele>741.79</ele>
        <time>2019-07-08T12:38:15Z</time>
      </trkpt>
      <trkpt lat="44.88609" lon="2.77349">
        <ele>743.24</ele>
        <time>2019-07-08T12:38:29Z</time>
      </trkpt>
      <trkpt lat="44.88623" lon="2.77353">
        <ele>743.24</ele>
        <time>2019-07-08T12:38:42Z</time>
      </trkpt>
      <trkpt lat="44.88626" lon="2.77355">
        <ele>743.24</ele>
        <time>2019-07-08T12:38:46Z</time>
      </trkpt>
      <trkpt lat="44.88629" lon="2.77356">
        <ele>743.24</ele>
        <time>2019-07-08T12:38:48Z</time>
      </trkpt>
      <trkpt lat="44.88641" lon="2.7736">
        <ele>743.72</ele>
        <time>2019-07-08T12:39:01Z</time>
      </trkpt>
      <trkpt lat="44.88656" lon="2.77363">
        <ele>744.68</ele>
        <time>2019-07-08T12:39:15Z</time>
      </trkpt>
      <trkpt lat="44.88665" lon="2.77359">
        <ele>746.12</ele>
        <time>2019-07-08T12:39:26Z</time>
      </trkpt>
      <trkpt lat="44.8867" lon="2.77349">
        <ele>747.56</ele>
        <time>2019-07-08T12:39:38Z</time>
      </trkpt>
      <trkpt lat="44.88674" lon="2.77338">
        <ele>749</ele>
        <time>2019-07-08T12:39:48Z</time>
      </trkpt>
      <trkpt lat="44.88678" lon="2.77322">
        <ele>750.45</ele>
        <time>2019-07-08T12:40:01Z</time>
      </trkpt>
      <trkpt lat="44.88681" lon="2.77312">
        <ele>750.45</ele>
        <time>2019-07-08T12:40:08Z</time>
      </trkpt>
      <trkpt lat="44.88686" lon="2.77302">
        <ele>751.41</ele>
        <time>2019-07-08T12:40:16Z</time>
      </trkpt>
      <trkpt lat="44.88699" lon="2.77302">
        <ele>752.37</ele>
        <time>2019-07-08T12:40:30Z</time>
      </trkpt>
      <trkpt lat="44.88711" lon="2.77306">
        <ele>753.81</ele>
        <time>2019-07-08T12:40:42Z</time>
      </trkpt>
      <trkpt lat="44.8872" lon="2.77309">
        <ele>754.77</ele>
        <time>2019-07-08T12:40:53Z</time>
      </trkpt>
      <trkpt lat="44.88733" lon="2.7731">
        <ele>756.21</ele>
        <time>2019-07-08T12:41:07Z</time>
      </trkpt>
      <trkpt lat="44.8875" lon="2.77311">
        <ele>757.66</ele>
        <time>2019-07-08T12:41:22Z</time>
      </trkpt>
      <trkpt lat="44.88754" lon="2.77309">
        <ele>757.66</ele>
        <time>2019-07-08T12:41:27Z</time>
      </trkpt>
      <trkpt lat="44.88757" lon="2.77308">
        <ele>757.66</ele>
        <time>2019-07-08T12:41:31Z</time>
      </trkpt>
      <trkpt lat="44.88765" lon="2.77307">
        <ele>759.1</ele>
        <time>2019-07-08T12:41:45Z</time>
      </trkpt>
      <trkpt lat="44.88765" lon="2.77306">
        <ele>759.1</ele>
        <time>2019-07-08T12:41:47Z</time>
      </trkpt>
      <trkpt lat="44.88765" lon="2.77294">
        <ele>760.06</ele>
        <time>2019-07-08T12:41:59Z</time>
      </trkpt>
      <trkpt lat="44.8877" lon="2.77279">
        <ele>761.5</ele>
        <time>2019-07-08T12:42:10Z</time>
      </trkpt>
      <trkpt lat="44.88772" lon="2.77272">
        <ele>761.5</ele>
        <time>2019-07-08T12:42:15Z</time>
      </trkpt>
      <trkpt lat="44.88774" lon="2.77269">
        <ele>761.5</ele>
        <time>2019-07-08T12:42:18Z</time>
      </trkpt>
      <trkpt lat="44.88784" lon="2.77257">
        <ele>763.42</ele>
        <time>2019-07-08T12:42:32Z</time>
      </trkpt>
      <trkpt lat="44.88788" lon="2.77254">
        <ele>763.9</ele>
        <time>2019-07-08T12:42:43Z</time>
      </trkpt>
      <trkpt lat="44.88792" lon="2.77251">
        <ele>764.39</ele>
        <time>2019-07-08T12:42:55Z</time>
      </trkpt>
      <trkpt lat="44.888" lon="2.7725">
        <ele>764.87</ele>
        <time>2019-07-08T12:43:13Z</time>
      </trkpt>
      <trkpt lat="44.88815" lon="2.77251">
        <ele>766.79</ele>
        <time>2019-07-08T12:43:33Z</time>
      </trkpt>
      <trkpt lat="44.88838" lon="2.77245">
        <ele>768.71</ele>
        <time>2019-07-08T12:43:52Z</time>
      </trkpt>
      <trkpt lat="44.88855" lon="2.77243">
        <ele>770.63</ele>
        <time>2019-07-08T12:44:10Z</time>
      </trkpt>
      <trkpt lat="44.88869" lon="2.77235">
        <ele>772.56</ele>
        <time>2019-07-08T12:44:27Z</time>
      </trkpt>
      <trkpt lat="44.88877" lon="2.77229">
        <ele>774</ele>
        <time>2019-07-08T12:44:40Z</time>
      </trkpt>
      <trkpt lat="44.88887" lon="2.77219">
        <ele>774.48</ele>
        <time>2019-07-08T12:44:52Z</time>
      </trkpt>
      <trkpt lat="44.88897" lon="2.77207">
        <ele>775.44</ele>
        <time>2019-07-08T12:45:05Z</time>
      </trkpt>
      <trkpt lat="44.88903" lon="2.77202">
        <ele>775.92</ele>
        <time>2019-07-08T12:45:11Z</time>
      </trkpt>
      <trkpt lat="44.8891" lon="2.77193">
        <ele>777.36</ele>
        <time>2019-07-08T12:45:22Z</time>
      </trkpt>
      <trkpt lat="44.88913" lon="2.77186">
        <ele>778.32</ele>
        <time>2019-07-08T12:45:29Z</time>
      </trkpt>
      <trkpt lat="44.8892" lon="2.77173">
        <ele>779.77</ele>
        <time>2019-07-08T12:45:43Z</time>
      </trkpt>
      <trkpt lat="44.88922" lon="2.77162">
        <ele>780.25</ele>
        <time>2019-07-08T12:45:53Z</time>
      </trkpt>
      <trkpt lat="44.88926" lon="2.77155">
        <ele>780.73</ele>
        <time>2019-07-08T12:46:03Z</time>
      </trkpt>
      <trkpt lat="44.88927" lon="2.77153">
        <ele>781.69</ele>
        <time>2019-07-08T12:46:05Z</time>
      </trkpt>
      <trkpt lat="44.8893" lon="2.77145">
        <ele>782.65</ele>
        <time>2019-07-08T12:46:19Z</time>
      </trkpt>
      <trkpt lat="44.88931" lon="2.77143">
        <ele>783.61</ele>
        <time>2019-07-08T12:46:31Z</time>
      </trkpt>
      <trkpt lat="44.88932" lon="2.7714">
        <ele>783.61</ele>
        <time>2019-07-08T12:47:28Z</time>
      </trkpt>
      <trkpt lat="44.88931" lon="2.77139">
        <ele>783.13</ele>
        <time>2019-07-08T12:48:16Z</time>
      </trkpt>
      <trkpt lat="44.88931" lon="2.77138">
        <ele>785.53</ele>
        <time>2019-07-08T12:48:42Z</time>
      </trkpt>
      <trkpt lat="44.88931" lon="2.77138">
        <ele>786.98</ele>
        <time>2019-07-08T12:48:56Z</time>
      </trkpt>
      <trkpt lat="44.88927" lon="2.77136">
        <ele>788.9</ele>
        <time>2019-07-08T12:49:09Z</time>
      </trkpt>
      <trkpt lat="44.88924" lon="2.77136">
        <ele>791.3</ele>
        <time>2019-07-08T12:49:24Z</time>
      </trkpt>
      <trkpt lat="44.88924" lon="2.77136">
        <ele>794.19</ele>
        <time>2019-07-08T12:49:42Z</time>
      </trkpt>
      <trkpt lat="44.88914" lon="2.77133">
        <ele>796.11</ele>
        <time>2019-07-08T12:50:00Z</time>
      </trkpt>
      <trkpt lat="44.88887" lon="2.77126">
        <ele>798.03</ele>
        <time>2019-07-08T12:50:17Z</time>
      </trkpt>
      <trkpt lat="44.88887" lon="2.77126">
        <ele>799.95</ele>
        <time>2019-07-08T12:50:30Z</time>
      </trkpt>
      <trkpt lat="44.8888" lon="2.77124">
        <ele>800.44</ele>
        <time>2019-07-08T12:50:44Z</time>
      </trkpt>
      <trkpt lat="44.88869" lon="2.77116">
        <ele>801.88</ele>
        <time>2019-07-08T12:50:56Z</time>
      </trkpt>
      <trkpt lat="44.88866" lon="2.77102">
        <ele>802.36</ele>
        <time>2019-07-08T12:51:08Z</time>
      </trkpt>
      <trkpt lat="44.88865" lon="2.77097">
        <ele>803.8</ele>
        <time>2019-07-08T12:51:20Z</time>
      </trkpt>
      <trkpt lat="44.88861" lon="2.77083">
        <ele>804.28</ele>
        <time>2019-07-08T12:51:28Z</time>
      </trkpt>
      <trkpt lat="44.88855" lon="2.77064">
        <ele>805.24</ele>
        <time>2019-07-08T12:51:41Z</time>
      </trkpt>
      <trkpt lat="44.88849" lon="2.77057">
        <ele>805.72</ele>
        <time>2019-07-08T12:51:51Z</time>
      </trkpt>
      <trkpt lat="44.88843" lon="2.77043">
        <ele>807.16</ele>
        <time>2019-07-08T12:52:02Z</time>
      </trkpt>
      <trkpt lat="44.88839" lon="2.77028">
        <ele>808.13</ele>
        <time>2019-07-08T12:52:15Z</time>
      </trkpt>
      <trkpt lat="44.88837" lon="2.77024">
        <ele>809.57</ele>
        <time>2019-07-08T12:52:25Z</time>
      </trkpt>
      <trkpt lat="44.88836" lon="2.7702">
        <ele>810.05</ele>
        <time>2019-07-08T12:52:28Z</time>
      </trkpt>
      <trkpt lat="44.88832" lon="2.77003">
        <ele>811.49</ele>
        <time>2019-07-08T12:52:43Z</time>
      </trkpt>
      <trkpt lat="44.88832" lon="2.77">
        <ele>811.97</ele>
        <time>2019-07-08T12:52:45Z</time>
      </trkpt>
      <trkpt lat="44.88831" lon="2.76993">
        <ele>812.45</ele>
        <time>2019-07-08T12:52:56Z</time>
      </trkpt>
      <trkpt lat="44.88826" lon="2.7698">
        <ele>813.89</ele>
        <time>2019-07-08T12:53:06Z</time>
      </trkpt>
      <trkpt lat="44.88823" lon="2.7697">
        <ele>814.85</ele>
        <time>2019-07-08T12:53:17Z</time>
      </trkpt>
      <trkpt lat="44.88821" lon="2.7696">
        <ele>816.78</ele>
        <time>2019-07-08T12:53:31Z</time>
      </trkpt>
      <trkpt lat="44.88814" lon="2.76946">
        <ele>817.26</ele>
        <time>2019-07-08T12:53:44Z</time>
      </trkpt>
      <trkpt lat="44.88812" lon="2.76938">
        <ele>818.7</ele>
        <time>2019-07-08T12:53:50Z</time>
      </trkpt>
      <trkpt lat="44.88812" lon="2.76931">
        <ele>819.18</ele>
        <time>2019-07-08T12:54:03Z</time>
      </trkpt>
      <trkpt lat="44.88813" lon="2.76923">
        <ele>820.62</ele>
        <time>2019-07-08T12:54:17Z</time>
      </trkpt>
      <trkpt lat="44.88816" lon="2.76912">
        <ele>821.58</ele>
        <time>2019-07-08T12:54:31Z</time>
      </trkpt>
      <trkpt lat="44.88819" lon="2.76892">
        <ele>823.51</ele>
        <time>2019-07-08T12:54:46Z</time>
      </trkpt>
      <trkpt lat="44.88823" lon="2.7688">
        <ele>824.95</ele>
        <time>2019-07-08T12:55:01Z</time>
      </trkpt>
      <trkpt lat="44.88829" lon="2.76869">
        <ele>826.87</ele>
        <time>2019-07-08T12:55:16Z</time>
      </trkpt>
      <trkpt lat="44.88841" lon="2.76853">
        <ele>827.83</ele>
        <time>2019-07-08T12:55:33Z</time>
      </trkpt>
      <trkpt lat="44.88846" lon="2.76837">
        <ele>828.79</ele>
        <time>2019-07-08T12:55:48Z</time>
      </trkpt>
      <trkpt lat="44.88851" lon="2.76824">
        <ele>830.24</ele>
        <time>2019-07-08T12:56:01Z</time>
      </trkpt>
      <trkpt lat="44.88857" lon="2.76813">
        <ele>831.68</ele>
        <time>2019-07-08T12:56:17Z</time>
      </trkpt>
      <trkpt lat="44.88865" lon="2.768">
        <ele>832.64</ele>
        <time>2019-07-08T12:56:30Z</time>
      </trkpt>
      <trkpt lat="44.88868" lon="2.76788">
        <ele>833.6</ele>
        <time>2019-07-08T12:56:43Z</time>
      </trkpt>
      <trkpt lat="44.88876" lon="2.76775">
        <ele>835.04</ele>
        <time>2019-07-08T12:56:58Z</time>
      </trkpt>
      <trkpt lat="44.88884" lon="2.76764">
        <ele>838.41</ele>
        <time>2019-07-08T12:57:15Z</time>
      </trkpt>
      <trkpt lat="44.88889" lon="2.76758">
        <ele>839.85</ele>
        <time>2019-07-08T12:57:26Z</time>
      </trkpt>
      <trkpt lat="44.88891" lon="2.76757">
        <ele>839.85</ele>
        <time>2019-07-08T12:57:49Z</time>
      </trkpt>
      <trkpt lat="44.88892" lon="2.76757">
        <ele>839.37</ele>
        <time>2019-07-08T12:58:14Z</time>
      </trkpt>
      <trkpt lat="44.88891" lon="2.76757">
        <ele>840.33</ele>
        <time>2019-07-08T13:00:16Z</time>
      </trkpt>
      <trkpt lat="44.88891" lon="2.76757">
        <ele>839.85</ele>
        <time>2019-07-08T13:00:26Z</time>
      </trkpt>
      <trkpt lat="44.889" lon="2.76746">
        <ele>840.81</ele>
        <time>2019-07-08T13:00:41Z</time>
      </trkpt>
      <trkpt lat="44.88901" lon="2.76743">
        <ele>843.21</ele>
        <time>2019-07-08T13:00:57Z</time>
      </trkpt>
      <trkpt lat="44.88902" lon="2.76741">
        <ele>844.66</ele>
        <time>2019-07-08T13:01:11Z</time>
      </trkpt>
      <trkpt lat="44.88902" lon="2.76711">
        <ele>846.58</ele>
        <time>2019-07-08T13:01:26Z</time>
      </trkpt>
      <trkpt lat="44.88897" lon="2.76688">
        <ele>848.5</ele>
        <time>2019-07-08T13:01:38Z</time>
      </trkpt>
      <trkpt lat="44.88897" lon="2.76676">
        <ele>849.46</ele>
        <time>2019-07-08T13:01:51Z</time>
      </trkpt>
      <trkpt lat="44.88896" lon="2.76663">
        <ele>851.38</ele>
        <time>2019-07-08T13:02:05Z</time>
      </trkpt>
      <trkpt lat="44.88898" lon="2.76646">
        <ele>852.83</ele>
        <time>2019-07-08T13:02:18Z</time>
      </trkpt>
      <trkpt lat="44.88901" lon="2.76634">
        <ele>853.79</ele>
        <time>2019-07-08T13:02:29Z</time>
      </trkpt>
      <trkpt lat="44.88901" lon="2.76617">
        <ele>854.75</ele>
        <time>2019-07-08T13:02:42Z</time>
      </trkpt>
      <trkpt lat="44.88902" lon="2.76609">
        <ele>857.15</ele>
        <time>2019-07-08T13:02:55Z</time>
      </trkpt>
      <trkpt lat="44.88902" lon="2.76609">
        <ele>859.08</ele>
        <time>2019-07-08T13:03:07Z</time>
      </trkpt>
      <trkpt lat="44.88901" lon="2.76595">
        <ele>860.04</ele>
        <time>2019-07-08T13:03:19Z</time>
      </trkpt>
      <trkpt lat="44.88902" lon="2.76582">
        <ele>861.48</ele>
        <time>2019-07-08T13:03:31Z</time>
      </trkpt>
      <trkpt lat="44.88904" lon="2.76572">
        <ele>863.4</ele>
        <time>2019-07-08T13:03:41Z</time>
      </trkpt>
      <trkpt lat="44.88906" lon="2.76563">
        <ele>863.88</ele>
        <time>2019-07-08T13:03:52Z</time>
      </trkpt>
      <trkpt lat="44.88909" lon="2.76551">
        <ele>865.32</ele>
        <time>2019-07-08T13:04:02Z</time>
      </trkpt>
      <trkpt lat="44.88911" lon="2.76533">
        <ele>865.8</ele>
        <time>2019-07-08T13:04:14Z</time>
      </trkpt>
      <trkpt lat="44.88913" lon="2.76527">
        <ele>866.77</ele>
        <time>2019-07-08T13:04:32Z</time>
      </trkpt>
      <trkpt lat="44.88902" lon="2.76516">
        <ele>864.36</ele>
        <time>2019-07-08T13:04:47Z</time>
      </trkpt>
      <trkpt lat="44.88898" lon="2.76502">
        <ele>864.84</ele>
        <time>2019-07-08T13:05:02Z</time>
      </trkpt>
      <trkpt lat="44.88903" lon="2.76495">
        <ele>865.32</ele>
        <time>2019-07-08T13:05:15Z</time>
      </trkpt>
      <trkpt lat="44.88905" lon="2.76492">
        <ele>865.32</ele>
        <time>2019-07-08T13:05:18Z</time>
      </trkpt>
      <trkpt lat="44.88909" lon="2.76482">
        <ele>866.29</ele>
        <time>2019-07-08T13:05:27Z</time>
      </trkpt>
      <trkpt lat="44.88915" lon="2.76457">
        <ele>867.73</ele>
        <time>2019-07-08T13:05:43Z</time>
      </trkpt>
      <trkpt lat="44.88916" lon="2.76449">
        <ele>867.73</ele>
        <time>2019-07-08T13:05:48Z</time>
      </trkpt>
      <trkpt lat="44.88917" lon="2.76441">
        <ele>868.69</ele>
        <time>2019-07-08T13:05:54Z</time>
      </trkpt>
      <trkpt lat="44.88919" lon="2.76429">
        <ele>869.17</ele>
        <time>2019-07-08T13:06:03Z</time>
      </trkpt>
      <trkpt lat="44.88922" lon="2.76406">
        <ele>869.65</ele>
        <time>2019-07-08T13:06:19Z</time>
      </trkpt>
      <trkpt lat="44.88924" lon="2.76404">
        <ele>870.13</ele>
        <time>2019-07-08T13:06:21Z</time>
      </trkpt>
      <trkpt lat="44.88935" lon="2.76401">
        <ele>871.09</ele>
        <time>2019-07-08T13:06:35Z</time>
      </trkpt>
      <trkpt lat="44.88938" lon="2.76406">
        <ele>871.09</ele>
        <time>2019-07-08T13:06:39Z</time>
      </trkpt>
      <trkpt lat="44.88941" lon="2.76421">
        <ele>872.53</ele>
        <time>2019-07-08T13:06:51Z</time>
      </trkpt>
      <trkpt lat="44.88936" lon="2.76446">
        <ele>873.98</ele>
        <time>2019-07-08T13:07:08Z</time>
      </trkpt>
      <trkpt lat="44.88934" lon="2.76461">
        <ele>874.94</ele>
        <time>2019-07-08T13:07:19Z</time>
      </trkpt>
      <trkpt lat="44.88933" lon="2.7647">
        <ele>874.94</ele>
        <time>2019-07-08T13:07:26Z</time>
      </trkpt>
      <trkpt lat="44.88935" lon="2.76483">
        <ele>875.9</ele>
        <time>2019-07-08T13:07:35Z</time>
      </trkpt>
      <trkpt lat="44.88937" lon="2.76492">
        <ele>876.38</ele>
        <time>2019-07-08T13:07:42Z</time>
      </trkpt>
      <trkpt lat="44.88939" lon="2.76502">
        <ele>876.86</ele>
        <time>2019-07-08T13:07:49Z</time>
      </trkpt>
      <trkpt lat="44.88943" lon="2.76519">
        <ele>878.3</ele>
        <time>2019-07-08T13:08:02Z</time>
      </trkpt>
      <trkpt lat="44.88945" lon="2.76521">
        <ele>878.78</ele>
        <time>2019-07-08T13:08:04Z</time>
      </trkpt>
      <trkpt lat="44.88949" lon="2.76535">
        <ele>879.26</ele>
        <time>2019-07-08T13:08:15Z</time>
      </trkpt>
      <trkpt lat="44.88954" lon="2.76541">
        <ele>879.26</ele>
        <time>2019-07-08T13:08:20Z</time>
      </trkpt>
      <trkpt lat="44.88961" lon="2.7656">
        <ele>881.19</ele>
        <time>2019-07-08T13:08:36Z</time>
      </trkpt>
      <trkpt lat="44.88962" lon="2.76564">
        <ele>881.67</ele>
        <time>2019-07-08T13:08:39Z</time>
      </trkpt>
      <trkpt lat="44.88973" lon="2.76575">
        <ele>882.15</ele>
        <time>2019-07-08T13:08:52Z</time>
      </trkpt>
      <trkpt lat="44.88985" lon="2.76583">
        <ele>883.59</ele>
        <time>2019-07-08T13:09:06Z</time>
      </trkpt>
      <trkpt lat="44.88996" lon="2.76586">
        <ele>884.55</ele>
        <time>2019-07-08T13:09:19Z</time>
      </trkpt>
      <trkpt lat="44.8901" lon="2.76585">
        <ele>886.47</ele>
        <time>2019-07-08T13:09:32Z</time>
      </trkpt>
      <trkpt lat="44.89023" lon="2.76584">
        <ele>886.95</ele>
        <time>2019-07-08T13:09:46Z</time>
      </trkpt>
      <trkpt lat="44.89043" lon="2.76587">
        <ele>888.88</ele>
        <time>2019-07-08T13:10:02Z</time>
      </trkpt>
      <trkpt lat="44.89059" lon="2.76591">
        <ele>889.36</ele>
        <time>2019-07-08T13:10:16Z</time>
      </trkpt>
      <trkpt lat="44.89069" lon="2.76594">
        <ele>890.8</ele>
        <time>2019-07-08T13:10:28Z</time>
      </trkpt>
      <trkpt lat="44.89081" lon="2.76599">
        <ele>891.76</ele>
        <time>2019-07-08T13:10:42Z</time>
      </trkpt>
      <trkpt lat="44.89095" lon="2.76602">
        <ele>892.24</ele>
        <time>2019-07-08T13:10:57Z</time>
      </trkpt>
      <trkpt lat="44.891" lon="2.76595">
        <ele>893.2</ele>
        <time>2019-07-08T13:11:08Z</time>
      </trkpt>
      <trkpt lat="44.89098" lon="2.76593">
        <ele>893.2</ele>
        <time>2019-07-08T13:11:21Z</time>
      </trkpt>
      <trkpt lat="44.89098" lon="2.76591">
        <ele>893.2</ele>
        <time>2019-07-08T13:12:27Z</time>
      </trkpt>
      <trkpt lat="44.89096" lon="2.7659">
        <ele>894.64</ele>
        <time>2019-07-08T13:13:39Z</time>
      </trkpt>
      <trkpt lat="44.89094" lon="2.76589">
        <ele>894.64</ele>
        <time>2019-07-08T13:13:42Z</time>
      </trkpt>
      <trkpt lat="44.89085" lon="2.76584">
        <ele>895.61</ele>
        <time>2019-07-08T13:13:54Z</time>
      </trkpt>
      <trkpt lat="44.89084" lon="2.76582">
        <ele>896.09</ele>
        <time>2019-07-08T13:13:56Z</time>
      </trkpt>
      <trkpt lat="44.89081" lon="2.76581">
        <ele>896.09</ele>
        <time>2019-07-08T13:13:59Z</time>
      </trkpt>
      <trkpt lat="44.89075" lon="2.76578">
        <ele>897.05</ele>
        <time>2019-07-08T13:14:06Z</time>
      </trkpt>
      <trkpt lat="44.89073" lon="2.76577">
        <ele>896.57</ele>
        <time>2019-07-08T13:14:08Z</time>
      </trkpt>
      <trkpt lat="44.89072" lon="2.76575">
        <ele>896.57</ele>
        <time>2019-07-08T13:14:10Z</time>
      </trkpt>
      <trkpt lat="44.89062" lon="2.76566">
        <ele>897.53</ele>
        <time>2019-07-08T13:14:23Z</time>
      </trkpt>
      <trkpt lat="44.8906" lon="2.76559">
        <ele>898.49</ele>
        <time>2019-07-08T13:14:35Z</time>
      </trkpt>
      <trkpt lat="44.8906" lon="2.76559">
        <ele>901.85</ele>
        <time>2019-07-08T13:14:49Z</time>
      </trkpt>
      <trkpt lat="44.8906" lon="2.76559">
        <ele>901.85</ele>
        <time>2019-07-08T13:15:04Z</time>
      </trkpt>
      <trkpt lat="44.89066" lon="2.76547">
        <ele>903.78</ele>
        <time>2019-07-08T13:15:18Z</time>
      </trkpt>
      <trkpt lat="44.89077" lon="2.7653">
        <ele>905.22</ele>
        <time>2019-07-08T13:15:31Z</time>
      </trkpt>
      <trkpt lat="44.89085" lon="2.7652">
        <ele>906.18</ele>
        <time>2019-07-08T13:15:42Z</time>
      </trkpt>
      <trkpt lat="44.89098" lon="2.76508">
        <ele>907.62</ele>
        <time>2019-07-08T13:15:54Z</time>
      </trkpt>
      <trkpt lat="44.89102" lon="2.76496">
        <ele>909.06</ele>
        <time>2019-07-08T13:16:05Z</time>
      </trkpt>
      <trkpt lat="44.89105" lon="2.76479">
        <ele>909.54</ele>
        <time>2019-07-08T13:16:16Z</time>
      </trkpt>
      <trkpt lat="44.89107" lon="2.76474">
        <ele>910.99</ele>
        <time>2019-07-08T13:16:27Z</time>
      </trkpt>
      <trkpt lat="44.89111" lon="2.76455">
        <ele>912.91</ele>
        <time>2019-07-08T13:16:40Z</time>
      </trkpt>
      <trkpt lat="44.8911" lon="2.7644">
        <ele>913.39</ele>
        <time>2019-07-08T13:16:50Z</time>
      </trkpt>
      <trkpt lat="44.89107" lon="2.76424">
        <ele>914.83</ele>
        <time>2019-07-08T13:17:01Z</time>
      </trkpt>
      <trkpt lat="44.89107" lon="2.76415">
        <ele>915.79</ele>
        <time>2019-07-08T13:17:08Z</time>
      </trkpt>
      <trkpt lat="44.89109" lon="2.76408">
        <ele>917.72</ele>
        <time>2019-07-08T13:17:21Z</time>
      </trkpt>
      <trkpt lat="44.89109" lon="2.76408">
        <ele>919.16</ele>
        <time>2019-07-08T13:17:34Z</time>
      </trkpt>
      <trkpt lat="44.89109" lon="2.76407">
        <ele>920.12</ele>
        <time>2019-07-08T13:17:44Z</time>
      </trkpt>
      <trkpt lat="44.89118" lon="2.76391">
        <ele>921.08</ele>
        <time>2019-07-08T13:17:56Z</time>
      </trkpt>
      <trkpt lat="44.89126" lon="2.76368">
        <ele>922.52</ele>
        <time>2019-07-08T13:18:10Z</time>
      </trkpt>
      <trkpt lat="44.89133" lon="2.7635">
        <ele>923.48</ele>
        <time>2019-07-08T13:18:21Z</time>
      </trkpt>
      <trkpt lat="44.89136" lon="2.76342">
        <ele>923.96</ele>
        <time>2019-07-08T13:18:28Z</time>
      </trkpt>
      <trkpt lat="44.89137" lon="2.76339">
        <ele>923.96</ele>
        <time>2019-07-08T13:18:30Z</time>
      </trkpt>
      <trkpt lat="44.8914" lon="2.76325">
        <ele>924.45</ele>
        <time>2019-07-08T13:18:41Z</time>
      </trkpt>
      <trkpt lat="44.89142" lon="2.76319">
        <ele>924.93</ele>
        <time>2019-07-08T13:18:45Z</time>
      </trkpt>
      <trkpt lat="44.89146" lon="2.76304">
        <ele>924.93</ele>
        <time>2019-07-08T13:18:56Z</time>
      </trkpt>
      <trkpt lat="44.89148" lon="2.76291">
        <ele>925.41</ele>
        <time>2019-07-08T13:19:05Z</time>
      </trkpt>
      <trkpt lat="44.89153" lon="2.76276">
        <ele>925.89</ele>
        <time>2019-07-08T13:19:18Z</time>
      </trkpt>
      <trkpt lat="44.89156" lon="2.76265">
        <ele>926.85</ele>
        <time>2019-07-08T13:19:32Z</time>
      </trkpt>
      <trkpt lat="44.89156" lon="2.76264">
        <ele>926.85</ele>
        <time>2019-07-08T13:19:33Z</time>
      </trkpt>
      <trkpt lat="44.89163" lon="2.7625">
        <ele>926.85</ele>
        <time>2019-07-08T13:19:45Z</time>
      </trkpt>
      <trkpt lat="44.89166" lon="2.76243">
        <ele>926.85</ele>
        <time>2019-07-08T13:19:50Z</time>
      </trkpt>
      <trkpt lat="44.89169" lon="2.76235">
        <ele>928.29</ele>
        <time>2019-07-08T13:19:55Z</time>
      </trkpt>
      <trkpt lat="44.89176" lon="2.76219">
        <ele>928.29</ele>
        <time>2019-07-08T13:20:08Z</time>
      </trkpt>
      <trkpt lat="44.89181" lon="2.76201">
        <ele>928.29</ele>
        <time>2019-07-08T13:20:22Z</time>
      </trkpt>
      <trkpt lat="44.89188" lon="2.76186">
        <ele>928.77</ele>
        <time>2019-07-08T13:20:35Z</time>
      </trkpt>
      <trkpt lat="44.89193" lon="2.76177">
        <ele>929.25</ele>
        <time>2019-07-08T13:20:44Z</time>
      </trkpt>
      <trkpt lat="44.89198" lon="2.76172">
        <ele>929.73</ele>
        <time>2019-07-08T13:20:50Z</time>
      </trkpt>
      <trkpt lat="44.89211" lon="2.76157">
        <ele>930.21</ele>
        <time>2019-07-08T13:21:06Z</time>
      </trkpt>
      <trkpt lat="44.89215" lon="2.76152">
        <ele>930.21</ele>
        <time>2019-07-08T13:21:11Z</time>
      </trkpt>
      <trkpt lat="44.89217" lon="2.76151">
        <ele>930.21</ele>
        <time>2019-07-08T13:21:13Z</time>
      </trkpt>
      <trkpt lat="44.89227" lon="2.76137">
        <ele>931.17</ele>
        <time>2019-07-08T13:21:27Z</time>
      </trkpt>
      <trkpt lat="44.89229" lon="2.76134">
        <ele>931.65</ele>
        <time>2019-07-08T13:21:30Z</time>
      </trkpt>
      <trkpt lat="44.89239" lon="2.7612">
        <ele>932.14</ele>
        <time>2019-07-08T13:21:44Z</time>
      </trkpt>
      <trkpt lat="44.89249" lon="2.76106">
        <ele>932.62</ele>
        <time>2019-07-08T13:21:58Z</time>
      </trkpt>
      <trkpt lat="44.89252" lon="2.76101">
        <ele>932.62</ele>
        <time>2019-07-08T13:22:03Z</time>
      </trkpt>
      <trkpt lat="44.89256" lon="2.76096">
        <ele>932.62</ele>
        <time>2019-07-08T13:22:08Z</time>
      </trkpt>
      <trkpt lat="44.89261" lon="2.76091">
        <ele>933.1</ele>
        <time>2019-07-08T13:22:14Z</time>
      </trkpt>
      <trkpt lat="44.89262" lon="2.76089">
        <ele>933.58</ele>
        <time>2019-07-08T13:22:16Z</time>
      </trkpt>
      <trkpt lat="44.89267" lon="2.76085">
        <ele>933.58</ele>
        <time>2019-07-08T13:22:21Z</time>
      </trkpt>
      <trkpt lat="44.89268" lon="2.76083">
        <ele>933.58</ele>
        <time>2019-07-08T13:22:23Z</time>
      </trkpt>
      <trkpt lat="44.8927" lon="2.76081">
        <ele>933.1</ele>
        <time>2019-07-08T13:22:25Z</time>
      </trkpt>
      <trkpt lat="44.89273" lon="2.76079">
        <ele>933.58</ele>
        <time>2019-07-08T13:22:28Z</time>
      </trkpt>
      <trkpt lat="44.89274" lon="2.76078">
        <ele>933.58</ele>
        <time>2019-07-08T13:22:30Z</time>
      </trkpt>
      <trkpt lat="44.89277" lon="2.76076">
        <ele>933.58</ele>
        <time>2019-07-08T13:22:33Z</time>
      </trkpt>
      <trkpt lat="44.89286" lon="2.7607">
        <ele>934.54</ele>
        <time>2019-07-08T13:22:43Z</time>
      </trkpt>
      <trkpt lat="44.89288" lon="2.76068">
        <ele>934.54</ele>
        <time>2019-07-08T13:22:45Z</time>
      </trkpt>
      <trkpt lat="44.89294" lon="2.76064">
        <ele>934.54</ele>
        <time>2019-07-08T13:22:52Z</time>
      </trkpt>
      <trkpt lat="44.89296" lon="2.76062">
        <ele>934.54</ele>
        <time>2019-07-08T13:22:54Z</time>
      </trkpt>
      <trkpt lat="44.89302" lon="2.76059">
        <ele>935.02</ele>
        <time>2019-07-08T13:23:00Z</time>
      </trkpt>
      <trkpt lat="44.89312" lon="2.76052">
        <ele>935.02</ele>
        <time>2019-07-08T13:23:12Z</time>
      </trkpt>
      <trkpt lat="44.89316" lon="2.7605">
        <ele>935.98</ele>
        <time>2019-07-08T13:23:16Z</time>
      </trkpt>
      <trkpt lat="44.8933" lon="2.76043">
        <ele>936.46</ele>
        <time>2019-07-08T13:23:31Z</time>
      </trkpt>
      <trkpt lat="44.89343" lon="2.76037">
        <ele>936.94</ele>
        <time>2019-07-08T13:23:45Z</time>
      </trkpt>
      <trkpt lat="44.89356" lon="2.76034">
        <ele>938.38</ele>
        <time>2019-07-08T13:23:58Z</time>
      </trkpt>
      <trkpt lat="44.8936" lon="2.76033">
        <ele>938.38</ele>
        <time>2019-07-08T13:24:01Z</time>
      </trkpt>
      <trkpt lat="44.89366" lon="2.76031">
        <ele>938.38</ele>
        <time>2019-07-08T13:24:07Z</time>
      </trkpt>
      <trkpt lat="44.89371" lon="2.7603">
        <ele>938.38</ele>
        <time>2019-07-08T13:24:12Z</time>
      </trkpt>
      <trkpt lat="44.89378" lon="2.76027">
        <ele>939.35</ele>
        <time>2019-07-08T13:24:19Z</time>
      </trkpt>
      <trkpt lat="44.8938" lon="2.76026">
        <ele>939.83</ele>
        <time>2019-07-08T13:24:21Z</time>
      </trkpt>
      <trkpt lat="44.89388" lon="2.76024">
        <ele>940.31</ele>
        <time>2019-07-08T13:24:31Z</time>
      </trkpt>
      <trkpt lat="44.89401" lon="2.7602">
        <ele>940.79</ele>
        <time>2019-07-08T13:24:44Z</time>
      </trkpt>
      <trkpt lat="44.89407" lon="2.76018">
        <ele>940.79</ele>
        <time>2019-07-08T13:24:51Z</time>
      </trkpt>
      <trkpt lat="44.89424" lon="2.76012">
        <ele>940.79</ele>
        <time>2019-07-08T13:25:08Z</time>
      </trkpt>
      <trkpt lat="44.89425" lon="2.76011">
        <ele>941.75</ele>
        <time>2019-07-08T13:25:09Z</time>
      </trkpt>
      <trkpt lat="44.89429" lon="2.76005">
        <ele>941.27</ele>
        <time>2019-07-08T13:25:14Z</time>
      </trkpt>
      <trkpt lat="44.89437" lon="2.75988">
        <ele>941.75</ele>
        <time>2019-07-08T13:25:28Z</time>
      </trkpt>
      <trkpt lat="44.89438" lon="2.75985">
        <ele>941.27</ele>
        <time>2019-07-08T13:25:31Z</time>
      </trkpt>
      <trkpt lat="44.89449" lon="2.75974">
        <ele>941.75</ele>
        <time>2019-07-08T13:25:46Z</time>
      </trkpt>
      <trkpt lat="44.89454" lon="2.7597">
        <ele>942.71</ele>
        <time>2019-07-08T13:25:58Z</time>
      </trkpt>
      <trkpt lat="44.8946" lon="2.75968">
        <ele>942.23</ele>
        <time>2019-07-08T13:26:05Z</time>
      </trkpt>
      <trkpt lat="44.89462" lon="2.75968">
        <ele>942.71</ele>
        <time>2019-07-08T13:26:07Z</time>
      </trkpt>
      <trkpt lat="44.89471" lon="2.75971">
        <ele>942.71</ele>
        <time>2019-07-08T13:26:17Z</time>
      </trkpt>
      <trkpt lat="44.89492" lon="2.75973">
        <ele>941.27</ele>
        <time>2019-07-08T13:26:36Z</time>
      </trkpt>
      <trkpt lat="44.89507" lon="2.75976">
        <ele>941.75</ele>
        <time>2019-07-08T13:26:50Z</time>
      </trkpt>
      <trkpt lat="44.89517" lon="2.7598">
        <ele>940.79</ele>
        <time>2019-07-08T13:27:01Z</time>
      </trkpt>
      <trkpt lat="44.89521" lon="2.75985">
        <ele>940.79</ele>
        <time>2019-07-08T13:27:06Z</time>
      </trkpt>
      <trkpt lat="44.89525" lon="2.75987">
        <ele>940.31</ele>
        <time>2019-07-08T13:27:10Z</time>
      </trkpt>
      <trkpt lat="44.89541" lon="2.75996">
        <ele>939.83</ele>
        <time>2019-07-08T13:27:26Z</time>
      </trkpt>
      <trkpt lat="44.89545" lon="2.75999">
        <ele>940.31</ele>
        <time>2019-07-08T13:27:30Z</time>
      </trkpt>
      <trkpt lat="44.89554" lon="2.76002">
        <ele>940.79</ele>
        <time>2019-07-08T13:27:37Z</time>
      </trkpt>
      <trkpt lat="44.89566" lon="2.76003">
        <ele>940.31</ele>
        <time>2019-07-08T13:27:48Z</time>
      </trkpt>
      <trkpt lat="44.89572" lon="2.76001">
        <ele>940.79</ele>
        <time>2019-07-08T13:27:54Z</time>
      </trkpt>
      <trkpt lat="44.89574" lon="2.76001">
        <ele>940.79</ele>
        <time>2019-07-08T13:27:56Z</time>
      </trkpt>
      <trkpt lat="44.89584" lon="2.75993">
        <ele>940.31</ele>
        <time>2019-07-08T13:28:05Z</time>
      </trkpt>
      <trkpt lat="44.89592" lon="2.75985">
        <ele>940.79</ele>
        <time>2019-07-08T13:28:14Z</time>
      </trkpt>
      <trkpt lat="44.89605" lon="2.75976">
        <ele>940.79</ele>
        <time>2019-07-08T13:28:28Z</time>
      </trkpt>
      <trkpt lat="44.89614" lon="2.75964">
        <ele>941.27</ele>
        <time>2019-07-08T13:28:43Z</time>
      </trkpt>
      <trkpt lat="44.89617" lon="2.75962">
        <ele>941.75</ele>
        <time>2019-07-08T13:28:56Z</time>
      </trkpt>
      <trkpt lat="44.89619" lon="2.7596">
        <ele>941.27</ele>
        <time>2019-07-08T13:29:11Z</time>
      </trkpt>
      <trkpt lat="44.89617" lon="2.75956">
        <ele>941.75</ele>
        <time>2019-07-08T13:29:41Z</time>
      </trkpt>
      <trkpt lat="44.89617" lon="2.75956">
        <ele>941.75</ele>
        <time>2019-07-08T13:29:47Z</time>
      </trkpt>
      <trkpt lat="44.89615" lon="2.75951">
        <ele>941.75</ele>
        <time>2019-07-08T13:29:51Z</time>
      </trkpt>
      <trkpt lat="44.89609" lon="2.75935">
        <ele>941.27</ele>
        <time>2019-07-08T13:30:01Z</time>
      </trkpt>
      <trkpt lat="44.89604" lon="2.75925">
        <ele>941.75</ele>
        <time>2019-07-08T13:30:07Z</time>
      </trkpt>
      <trkpt lat="44.89599" lon="2.75915">
        <ele>942.23</ele>
        <time>2019-07-08T13:30:14Z</time>
      </trkpt>
      <trkpt lat="44.89587" lon="2.75891">
        <ele>942.71</ele>
        <time>2019-07-08T13:30:29Z</time>
      </trkpt>
      <trkpt lat="44.89582" lon="2.75866">
        <ele>943.19</ele>
        <time>2019-07-08T13:30:43Z</time>
      </trkpt>
      <trkpt lat="44.89577" lon="2.7585">
        <ele>943.19</ele>
        <time>2019-07-08T13:30:54Z</time>
      </trkpt>
      <trkpt lat="44.89572" lon="2.75847">
        <ele>942.71</ele>
        <time>2019-07-08T13:30:59Z</time>
      </trkpt>
      <trkpt lat="44.89558" lon="2.75845">
        <ele>942.71</ele>
        <time>2019-07-08T13:31:12Z</time>
      </trkpt>
      <trkpt lat="44.89549" lon="2.75839">
        <ele>943.19</ele>
        <time>2019-07-08T13:31:20Z</time>
      </trkpt>
      <trkpt lat="44.89546" lon="2.75838">
        <ele>942.71</ele>
        <time>2019-07-08T13:31:23Z</time>
      </trkpt>
      <trkpt lat="44.89541" lon="2.75835">
        <ele>942.71</ele>
        <time>2019-07-08T13:31:27Z</time>
      </trkpt>
      <trkpt lat="44.89537" lon="2.75831">
        <ele>942.71</ele>
        <time>2019-07-08T13:31:31Z</time>
      </trkpt>
      <trkpt lat="44.89529" lon="2.75831">
        <ele>942.71</ele>
        <time>2019-07-08T13:31:37Z</time>
      </trkpt>
      <trkpt lat="44.89517" lon="2.7582">
        <ele>941.27</ele>
        <time>2019-07-08T13:31:52Z</time>
      </trkpt>
      <trkpt lat="44.89504" lon="2.75812">
        <ele>941.27</ele>
        <time>2019-07-08T13:32:06Z</time>
      </trkpt>
    </trkseg>
  </trk>
</gpx>